[[{"header":{"parameterUnit":"m.s-1","parameterCategory":1,"la1":31.0,"la2":29.5877,"lo1":-88.7671,"lo2":-86.6584,"dy":0.0162,"dx":0.0185,"nx":115,"ny":88,"refTime":"2023-06-27T06:00:00:Z","depth":0,"parameterNumber":2,"parameterNumberName":"U-component_of_WINDS"},"data":[0.0,0.0,0.0,0.0,0.0,0.0,0.0,0.0,0.0,0.0,0.0,0.0,0.0,0.0,0.0,0.0,0.0,0.0,0.0,0.0,0.0,0.0,0.0,0.0,0.0,0.0,0.0,0.0,0.0,0.0,0.0,0.0,0.0,0.0,0.0,0.0,0.0,0.0,0.0,0.0,0.0,0.0,0.0,0.0,0.0,0.0,0.0,0.0,0.0,0.0,0.0,0.0,0.0,0.0,0.0,0.0,0.0,0.0,0.0,0.0,0.0,0.0,0.0,0.0,0.0,0.0,0.0,0.0,0.0,0.0,0.0,0.0,0.0,0.0,0.0,0.0,0.0,0.0,0.0,0.0,0.0,0.0,0.0,0.0,0.0,0.0,0.0,0.0,0.0,0.0,0.0,0.0,0.0,0.0,0.0,0.0,0.0,0.0,0.0,0.0,0.0,0.0,0.0,0.0,0.0,0.0,0.0,0.0,0.0,0.0,0.0,0.0,0.0,0.0,0.0,0.0,0.0,0.0,0.0,0.0,0.0,0.0,0.0,0.0,0.0,0.0,0.0,0.0,0.0,0.0,0.0,0.0,0.0,0.0,0.0,0.0,0.0,0.0,0.0,0.0,0.0,0.0,0.0,0.0,0.0,0.0,0.0,0.0,0.0,0.0,0.0,0.0,0.0,0.0,0.0,0.0,0.0,0.0,0.0,0.0,0.0,0.0,0.0,0.0,0.0,0.0,0.0,0.0,0.0,0.0,0.0,0.0,0.0,0.0,0.0,0.0,0.0,0.0,0.0,0.0,0.0,0.0,0.0,0.0,0.0,0.0,0.0,0.0,0.0,0.0,0.0,0.0,0.0,0.0,0.0,0.0,0.0,0.0,0.0,0.0,0.0,0.0,0.0,0.0,0.0,0.0,0.0,0.0,0.0,0.0,0.0,0.0,0.0,0.0,0.0,0.0,0.0,0.0,0.0,0.0,0.0,0.0,0.0,0.0,0.0,0.0,0.0,0.0,0.0,0.0,0.0,0.0,0.0,0.0,0.0,0.0,0.0,0.0,0.0,0.0,0.0,0.0,0.0,0.0,0.0,0.0,0.0,0.0,0.0,0.0,0.0,0.0,0.0,0.0,0.0,0.0,0.0,0.0,0.0,0.0,0.0,0.0,0.0,0.0,0.0,0.0,0.0,0.0,0.0,0.0,0.0,0.0,0.0,0.0,0.0,0.0,0.0,0.0,0.0,0.0,0.0,0.0,0.0,0.0,0.0,0.0,0.0,0.0,0.0,0.0,0.0,0.0,0.0,0.0,0.0,0.0,0.0,0.0,0.0,0.0,0.0,0.0,0.0,0.0,0.0,0.0,0.0,0.0,0.0,0.0,0.0,0.0,0.0,0.0,0.0,0.0,0.0,0.0,0.0,0.0,0.0,0.0,0.0,0.0,0.0,0.0,0.0,0.0,0.0,0.0,0.0,0.0,0.0,0.0,0.0,0.0,0.0,0.0,0.0,0.0,0.0,0.0,0.0,0.0,0.0,0.0,0.0,0.0,0.0,0.0,0.0,0.0,0.0,0.0,0.0,0.0,0.0,0.0,0.0,0.0,0.0,0.0,0.0,0.0,0.0,0.0,0.0,0.0,0.0,0.0,0.0,0.0,0.0,0.0,0.0,0.0,0.0,0.0,0.0,0.0,0.0,0.0,0.0,0.0,0.0,0.0,0.0,0.0,0.0,0.0,0.0,0.0,0.0,0.0,0.0,0.0,0.0,0.0,0.0,0.0,0.0,0.0,0.0,0.0,0.0,0.0,0.0,0.0,0.0,0.0,0.0,0.0,0.0,0.0,0.0,0.0,0.0,0.0,0.0,0.0,0.0,0.0,0.0,0.0,0.0,0.0,0.0,0.0,0.0,0.0,0.0,0.0,0.0,0.0,0.0,0.0,0.0,0.0,0.0,0.0,0.0,0.0,0.0,0.0,0.0,0.0,0.0,0.0,0.0,0.0,0.0,0.0,0.0,0.0,0.0,0.0,0.0,0.0,0.0,0.0,0.0,0.0,0.0,0.0,0.0,0.0,0.0,0.0,0.0,0.0,0.0,0.0,0.0,0.0,0.0,0.0,0.0,0.0,0.0,0.0,0.0,0.0,0.0,0.0,0.0,0.0,0.0,0.0,0.0,0.0,0.0,0.0,0.0,0.0,0.0,0.0,0.0,0.0,0.0,0.0,0.0,0.0,0.0,0.0,0.0,0.0,0.0,0.0,0.0,0.0,0.0,0.0,0.0,0.0,0.0,0.0,0.0,0.0,0.0,0.0,0.0,0.0,0.0,0.0,0.0,0.0,0.0,0.0,0.0,0.0,0.0,0.0,0.0,0.0,0.0,0.0,0.0,0.0,0.0,0.0,0.0,0.0,0.0,0.0,0.0,0.0,0.0,0.0,0.0,0.0,0.0,0.0,0.0,0.0,0.0,0.0,0.0,0.0,0.0,0.0,0.0,0.0,0.0,0.0,0.0,0.0,0.0,0.0,0.0,0.0,0.0,0.0,0.0,0.0,0.0,0.0,0.0,0.0,0.0,0.0,0.0,0.0,0.0,0.0,0.0,0.0,0.0,0.0,0.0,0.0,0.0,0.0,0.0,0.0,0.0,0.0,0.0,0.0,0.0,0.0,0.0,0.0,0.0,0.0,0.0,0.0,0.0,0.0,0.0,0.0,0.0,0.0,0.0,0.0,0.0,0.0,0.0,0.0,0.0,0.0,0.0,0.0,0.0,0.0,0.0,0.0,0.0,0.0,0.0,0.0,0.0,0.0,0.0,0.0,0.0,0.0,0.0,0.0,0.0,0.0,0.0,0.0,0.0,0.0,0.0,0.0,0.0,0.0,0.0,0.0,0.0,0.0,0.0,0.0,0.0,0.0,0.0,0.0,0.0,0.0,0.0,0.0,0.0,0.0,0.0,0.0,0.0,0.0,0.0,0.0,0.0,0.0,0.0,0.0,0.0,0.0,0.0,0.0,0.0,0.0,0.0,0.0,0.0,0.0,0.0,0.0,0.0,0.0,0.0,0.0,0.0,0.0,0.0,0.0,0.0,0.0,0.0,0.0,0.0,0.0,0.0,0.0,0.0,0.0,0.0,0.0,0.0,0.0,0.0,0.0,0.0,0.0,0.0,0.0,0.0,0.0,0.0,0.0,0.0,0.0,0.0,0.0,0.0,0.0,0.0,0.0,0.0,0.0,0.0,0.0,0.0,0.0,0.0,0.0,0.0,0.0,0.0,0.0,0.0,0.0,0.0,0.0,0.0,0.0,0.0,0.0,0.0,0.0,0.0,0.0,0.0,0.0,0.0,0.0,0.0,0.0,0.0,0.0,0.0,0.0,0.0,0.0,0.0,0.0,0.0,0.0,0.0,0.0,0.0,0.0,0.0,0.0,0.0,0.0,0.0,0.0,0.0,0.0,0.0,0.0,0.0,0.0,0.0,0.0,0.0,0.0,0.0,0.0,0.0,0.0,0.0,0.0,0.0,0.0,0.0,0.0,0.0,0.0,0.0,0.0,0.0,0.0,0.0,0.0,0.0,0.0,0.0,0.0,0.0,0.0,0.0,0.0,0.0,0.0,0.0,0.0,0.0,0.0,0.0,0.0,0.0,0.0,0.0,0.0,0.0,0.0,0.0,0.0,0.0,0.0,0.0,0.0,0.0,0.0,0.0,0.0,0.0,0.0,0.0,0.0,0.0,0.0,0.0,0.0,0.0,0.0,0.0,0.0,0.0,0.0,0.0,0.0,0.0,0.0,0.0,0.0,0.0,0.0,0.0,0.0,0.0,0.0,0.0,0.0,0.0,0.0,0.0,0.0,0.0,0.0,0.0,0.0,0.0,0.0,0.0,0.0,0.0,0.0,0.0,0.0,0.0,0.0,0.0,0.0,0.0,0.0,0.0,0.0,0.0,0.0,0.0,0.0,0.0,0.0,0.0,0.0,0.0,0.0,0.0,0.0,0.0,0.0,0.0,0.0,0.0,0.0,0.0,0.0,0.0,0.0,0.0,0.0,0.0,0.0,0.0,0.0,0.0,0.0,0.0,0.0,0.0,0.0,0.0,0.0,0.0,0.0,0.0,0.0,0.0,0.0,0.0,0.0,0.0,0.0,0.0,0.0,0.0,0.0,0.0,0.0,0.0,0.0,0.0,0.0,0.0,0.0,0.0,0.0,0.0,0.0,0.0,0.0,0.0,0.0,0.0,0.0,0.0,0.0,0.0,0.0,0.0,0.0,0.0,0.0,0.0,0.0,-0.9919,0.0,0.0,0.0,0.0,0.0,0.0,0.0,0.0,0.0,0.0,0.0,0.0,0.0,0.0,0.0,0.0,0.0,0.0,0.0,0.0,0.0,0.0,0.0,0.0,0.0,0.0,0.0,0.0,0.0,0.0,0.0,0.0,0.0,0.0,0.0,0.0,0.0,0.0,0.0,0.0,0.0,0.0,0.0,0.0,0.0,0.0,0.0,0.0,0.0,0.0,0.0,0.0,0.0,0.0,0.0,0.0,0.0,0.0,0.0,0.0,0.0,0.0,0.0,0.0,0.0,0.0,0.0,0.0,0.0,0.0,0.0,0.0,0.0,0.0,0.0,0.0,0.0,0.0,0.0,0.0,0.0,0.0,0.0,0.0,0.0,0.0,0.0,0.0,0.0,0.0,0.0,0.0,0.0,0.0,0.0,0.0,0.0,0.0,0.0,0.0,0.0,0.0,0.0,0.0,0.0,0.0,0.0,0.0,0.0,0.0,-0.9538,-0.9564,-0.971,-0.9802,-0.9828,0.0,0.0,0.0,0.0,0.0,0.0,0.0,0.0,0.0,0.0,0.0,0.0,0.0,0.0,0.0,0.0,0.0,0.0,0.0,0.0,0.0,0.0,0.0,0.0,0.0,0.0,0.0,0.0,0.0,0.0,0.0,0.0,0.0,0.0,0.0,0.0,0.0,0.0,0.0,0.0,0.0,0.0,0.0,0.0,0.0,0.0,0.0,0.0,0.0,0.0,0.0,0.0,0.0,0.0,0.0,0.0,0.0,0.0,0.0,0.0,0.0,0.0,0.0,0.0,0.0,0.0,0.0,0.0,0.0,0.0,0.0,0.0,0.0,0.0,0.0,0.0,0.0,0.0,0.0,0.0,0.0,0.0,0.0,0.0,0.0,0.0,0.0,0.0,0.0,0.0,0.0,0.0,0.0,0.0,0.0,0.0,0.0,0.0,0.0,0.0,0.0,0.0,0.0,0.0,0.0,0.0,0.0,0.0,0.0,0.0,0.0,0.0,-0.9619,-0.9724,-0.9776,0.0,0.0,0.0,0.0,0.0,0.0,0.0,0.0,0.0,0.0,0.0,0.0,0.0,0.0,0.0,0.0,0.0,0.0,0.0,0.0,0.0,0.0,0.0,0.0,0.0,0.0,0.0,0.0,0.0,0.0,0.0,0.0,0.0,0.0,0.0,0.0,0.0,0.0,0.0,0.0,0.0,0.0,0.0,0.0,0.0,0.0,0.0,0.0,0.0,0.0,0.0,0.0,0.0,0.0,0.0,0.0,0.0,0.0,0.0,0.0,0.0,0.0,0.0,0.0,0.0,0.0,0.0,0.0,0.0,0.0,0.0,0.0,0.0,0.0,0.0,0.0,0.0,0.0,0.0,0.0,0.0,0.0,0.0,0.0,0.0,0.0,0.0,0.0,0.0,0.0,0.0,0.0,0.0,0.0,0.0,0.0,0.0,0.0,0.0,0.0,0.0,0.0,0.0,0.0,0.0,0.0,0.0,0.0,0.0,0.0,-0.9092,-0.9147,-0.9339,0.0,-0.9684,0.0,0.0,0.0,0.0,0.0,0.0,0.0,0.0,0.0,0.0,0.0,0.0,0.0,0.0,0.0,0.0,0.0,0.0,0.0,0.0,0.0,0.0,0.0,0.0,0.0,0.0,0.0,0.0,0.0,0.0,0.0,0.0,0.0,0.0,0.0,0.0,0.0,0.0,0.0,0.0,0.0,0.0,0.0,0.0,0.0,0.0,0.0,0.0,0.0,0.0,0.0,0.0,0.0,0.0,0.0,0.0,0.0,0.0,0.0,0.0,0.0,0.0,0.0,0.0,0.0,0.0,0.0,0.0,0.0,0.0,0.0,0.0,0.0,0.0,0.0,0.0,0.0,0.0,0.0,0.0,0.0,0.0,0.0,0.0,0.0,0.0,0.0,0.0,0.0,0.0,0.0,0.0,0.0,0.0,0.0,0.0,0.0,0.0,0.0,0.0,0.0,0.0,0.0,0.0,0.0,0.0,0.0,0.0,0.0,0.0,-0.901,-0.9038,-0.9232,-0.9446,0.0,0.0,0.0,0.0,0.0,0.0,0.0,0.0,0.0,0.0,0.0,0.0,0.0,0.0,0.0,0.0,0.0,0.0,0.0,0.0,0.0,0.0,0.0,0.0,0.0,0.0,0.0,0.0,0.0,0.0,0.0,0.0,0.0,0.0,0.0,0.0,0.0,0.0,0.0,0.0,0.0,0.0,0.0,0.0,0.0,0.0,0.0,0.0,0.0,0.0,0.0,0.0,0.0,0.0,0.0,0.0,0.0,0.0,0.0,0.0,0.0,0.0,0.0,0.0,0.0,0.0,0.0,0.0,0.0,0.0,0.0,0.0,0.0,0.0,0.0,0.0,0.0,0.0,0.0,0.0,0.0,0.0,0.0,0.0,0.0,0.0,0.0,0.0,0.0,0.0,0.0,0.0,0.0,0.0,0.0,0.0,0.0,0.0,0.0,0.0,0.0,0.0,0.0,0.0,0.0,0.0,0.0,0.0,0.0,0.0,-0.8834,-0.89,-0.8944,-0.9135,-0.9286,-0.9458,0.0,0.0,0.0,0.0,0.0,0.0,0.0,0.0,0.0,0.0,0.0,0.0,0.0,0.0,0.0,0.0,0.0,0.0,0.0,0.0,0.0,0.0,0.0,0.0,0.0,0.0,0.0,0.0,0.0,0.0,0.0,0.0,0.0,0.0,0.0,0.0,0.0,0.0,0.0,0.0,0.0,0.0,0.0,0.0,0.0,0.0,0.0,0.0,0.0,0.0,0.0,0.0,0.0,0.0,0.0,0.0,0.0,0.0,0.0,0.0,0.0,0.0,0.0,0.0,0.0,0.0,0.0,0.0,0.0,0.0,0.0,0.0,0.0,0.0,0.0,0.0,0.0,0.0,0.0,0.0,0.0,0.0,0.0,0.0,0.0,0.0,0.0,0.0,0.0,0.0,0.0,0.0,0.0,0.0,0.0,0.0,0.0,0.0,0.0,0.0,0.0,0.0,0.0,0.0,0.0,0.0,0.0,0.0,-0.8605,-0.8566,-0.8617,-0.88,-0.8944,-0.9038,0.0,0.0,0.0,0.0,0.0,0.0,0.0,0.0,0.0,0.0,0.0,0.0,0.0,0.0,0.0,0.0,0.0,0.0,0.0,0.0,0.0,0.0,0.0,0.0,0.0,0.0,0.0,0.0,0.0,0.0,0.0,0.0,0.0,0.0,0.0,0.0,0.0,0.0,0.0,0.0,0.0,0.0,0.0,0.0,0.0,0.0,0.0,0.0,0.0,0.0,0.0,0.0,0.0,0.0,0.0,0.0,0.0,0.0,0.0,0.0,0.0,0.0,0.0,0.0,0.0,0.0,0.0,0.0,0.0,0.0,0.0,0.0,0.0,0.0,0.0,0.0,0.0,0.0,0.0,0.0,0.0,0.0,0.0,0.0,0.0,0.0,0.0,0.0,0.0,0.0,0.0,0.0,0.0,0.0,0.0,0.0,0.0,0.0,0.0,0.0,0.0,0.0,0.0,0.0,0.0,0.0,0.0,0.0,0.0,-0.8583,-0.8695,-0.8795,-0.8905,-0.8944,-0.8971,0.0,0.0,0.0,0.0,0.0,0.0,0.0,0.0,0.0,0.0,0.0,0.0,0.0,0.0,0.0,0.0,0.0,0.0,0.0,0.0,0.0,0.0,0.0,0.0,0.0,0.0,0.0,0.0,0.0,0.0,0.0,0.0,0.0,0.0,0.0,0.0,0.0,0.0,0.0,0.0,0.0,0.0,0.0,0.0,0.0,0.0,0.0,0.0,0.0,0.0,0.0,0.0,0.0,0.0,0.0,0.0,0.0,0.0,0.0,0.0,0.0,0.0,0.0,0.0,0.0,0.0,0.0,0.0,0.0,0.0,0.0,0.0,0.0,0.0,0.0,0.0,0.0,0.0,0.0,0.0,0.0,0.0,0.0,0.0,0.0,0.0,0.0,0.0,0.0,0.0,0.0,0.0,0.0,0.0,0.0,0.0,0.0,0.0,0.0,0.0,0.0,0.0,0.0,0.0,0.0,0.0,0.0,0.0,0.0,-0.8645,0.0,-0.8944,-0.8994,-0.8878,-0.8822,0.0,0.0,0.0,0.0,0.0,0.0,0.0,0.0,0.0,0.0,0.0,0.0,0.0,0.0,0.0,0.0,0.0,0.0,0.0,0.0,0.0,0.0,0.0,0.0,0.0,0.0,0.0,0.0,0.0,0.0,0.0,0.0,0.0,0.0,0.0,0.0,0.0,0.0,0.0,0.0,0.0,0.0,0.0,0.0,0.0,0.0,0.0,0.0,0.0,0.0,0.0,0.0,0.0,0.0,0.0,0.0,0.0,0.0,0.0,0.0,0.0,0.0,0.0,0.0,0.0,0.0,0.0,0.0,0.0,0.0,0.0,0.0,0.0,0.0,0.0,0.0,0.0,0.0,0.0,0.0,0.0,0.0,0.0,0.0,0.0,0.0,0.0,0.0,0.0,0.0,0.0,0.0,0.0,0.0,0.0,0.0,0.0,0.0,0.0,0.0,0.0,0.0,0.0,0.0,0.0,0.0,0.0,0.0,-0.8516,-0.8712,-0.8939,-0.9028,-0.9005,-0.8817,-0.8656,0.0,0.0,0.0,0.0,0.0,0.0,0.0,0.0,0.0,0.0,0.0,0.0,0.0,0.0,0.0,0.0,0.0,0.0,0.0,0.0,0.0,0.0,0.0,0.0,0.0,0.0,0.0,0.0,0.0,0.0,0.0,0.0,0.0,0.0,0.0,0.0,0.0,0.0,0.0,0.0,0.0,0.0,0.0,0.0,0.0,0.0,0.0,0.0,0.0,0.0,0.0,0.0,0.0,0.0,0.0,0.0,0.0,0.0,0.0,0.0,0.0,0.0,0.0,0.0,0.0,0.0,0.0,0.0,0.0,0.0,0.0,0.0,0.0,0.0,0.0,0.0,0.0,0.0,0.0,0.0,0.0,0.0,0.0,0.0,0.0,0.0,0.0,0.0,0.0,0.0,0.0,0.0,0.0,0.0,0.0,0.0,0.0,0.0,0.0,0.0,0.0,0.0,0.0,0.0,0.0,0.0,0.0,0.0,0.0,-0.9259,-0.9395,-0.9482,-0.9482,-0.9336,-0.9007,0.0,0.0,0.0,0.0,0.0,0.0,0.0,0.0,0.0,0.0,0.0,0.0,0.0,0.0,0.0,0.0,0.0,0.0,0.0,0.0,0.0,0.0,0.0,0.0,0.0,0.0,0.0,0.0,0.0,0.0,0.0,0.0,0.0,0.0,0.0,0.0,0.0,0.0,0.0,0.0,0.0,0.0,0.0,0.0,0.0,0.0,0.0,0.0,0.0,0.0,0.0,0.0,0.0,0.0,0.0,0.0,0.0,0.0,0.0,0.0,0.0,0.0,0.0,0.0,0.0,0.0,0.0,0.0,0.0,0.0,0.0,0.0,0.0,0.0,0.0,0.0,0.0,0.0,0.0,0.0,0.0,0.0,0.0,0.0,0.0,0.0,0.0,0.0,0.0,0.0,0.0,0.0,0.0,0.0,0.0,0.0,0.0,0.0,0.0,0.0,0.0,0.0,0.0,0.0,0.0,0.0,0.0,0.0,0.0,-1.0463,-1.0619,-1.0674,-1.0686,-1.0323,-0.9671,-0.8632,0.0,0.0,0.0,0.0,0.0,0.0,0.0,0.0,0.0,0.0,0.0,0.0,0.0,0.0,0.0,0.0,0.0,0.0,0.0,0.0,0.0,0.0,0.0,0.0,0.0,0.0,0.0,0.0,0.0,0.0,0.0,0.0,0.0,0.0,0.0,0.0,0.0,0.0,0.0,0.0,0.0,0.0,0.0,0.0,0.0,0.0,0.0,0.0,0.0,0.0,0.0,0.0,0.0,0.0,0.0,0.0,0.0,0.0,0.0,0.0,0.0,0.0,0.0,0.0,0.0,0.0,0.0,0.0,0.0,0.0,0.0,0.0,0.0,0.0,0.0,0.0,0.0,0.0,0.0,0.0,0.0,0.0,0.0,0.0,0.0,0.0,0.0,0.0,0.0,0.0,0.0,0.0,0.0,0.0,0.0,0.0,0.0,0.0,0.0,0.0,0.0,0.0,0.0,0.0,0.0,0.0,0.0,0.0,-1.2187,-1.2402,-1.2454,-1.2278,-1.1675,-1.0587,0.0,0.0,0.0,0.0,0.0,0.0,0.0,0.0,0.0,0.0,0.0,0.0,0.0,0.0,0.0,0.0,0.0,0.0,0.0,0.0,0.0,0.0,0.0,0.0,0.0,0.0,0.0,0.0,0.0,0.0,0.0,0.0,0.0,0.0,0.0,0.0,0.0,0.0,0.0,0.0,0.0,0.0,0.0,0.0,0.0,0.0,0.0,0.0,0.0,0.0,0.0,0.0,0.0,0.0,0.0,0.0,0.0,0.0,0.0,0.0,0.0,0.0,0.0,0.0,0.0,0.0,0.0,0.0,0.0,0.0,0.0,0.0,0.0,0.0,0.0,0.0,0.0,0.0,0.0,0.0,0.0,0.0,0.0,0.0,0.0,0.0,0.0,0.0,0.0,0.0,0.0,0.0,0.0,0.0,0.0,0.0,0.0,0.0,0.0,0.0,0.0,0.0,0.0,0.0,0.0,0.0,0.0,0.0,0.0,-1.3493,-1.4516,-1.4316,-1.2818,-1.2182,-1.1047,0.0,0.0,0.0,0.0,0.0,0.0,0.0,0.0,0.0,0.0,0.0,0.0,0.0,0.0,0.0,0.0,0.0,0.0,0.0,0.0,0.0,0.0,0.0,0.0,0.0,0.0,0.0,0.0,0.0,0.0,0.0,0.0,0.0,0.0,0.0,0.0,0.0,0.0,0.0,0.0,0.0,0.0,0.0,0.0,0.0,0.0,0.0,0.0,0.0,0.0,0.0,0.0,0.0,0.0,0.0,0.0,0.0,0.0,0.0,0.0,0.0,0.0,0.0,0.0,0.0,0.0,0.0,0.0,0.0,0.0,0.0,0.0,0.0,0.0,0.0,0.0,0.0,0.0,0.0,0.0,0.0,0.0,0.0,0.0,0.0,0.0,0.0,0.0,0.0,0.0,0.0,0.0,0.0,0.0,0.0,0.0,0.0,0.0,0.0,0.0,0.0,0.0,0.0,0.0,0.0,0.0,0.0,0.0,-1.3382,-1.4348,-1.5649,-1.5731,-1.4546,-1.3649,-1.2148,0.0,0.0,0.0,0.0,0.0,0.0,0.0,0.0,0.0,0.0,0.0,0.0,0.0,0.0,0.0,0.0,0.0,0.0,0.0,0.0,0.0,0.0,0.0,0.0,0.0,0.0,0.0,0.0,0.0,0.0,0.0,0.0,0.0,0.0,0.0,0.0,0.0,0.0,0.0,0.0,0.0,0.0,0.0,0.0,0.0,0.0,0.0,0.0,0.0,0.0,0.0,0.0,0.0,0.0,0.0,0.0,0.0,0.0,0.0,0.0,0.0,0.0,0.0,0.0,0.0,0.0,0.0,0.0,0.0,0.0,0.0,0.0,0.0,0.0,0.0,0.0,0.0,0.0,0.0,0.0,0.0,0.0,0.0,0.0,0.0,0.0,0.0,0.0,0.0,0.0,0.0,0.0,0.0,0.0,0.0,0.0,0.0,0.0,0.0,0.0,0.0,0.0,0.0,0.0,0.0,0.0,0.0,0.0,-1.3686,-1.4775,-1.6055,-1.6728,-1.667,-1.5348,-1.3558,0.0,0.0,0.0,0.0,0.0,0.0,0.0,0.0,0.0,0.0,0.0,0.0,0.0,0.0,0.0,0.0,0.0,0.0,0.0,0.0,0.0,0.0,0.0,0.0,0.0,0.0,0.0,0.0,0.0,0.0,0.0,0.0,0.0,0.0,0.0,0.0,0.0,0.0,0.0,0.0,0.0,0.0,0.0,0.0,0.0,0.0,0.0,0.0,0.0,0.0,0.0,0.0,0.0,0.0,0.0,0.0,0.0,0.0,0.0,0.0,0.0,0.0,0.0,0.0,0.0,0.0,0.0,0.0,0.0,0.0,0.0,0.0,0.0,0.0,0.0,0.0,0.0,0.0,0.0,0.0,0.0,0.0,0.0,0.0,0.0,0.0,0.0,0.0,0.0,0.0,0.0,0.0,0.0,0.0,0.0,0.0,0.0,0.0,0.0,0.0,0.0,0.0,0.0,0.0,0.0,0.0,0.0,0.0,-1.4831,-1.4841,-1.6055,-1.6665,-1.6665,-1.5456,-1.3908,0.0,0.0,0.0,0.0,0.0,0.0,0.0,0.0,0.0,0.0,0.0,0.0,0.0,0.0,0.0,0.0,0.0,0.0,0.0,0.0,0.0,0.0,0.0,0.0,0.0,0.0,0.0,0.0,0.0,0.0,0.0,0.0,0.0,0.0,0.0,0.0,0.0,0.0,0.0,0.0,0.0,0.0,0.0,0.0,0.0,0.0,0.0,0.0,-0.8788,0.0,0.0,0.0,0.0,0.0,0.0,0.0,0.0,0.0,0.0,0.0,0.0,0.0,0.0,0.0,0.0,0.0,0.0,0.0,0.0,0.0,0.0,0.0,0.0,0.0,0.0,0.0,0.0,0.0,0.0,0.0,0.0,0.0,0.0,0.0,0.0,0.0,0.0,0.0,0.0,0.0,0.0,0.0,0.0,0.0,0.0,0.0,0.0,0.0,0.0,0.0,0.0,0.0,0.0,0.0,0.0,0.0,0.0,0.0,-1.4418,-1.4831,-1.585,-1.6523,-1.668,-1.5469,-1.4072,0.0,0.0,0.0,0.0,0.0,0.0,0.0,0.0,0.0,0.0,0.0,0.0,0.0,0.0,0.0,0.0,0.0,0.0,0.0,0.0,0.0,0.0,0.0,0.0,0.0,0.0,0.0,0.0,0.0,0.0,0.0,0.0,0.0,0.0,0.0,0.0,0.0,0.0,0.0,0.0,0.0,0.0,0.0,0.0,0.0,0.0,0.0,0.0,0.0,0.0,0.0,0.0,0.0,0.0,0.0,0.0,0.0,0.0,0.0,0.0,0.0,0.0,0.0,0.0,0.0,0.0,0.0,0.0,0.0,0.0,0.0,0.0,0.0,0.0,0.0,0.0,0.0,0.0,0.0,0.0,0.0,0.0,0.0,0.0,0.0,0.0,0.0,0.0,0.0,0.0,0.0,0.0,0.0,0.0,0.0,0.0,0.0,0.0,0.0,0.0,0.0,0.0,0.0,0.0,0.0,0.0,0.0,-1.2479,-1.3496,-1.4746,-1.5498,-1.6074,-1.6484,-1.5205,-1.3965,-1.2812,0.0,0.0,0.0,0.0,0.0,0.0,0.0,0.0,0.0,0.0,0.0,0.0,0.0,0.0,0.0,0.0,0.0,0.0,0.0,0.0,0.0,0.0,0.0,0.0,0.0,0.0,0.0,0.0,0.0,0.0,0.0,0.0,0.0,0.0,0.0,0.0,0.0,0.0,-0.7088,-0.7054,0.0,0.0,0.0,0.0,0.0,0.0,0.0,0.0,-0.9041,0.0,0.0,0.0,0.0,0.0,0.0,0.0,0.0,0.0,0.0,0.0,0.0,0.0,0.0,0.0,0.0,0.0,0.0,0.0,0.0,0.0,0.0,0.0,0.0,0.0,0.0,0.0,0.0,0.0,0.0,0.0,0.0,0.0,0.0,0.0,0.0,0.0,0.0,0.0,0.0,0.0,0.0,0.0,0.0,0.0,0.0,0.0,0.0,0.0,0.0,0.0,0.0,0.0,0.0,0.0,0.0,-1.1587,-1.2432,-1.3496,-1.4746,-1.4922,-1.5195,-1.5566,-1.4043,-1.292,-1.2314,0.0,0.0,0.0,0.0,0.0,0.0,0.0,0.0,0.0,0.0,0.0,0.0,0.0,0.0,0.0,0.0,0.0,0.0,0.0,0.0,0.0,0.0,0.0,0.0,0.0,0.0,0.0,0.0,0.0,0.0,0.0,0.0,0.0,0.0,0.0,0.0,0.0,0.0,0.0,-0.7181,-0.7114,0.0,0.0,0.0,0.0,0.0,0.0,0.0,0.0,-0.8824,0.0,0.0,0.0,0.0,0.0,0.0,0.0,0.0,0.0,0.0,0.0,0.0,0.0,0.0,0.0,0.0,0.0,0.0,0.0,0.0,0.0,0.0,0.0,0.0,0.0,0.0,0.0,0.0,0.0,0.0,0.0,0.0,0.0,0.0,0.0,0.0,0.0,0.0,0.0,0.0,0.0,0.0,0.0,0.0,0.0,0.0,0.0,0.0,0.0,0.0,0.0,0.0,0.0,0.0,0.0,-1.1587,-1.2451,-1.3323,-1.4092,-1.4336,-1.4541,-1.4717,-1.3535,-1.2686,0.0,0.0,0.0,0.0,0.0,0.0,0.0,0.0,0.0,0.0,0.0,0.0,0.0,0.0,0.0,0.0,0.0,0.0,0.0,0.0,0.0,0.0,0.0,0.0,0.0,0.0,0.0,0.0,0.0,0.0,0.0,0.0,0.0,0.0,0.0,0.0,0.0,0.0,0.0,0.0,-0.726,-0.7227,-0.7448,0.0,0.0,0.0,0.0,0.0,0.0,-0.8707,-0.8968,0.0,0.0,0.0,0.0,0.0,0.0,0.0,0.0,0.0,0.0,0.0,0.0,0.0,0.0,0.0,0.0,0.0,0.0,0.0,0.0,0.0,0.0,0.0,0.0,0.0,0.0,0.0,0.0,0.0,0.0,0.0,0.0,0.0,0.0,0.0,0.0,0.0,0.0,0.0,0.0,0.0,0.0,0.0,0.0,0.0,0.0,0.0,0.0,0.0,0.0,0.0,0.0,0.0,0.0,0.0,-1.1596,-1.2438,-1.311,-1.3477,-1.375,-1.3873,-1.3984,-1.3096,-1.2451,0.0,0.0,0.0,0.0,0.0,0.0,0.0,0.0,0.0,0.0,0.0,0.0,0.0,0.0,0.0,0.0,0.0,0.0,0.0,0.0,0.0,0.0,0.0,0.0,0.0,0.0,0.0,0.0,0.0,0.0,0.0,0.0,0.0,0.0,0.0,0.0,0.0,0.0,0.0,0.0,0.0,-0.738,-0.7635,-0.7646,0.0,0.0,0.0,0.0,-0.8581,-0.8965,0.0,0.0,0.0,0.0,0.0,0.0,0.0,0.0,0.0,0.0,0.0,0.0,0.0,0.0,0.0,0.0,0.0,0.0,0.0,0.0,0.0,0.0,0.0,0.0,0.0,0.0,0.0,0.0,0.0,0.0,0.0,0.0,0.0,0.0,0.0,0.0,0.0,0.0,0.0,0.0,0.0,0.0,0.0,0.0,0.0,0.0,0.0,0.0,0.0,0.0,0.0,0.0,0.0,0.0,0.0,0.0,-1.1596,-1.2428,-1.31,-1.3447,-1.3193,-1.3203,-1.3545,-1.2363,-1.1734,0.0,0.0,0.0,0.0,0.0,0.0,0.0,0.0,0.0,0.0,0.0,0.0,0.0,0.0,0.0,0.0,0.0,0.0,0.0,0.0,0.0,0.0,0.0,0.0,0.0,0.0,0.0,0.0,0.0,0.0,0.0,0.0,0.0,0.0,0.0,0.0,0.0,0.0,0.0,0.0,0.0,-0.7577,-0.8196,-0.7856,-0.7594,0.0,0.0,-0.8017,-0.8378,-0.903,0.0,0.0,0.0,0.0,0.0,0.0,0.0,0.0,0.0,0.0,0.0,0.0,0.0,0.0,0.0,0.0,0.0,0.0,0.0,0.0,0.0,0.0,0.0,0.0,0.0,0.0,0.0,0.0,0.0,0.0,0.0,0.0,0.0,0.0,0.0,0.0,0.0,0.0,0.0,0.0,0.0,0.0,0.0,0.0,0.0,0.0,0.0,0.0,0.0,0.0,0.0,0.0,0.0,0.0,0.0,-1.0991,-1.229,-1.271,-1.2965,-1.3165,-1.2969,-1.2852,-1.2735,-1.1982,-1.1489,0.0,0.0,0.0,0.0,0.0,0.0,0.0,0.0,0.0,0.0,0.0,0.0,0.0,0.0,0.0,0.0,0.0,0.0,0.0,0.0,0.0,0.0,0.0,0.0,0.0,0.0,0.0,0.0,0.0,0.0,0.0,0.0,0.0,0.0,0.0,0.0,0.0,0.0,0.0,0.0,0.0,0.0,-0.8174,-0.8227,0.0,0.0,0.0,-0.8664,-0.8721,0.0,0.0,0.0,0.0,0.0,0.0,0.0,0.0,0.0,0.0,0.0,0.0,0.0,0.0,0.0,0.0,0.0,0.0,0.0,0.0,0.0,0.0,0.0,0.0,0.0,0.0,0.0,0.0,0.0,0.0,0.0,0.0,0.0,0.0,0.0,0.0,0.0,0.0,0.0,0.0,0.0,0.0,0.0,0.0,0.0,0.0,0.0,0.0,0.0,0.0,0.0,0.0,0.0,0.0,0.0,0.0,0.0,-1.2557,-1.2801,-1.2904,-1.291,-1.2891,-1.2676,-1.219,-1.1797,0.0,0.0,0.0,0.0,0.0,0.0,0.0,0.0,0.0,0.0,0.0,0.0,0.0,0.0,0.0,0.0,0.0,0.0,0.0,0.0,0.0,0.0,0.0,0.0,0.0,0.0,0.0,-0.6985,0.0,0.0,0.0,0.0,0.0,0.0,0.0,0.0,0.0,0.0,0.0,0.0,0.0,0.0,-0.7892,-0.8236,-0.8606,-0.8811,0.0,0.0,-0.9272,-0.916,-0.969,-0.9829,0.0,0.0,0.0,0.0,0.0,0.0,0.0,0.0,0.0,0.0,0.0,0.0,0.0,0.0,0.0,0.0,0.0,0.0,0.0,0.0,0.0,0.0,0.0,0.0,0.0,0.0,0.0,0.0,0.0,0.0,0.0,0.0,0.0,0.0,0.0,0.0,0.0,0.0,0.0,0.0,0.0,0.0,0.0,0.0,0.0,0.0,0.0,0.0,0.0,0.0,0.0,0.0,0.0,0.0,0.0,-1.1665,-1.2484,-1.2906,-1.292,-1.2891,-1.2676,-1.219,-1.1841,-1.139,0.0,0.0,0.0,0.0,0.0,0.0,0.0,0.0,0.0,0.0,0.0,0.0,0.0,0.0,0.0,0.0,0.0,0.0,0.0,0.0,0.0,0.0,0.0,0.0,0.0,0.0,0.0,0.0,0.0,0.0,0.0,0.0,0.0,0.0,0.0,0.0,0.0,0.0,0.0,0.0,0.0,-0.7939,-0.8654,-0.8971,-0.9336,0.0,0.0,-0.9646,-0.9626,-1.0167,-0.9986,-0.8263,0.0,0.0,0.0,0.0,0.0,0.0,0.0,0.0,0.0,0.0,0.0,0.0,0.0,0.0,0.0,0.0,0.0,0.0,0.0,0.0,0.0,0.0,0.0,0.0,0.0,0.0,0.0,0.0,0.0,0.0,0.0,0.0,0.0,0.0,0.0,0.0,0.0,0.0,0.0,0.0,0.0,0.0,0.0,0.0,0.0,0.0,0.0,0.0,0.0,0.0,0.0,0.0,0.0,-1.0592,-1.1602,-1.2448,-1.2889,-1.292,-1.2891,-1.2529,-1.1836,-1.1704,-1.123,0.0,0.0,0.0,0.0,0.0,0.0,0.0,0.0,0.0,0.0,0.0,0.0,0.0,0.0,0.0,0.0,0.0,0.0,0.0,0.0,0.0,0.0,0.0,0.0,0.0,0.0,0.0,0.0,-0.7038,-0.6793,-0.6208,0.0,0.0,0.0,0.0,0.0,0.0,0.0,0.0,0.0,0.0,-0.7991,-0.8243,-0.9131,0.0,0.0,-1.012,-1.01,-0.974,-1.002,-0.9933,-0.8851,-0.8624,0.0,0.0,0.0,0.0,0.0,0.0,0.0,0.0,0.0,0.0,0.0,0.0,0.0,0.0,0.0,0.0,0.0,0.0,0.0,0.0,0.0,0.0,0.0,0.0,0.0,0.0,0.0,0.0,0.0,0.0,0.0,0.0,0.0,0.0,0.0,0.0,0.0,0.0,0.0,0.0,0.0,0.0,0.0,0.0,0.0,0.0,0.0,0.0,0.0,0.0,0.0,0.0,-1.0587,-1.1983,-1.2589,-1.2899,-1.292,-1.2891,-1.2529,-1.1832,-1.1675,-1.1126,0.0,0.0,0.0,0.0,0.0,0.0,0.0,0.0,0.0,0.0,0.0,0.0,0.0,0.0,0.0,0.0,0.0,0.0,0.0,0.0,0.0,0.0,0.0,0.0,0.0,0.0,0.0,0.0,-0.6722,-0.6296,-0.5604,0.0,0.0,0.0,0.0,0.0,0.0,0.0,0.0,0.0,0.0,-0.7505,-0.7689,-0.8774,-0.9588,-0.9649,-0.9966,-1.0093,-0.9688,-0.9721,-0.9595,-0.9072,0.0,0.0,0.0,0.0,0.0,0.0,0.0,0.0,0.0,0.0,0.0,0.0,0.0,0.0,0.0,0.0,0.0,0.0,0.0,0.0,0.0,0.0,0.0,0.0,0.0,0.0,0.0,0.0,0.0,0.0,-1.3488,0.0,0.0,0.0,0.0,0.0,0.0,0.0,0.0,0.0,0.0,0.0,0.0,0.0,0.0,0.0,0.0,0.0,0.0,0.0,0.0,0.0,0.0,-1.0732,-1.2809,-1.2884,-1.2899,-1.292,-1.2891,-1.2666,-1.2171,-1.1797,-1.1133,-1.0149,0.0,0.0,0.0,0.0,0.0,0.0,0.0,0.0,0.0,0.0,0.0,0.0,0.0,0.0,0.0,0.0,0.0,0.0,0.0,0.0,0.0,0.0,0.0,0.0,0.0,0.0,-0.6231,-0.5809,-0.5425,0.0,0.0,0.0,0.0,0.0,0.0,0.0,0.0,0.0,0.0,-0.5708,-0.6449,-0.7217,-0.7924,-0.8723,-0.9394,-0.953,-0.9545,-0.9531,-0.9352,-0.9058,0.0,0.0,0.0,0.0,0.0,0.0,0.0,0.0,0.0,0.0,0.0,0.0,0.0,0.0,0.0,0.0,0.0,0.0,0.0,0.0,0.0,0.0,0.0,0.0,0.0,0.0,0.0,-1.7796,-1.5944,0.0,0.0,0.0,0.0,0.0,0.0,0.0,0.0,0.0,0.0,0.0,-1.5727,-1.4898,0.0,0.0,0.0,0.0,0.0,0.0,0.0,0.0,0.0,0.0,0.0,0.0,-1.0437,-1.2787,-1.2892,-1.2918,-1.2929,-1.2891,-1.2676,-1.22,-1.209,-1.1429,-1.0206,0.0,0.0,0.0,0.0,0.0,0.0,0.0,0.0,0.0,0.0,0.0,0.0,0.0,0.0,0.0,0.0,0.0,0.0,0.0,0.0,0.0,0.0,0.0,0.0,0.0,-0.6756,0.0,0.0,0.0,0.0,0.0,0.0,0.0,0.0,0.0,0.0,0.0,-0.4386,-0.4491,-0.555,-0.6384,-0.6559,-0.7628,-0.8658,0.0,0.0,0.0,0.0,0.0,0.0,0.0,0.0,0.0,0.0,0.0,0.0,0.0,0.0,-0.8391,-0.7993,-0.797,-0.8072,-0.8024,0.0,0.0,0.0,0.0,0.0,0.0,0.0,0.0,0.0,0.0,0.0,0.0,0.0,0.0,-1.995,0.0,-1.7704,0.0,0.0,0.0,0.0,0.0,0.0,0.0,0.0,-1.6231,-1.6935,-1.795,-1.7146,-1.5991,0.0,-1.4271,-1.3688,0.0,0.0,0.0,0.0,0.0,0.0,0.0,0.0,-1.0463,-1.2801,-1.3175,-1.3182,-1.2908,-1.3027,-1.2891,-1.2461,-1.1865,-1.0973,-0.9719,-0.8844,-0.8289,0.0,0.0,0.0,0.0,0.0,0.0,0.0,0.0,0.0,0.0,0.0,0.0,0.0,0.0,0.0,0.0,0.0,0.0,0.0,0.0,0.0,0.0,0.0,-0.6693,0.0,0.0,0.0,0.0,0.0,0.0,0.0,0.0,0.0,-0.4101,-0.4274,-0.4369,-0.4317,-0.5148,-0.5762,-0.5874,0.0,0.0,0.0,0.0,0.0,0.0,0.0,-0.9691,-0.9201,-0.8999,-0.8872,-0.8702,-0.8398,-0.8554,-0.9691,0.0,0.0,-0.8545,-0.8552,-0.8537,-0.8544,-0.8544,-0.8604,-0.8798,-0.8677,-0.8651,0.0,0.0,0.0,0.0,0.0,0.0,0.0,0.0,-2.0311,-2.1476,0.0,-1.9336,0.0,0.0,0.0,0.0,0.0,-1.7476,0.0,0.0,-1.8311,-1.9622,-1.9356,-1.9293,-1.8224,-1.6284,-1.6235,-1.5851,-1.4775,-1.2657,0.0,0.0,0.0,0.0,0.0,0.0,-1.0855,-1.2955,-1.3694,-1.3676,-1.2968,-1.3212,-1.319,-1.2774,-1.1279,-0.9915,-0.8801,-0.8431,-0.814,-0.8126,-0.7937,0.0,0.0,0.0,0.0,0.0,0.0,0.0,0.0,0.0,0.0,0.0,0.0,0.0,0.0,0.0,0.0,0.0,0.0,0.0,0.0,-0.672,0.0,0.0,0.0,0.0,0.0,0.0,0.0,0.0,0.0,0.0,-0.422,-0.4217,-0.4314,-0.4508,0.0,0.0,0.0,0.0,-0.6151,-0.7071,-0.7812,-0.8427,-0.8983,-0.9573,-0.9678,-0.8854,0.0,0.0,-0.7606,-0.7419,-0.7771,-0.8609,-0.8885,-0.9151,-0.9975,-0.9886,-0.9693,-0.9686,-0.9653,-0.9693,-0.9699,-0.9613,-0.9613,-2.7545,0.0,0.0,0.0,0.0,-2.143,-1.9853,-1.9007,-2.1526,-2.1754,-2.0315,-2.0529,0.0,0.0,0.0,0.0,0.0,0.0,-1.9008,-1.8453,-1.9387,-1.9938,-2.0205,-2.0239,-1.9448,-1.791,-1.7664,-1.7243,-1.6602,-1.5381,-1.4057,-1.2645,0.0,0.0,0.0,0.0,-1.1345,-1.4413,-1.3787,-1.3186,-1.2996,-1.2299,-1.1766,-1.1392,-1.0923,-1.0316,-0.9537,-0.9386,-0.8991,-0.8349,-0.8261,0.0,0.0,0.0,0.0,0.0,0.0,0.0,0.0,0.0,0.0,0.0,0.0,0.0,0.0,0.0,0.0,0.0,0.0,0.0,-0.7308,-0.711,-0.663,0.0,0.0,0.0,0.0,0.0,0.0,0.0,0.0,0.0,-0.4711,-0.4629,-0.4579,0.0,0.0,-0.4974,-0.5135,-0.5601,-0.6166,-0.6858,0.0,0.0,0.0,-1.0327,-1.0724,-1.0511,-1.0119,-0.9653,-0.9162,-0.8878,-0.9274,-1.0855,-1.0484,-1.0263,-1.1145,-1.0782,-1.0347,-1.0356,-1.0147,-1.0074,-1.0241,-0.9993,-0.963,-3.2138,-2.8981,-2.7305,-2.6777,-2.6926,-2.4878,-2.3377,-2.2515,-2.4296,-2.4099,-2.2485,-2.2711,-2.1518,-1.9334,-1.9108,0.0,0.0,0.0,-2.0734,-2.1106,-2.0796,-2.079,-2.1094,-2.0791,-2.0222,-1.9394,-1.8965,-1.8457,-1.7881,-1.7344,-1.6272,-1.4649,0.0,0.0,-1.0762,-1.0104,-1.1005,-1.3329,-1.256,-1.202,-1.2028,-1.1576,-1.1035,-1.0431,-1.0415,-1.0115,-0.9413,-0.9406,-0.9127,-0.8602,-0.8437,-0.8315,0.0,0.0,0.0,0.0,0.0,0.0,0.0,0.0,0.0,0.0,0.0,-0.7388,0.0,0.0,0.0,0.0,-0.7482,-0.7465,-0.7448,-0.7109,0.0,0.0,0.0,0.0,0.0,0.0,0.0,-0.4626,-0.4834,-0.4961,-0.4992,-0.503,-0.4982,-0.4806,-0.4968,-0.514,-0.5206,0.0,-0.6083,-0.6722,-0.8006,-0.9097,-0.9655,-1.0608,-1.1294,-1.1114,-1.0309,-0.9606,-0.9094,-0.8835,-0.914,-1.0093,-0.9843,-0.9679,-1.1066,-1.0784,-1.0529,-1.0684,-1.0494,-1.0367,-1.0528,-1.0027,-0.9469,-3.5878,-3.4442,-3.1465,-3.0088,-2.9809,-2.8481,-2.765,-2.7294,-2.7934,-2.7691,-2.6688,-2.5486,-2.4042,-2.2485,-2.202,0.0,-2.2602,-2.2309,-2.2492,-2.3084,-2.244,-2.206,-2.1845,-2.1055,-2.0661,-2.0624,-2.0156,-1.9541,-1.8769,-1.873,-1.8182,-1.7225,-1.5007,-1.3176,-1.1873,-1.0646,-1.0228,-1.0618,-1.0688,-1.0653,-1.063,-1.098,-1.0714,-0.9762,-0.9732,-0.9406,-0.8857,-0.8804,-0.8804,-0.8798,-0.8557,-0.8561,-0.8748,0.0,0.0,0.0,0.0,0.0,0.0,0.0,0.0,0.0,0.0,0.0,0.0,0.0,0.0,0.0,-0.7747,0.0,-0.7574,-0.6823,0.0,0.0,0.0,-0.491,-0.4933,-0.4748,-0.4693,-0.4955,0.0,0.0,-0.5186,0.0,-0.5454,-0.5043,-0.5091,-0.522,-0.5442,-0.5644,-0.6,-0.6497,-0.7677,-0.868,-0.9156,-1.0385,-1.1027,-1.0479,-0.982,-0.8908,-0.8071,-0.7851,-0.7855,-0.8125,-0.7755,-0.8208,-0.9946,-1.0061,-1.0131,-1.0612,-1.071,-1.0595,-1.0474,-0.9843,-0.9233,-3.7449,-3.6656,-3.5878,-3.4397,-3.2467,-3.1168,-3.1059,-3.1735,-3.0081,-2.9245,-2.8879,-2.6934,-2.5385,-2.4243,-2.4494,-2.4921,-2.5498,-2.5822,-2.504,-2.3479,-2.3893,-2.3294,-2.1949,-2.1698,-2.1202,-2.0654,-2.0459,-2.0137,-1.9629,-1.9609,-1.9346,-1.8737,-1.7116,-1.519,-1.3022,-1.145,-1.0649,-1.0561,-1.1036,-1.0989,-1.0574,-1.0258,-0.9869,-0.9357,-0.9125,-0.8962,-0.8811,-0.8804,-0.8804,-0.8804,-0.8738,-0.8662,-0.8497,-0.8293,0.0,0.0,0.0,0.0,0.0,0.0,0.0,0.0,0.0,-0.7722,-0.7534,0.0,-0.7783,0.0,-0.7553,-0.7345,-0.6783,-0.6492,0.0,0.0,-0.5592,-0.5376,-0.5275,-0.5233,-0.5252,-0.5423,-0.5555,-0.564,-0.5644,-0.5705,-0.5711,-0.5603,-0.5525,-0.5532,-0.5674,-0.5722,-0.5875,-0.6162,-0.724,-0.8019,-0.8295,-0.9105,-0.959,-0.8675,-0.8309,-0.8089,-0.7855,-0.7842,-0.8009,-0.863,-0.8758,-0.8867,-0.9074,-0.9002,-0.8842,-0.9108,-0.9994,-1.0692,-1.0089,-0.9539,-0.8877,-3.8467,-3.7823,-3.7524,-3.6402,-3.4752,-3.3717,-3.3214,-3.2945,-3.0724,-2.977,-2.9686,-2.7997,-2.6854,-2.6327,-2.659,-2.6879,-2.7205,-2.7051,-2.6486,-2.5529,-2.4124,-2.277,-2.1374,-2.135,-2.1262,-2.1143,-2.0957,-2.084,-2.0791,-2.0596,-2.0283,-1.9853,-1.8889,-1.7444,-1.5477,-1.3705,-1.315,-1.3872,-1.2262,-1.1207,-1.0911,-1.0091,-0.9539,-0.919,-0.8958,-0.8804,-0.8804,-0.8804,-0.8804,-0.8804,-0.8804,-0.8738,-0.8577,-0.8444,-0.8303,0.0,0.0,0.0,0.0,0.0,0.0,0.0,0.0,0.0,0.0,0.0,-0.8144,0.0,-0.7756,-0.7349,-0.6837,-0.6351,-0.5998,-0.5853,-0.5698,-0.5611,-0.5554,-0.5583,-0.5611,-0.5684,-0.5813,-0.5978,-0.5905,-0.5962,-0.5979,-0.5911,-0.5833,-0.5789,-0.5813,-0.5911,-0.5993,-0.5942,-0.6943,-0.7842,-0.8134,-0.87,-0.892,-0.8411,-0.8259,-0.8116,-0.7677,-0.755,-0.7599,-0.7616,-0.7601,-0.7655,-0.7869,-0.7817,-0.774,-0.8271,-0.9002,-0.9402,-0.9008,-0.8511,-0.7762,-3.9065,-3.8467,-3.7898,-3.7255,-3.6582,-3.5971,-3.4723,-3.2789,-3.0681,-2.9762,-2.9707,-2.8773,-2.8323,-2.8323,-2.8323,-2.8323,-2.8249,-2.7444,-2.7481,-2.8083,-2.4546,-2.2215,-2.0955,-2.079,-2.1132,-2.1865,-2.1494,-2.1514,-2.1865,-2.1455,-2.1045,-2.0644,-2.0156,-1.9374,-1.8323,-1.6464,-1.6147,-1.7176,-1.3585,-1.1539,-1.1299,-1.0328,-0.9599,-0.9305,-0.9018,-0.8844,-0.8804,-0.8804,-0.8804,-0.8804,-0.8804,-0.8804,-0.8804,-0.8571,-0.8494,0.0,-0.8243,0.0,0.0,0.0,0.0,0.0,0.0,0.0,0.0,-0.8309,-0.8136,-0.8259,-0.7735,-0.734,-0.705,-0.6111,-0.5634,-0.572,-0.5649,-0.5641,-0.5762,-0.582,-0.584,-0.5857,-0.6131,-0.6214,-0.6067,-0.6179,-0.6203,-0.6084,-0.6054,-0.5993,-0.5884,-0.6023,-0.6074,-0.585,-0.6645,-0.7411,-0.7989,-0.8287,-0.8292,-0.8348,-0.8226,-0.8122,-0.7233,-0.7077,-0.6805,-0.6069,-0.5828,-0.5953,-0.6575,-0.6639,-0.6798,-0.7456,-0.7587,-0.7722,-0.7782,-0.7381,-0.6715,-3.9349,-3.9215,-3.9095,-3.8347,-3.724,-3.7097,-3.6226,-3.4697,-3.1282,-2.9817,-2.9756,-2.9541,-2.9478,-2.9465,-2.9478,-2.9478,-2.9478,-2.9299,-2.9303,-2.9475,-2.8691,-2.6298,-2.2704,-2.1967,-2.1763,-2.1875,-2.1797,-2.1807,-2.1885,-2.1445,-2.1191,-2.1084,-2.0303,-2.0,-2.0031,0.0,0.0,0.0,-1.3225,-1.2571,-1.1423,-1.0677,-1.0078,-0.9606,-0.9319,0.0,-0.8824,-0.8804,-0.8804,-0.8804,-0.8804,0.0,0.0,0.0,0.0,0.0,0.0,0.0,0.0,0.0,0.0,0.0,-0.9302,-0.8941,-0.8334,-0.7348,-0.6665,-0.6351,-0.6227,-0.5962,-0.559,-0.546,-0.5429,-0.5488,-0.5538,-0.5686,-0.5783,-0.6061,-0.6186,-0.6239,-0.6276,-0.6294,-0.6213,-0.6244,-0.6247,-0.62,-0.6217,-0.6156,-0.6,-0.5935,-0.5918,-0.5959,-0.6127,-0.6198,-0.6301,-0.6437,-0.6576,-0.6365,-0.6365,-0.6362,-0.6147,-0.6079,-0.6054,-0.5654,-0.5586,-0.5624,-0.5673,-0.5641,-0.5752,-0.5885,-0.5951,-0.6145,-0.6785,-0.6785,-0.6523,-3.9424,0.0,-3.905,-3.8332,0.0,-3.6709,-3.6076,-3.5267,-3.1433,-2.9802,-2.9779,-2.9779,-2.9779,-2.9779,-2.9779,-2.9779,-2.9779,-2.9779,-2.9814,-2.9766,-2.9751,-2.7429,-2.3073,-2.2649,-2.2414,-2.2197,-2.2197,-2.2295,-2.2471,-2.207,-2.1758,-2.1553,-2.0889,-2.0566,-2.0542,-1.9727,-1.7017,-1.2368,-1.2684,-1.2546,-1.1798,-1.0946,-1.0323,-0.9893,0.0,0.0,0.0,0.0,0.0,0.0,0.0,0.0,0.0,0.0,0.0,-0.9439,-0.9459,-0.9519,-0.9673,-0.9686,-0.9753,-0.9774,-0.9551,-0.9138,-0.8446,-0.8059,-0.7566,-0.6938,-0.6536,-0.6137,-0.5944,-0.5574,-0.5393,-0.5464,-0.5542,-0.5644,-0.5786,-0.6089,-0.6289,-0.6215,-0.6217,-0.6261,-0.6261,-0.6261,-0.619,-0.6071,-0.6169,-0.6179,-0.5969,-0.5918,-0.5928,-0.5922,-0.5861,-0.5803,-0.58,-0.58,-0.58,-0.5796,-0.5742,-0.5701,-0.5694,-0.5633,-0.5559,-0.5488,-0.548,-0.5495,-0.5428,-0.5428,-0.5428,-0.5428,-0.5428,-0.5491,-0.6009,-0.6075,-0.5943,-3.9424,-3.9364,-3.8811,-3.8123,-3.7306,-3.6256,-3.5293,-3.4257,0.0,0.0,0.0,-2.9779,-2.9779,-2.9779,-2.9779,-2.9779,-2.9779,-2.9779,-2.9779,-2.9752,-2.978,-2.737,-2.3213,-2.3116,-2.2962,-2.2627,-2.2627,-2.2803,-2.3115,-2.2705,-2.2344,-2.1973,-2.1494,-2.1027,-2.0596,-2.0607,-1.8331,-1.3986,-1.3164,-1.2683,-1.2379,-1.1439,-1.0746,-1.02,-0.9679,-0.9316,-0.9263,-0.9092,-0.8965,-0.8958,-0.8965,-0.9072,-0.9243,-0.9263,-0.9452,-0.9733,-0.976,-0.9786,-0.9833,-0.9833,-0.988,-0.9923,-0.9397,-0.885,-0.8324,-0.8626,-0.8484,-0.7637,-0.6854,-0.6474,-0.6502,-0.5863,-0.5531,-0.5613,-0.563,-0.5684,-0.5827,-0.6099,-0.6197,-0.6078,-0.619,-0.6261,-0.6261,-0.6261,-0.6159,-0.5952,-0.6098,-0.6162,-0.5925,-0.5918,-0.5911,-0.5793,-0.5752,-0.5762,-0.5796,-0.58,-0.58,-0.5796,-0.5708,-0.563,-0.561,-0.5579,-0.549,-0.5433,-0.5473,-0.5403,-0.5439,-0.5428,-0.5428,-0.5428,-0.5428,-0.5428,-0.5428,-0.5428,-0.5425,-3.9424,-3.9409,-3.932,-3.8556,-3.7404,-3.7193,-3.4649,-3.0655,-3.0008,-2.9807,-2.9779,-2.9779,-2.9779,-2.9779,-2.9779,-2.9779,-2.9779,-2.9779,-2.9779,0.0,-2.9768,-2.7426,-2.3227,-2.3097,-2.3066,-2.3057,-2.3047,-2.3086,-2.2999,-2.2725,-2.2471,-2.2334,-2.1631,-2.0986,-2.0615,-2.0633,-2.0206,-1.9355,-1.637,-1.4245,-1.3186,-1.2666,-1.1816,-1.0564,-1.0167,-0.9866,-0.9626,-0.9573,-0.9559,-0.9566,-0.9559,-0.9579,-0.9619,-0.9619,-0.9753,-1.0027,-1.0053,-1.0167,-1.0414,-1.0441,-1.0197,-0.947,-0.8661,-0.7817,-0.7071,-0.7028,-0.6724,-0.5885,-0.5693,-0.5614,-0.5737,-0.5624,-0.5613,-0.5742,-0.5769,-0.583,-0.5962,-0.601,-0.6078,-0.619,-0.6244,-0.6261,-0.6261,-0.6261,-0.6196,-0.6064,-0.6125,-0.619,-0.602,-0.5898,-0.5779,-0.5657,-0.562,-0.5671,-0.5803,-0.5803,-0.5827,-0.58,-0.5796,-0.5772,-0.5772,-0.5761,-0.5676,-0.5559,-0.5583,-0.5549,-0.5406,-0.5428,-0.5435,-0.5435,-0.5428,-0.5428,-0.5428,-0.5428,-0.5428,-3.9424,-3.9424,-3.9424,-3.8841,-3.7844,-3.6828,-3.387,-2.9886,-2.9783,-2.9779,-2.9779,-2.9779,-2.9779,-2.9779,-2.9779,-2.9779,-2.9779,-2.9779,-2.9779,-2.9752,-2.9801,-2.7417,-2.3423,-2.3063,-2.3122,-2.3125,-2.3144,-2.3144,-2.3125,-2.2939,-2.2744,-2.2471,-2.1448,-2.0806,-2.0622,-2.0613,-2.0566,-2.0529,-1.8471,-1.6439,-1.452,-1.3716,-1.2759,-1.1639,-1.0822,-1.0214,-0.9927,-0.9766,-0.9686,-0.9686,-0.9686,-0.976,-0.9907,-0.992,-1.0047,-1.0334,-1.0361,-1.0414,-1.0611,-1.0174,-0.9722,-0.9338,-0.8484,-0.7686,-0.6869,-0.6713,-0.6334,-0.5495,-0.5433,-0.5511,-0.5586,-0.5657,-0.5732,-0.5796,-0.58,-0.583,-0.5898,-0.5986,-0.6061,-0.6132,-0.621,-0.6261,-0.6261,-0.6261,-0.6203,-0.6071,-0.6101,-0.6105,-0.604,-0.5976,-0.5905,-0.5847,-0.5898,-0.5976,-0.6037,-0.6051,-0.6051,-0.6051,-0.5979,-0.5932,-0.5922,-0.5867,-0.5766,-0.5637,-0.5637,-0.5611,-0.5433,-0.5437,-0.5511,-0.5439,-0.5428,-0.5428,-0.5428,-0.5428,-0.5428,-3.9424,-3.9424,-3.9424,-3.9065,-3.8467,-3.6707,-3.3578,-2.9934,-2.9807,-2.9779,-2.9779,-2.9779,-2.9779,-2.9779,-2.9779,-2.9779,-2.9779,-2.9779,-2.9779,-2.9817,-2.9762,-2.7545,-2.3867,-2.3291,-2.3061,-2.3105,-2.3144,-2.3144,-2.3144,-2.3144,-2.293,-2.248,-2.152,-2.0852,-2.0628,-2.0628,-2.0738,-2.1041,-2.0159,-1.827,-1.566,-1.4681,-1.3645,-1.2394,-1.1328,-1.0641,-1.0414,-1.0187,-1.0047,-1.004,-0.998,-1.0047,-1.02,-1.0214,-1.0321,-1.0534,-1.0618,-1.0658,-1.0655,-0.9941,-0.9373,-0.9111,-0.8311,-0.7516,-0.6761,-0.6531,-0.6254,-0.5606,-0.5576,-0.5654,-0.5708,-0.5789,-0.5867,-0.5895,-0.5905,-0.5925,-0.5922,-0.6013,-0.6084,-0.6098,-0.619,-0.6261,-0.6261,-0.6261,-0.6217,-0.6122,-0.6057,-0.6037,-0.6071,-0.6081,-0.6081,-0.6095,-0.6159,-0.6196,-0.6244,-0.6247,-0.6244,-0.6261,-0.6159,-0.6095,-0.6074,-0.5972,-0.5872,-0.5783,-0.5768,-0.5728,-0.5518,-0.5498,-0.5508,-0.5466,-0.5428,-0.5428,-0.5428,-0.5428,-0.5428,-3.9409,-3.9424,-3.9409,-3.9373,-3.9053,-3.7768,-3.4402,-3.0121,-2.9809,-2.9779,-2.9779,-2.9792,-2.9804,-2.9779,-2.9779,-2.9779,-2.9779,-2.9779,-2.9779,-2.9817,-2.9774,-2.8148,-2.5157,-2.3739,-2.3061,-2.3105,-2.3144,-2.3144,-2.3144,-2.3144,-2.293,-2.2549,-2.2412,-2.1736,-2.078,-2.0632,-2.1342,-2.2798,-2.1328,-1.904,-1.6313,-1.5566,-1.4324,-1.2324,-1.17,-1.1336,-1.1256,-1.1276,-1.1142,-1.0974,-1.092,-1.0755,-1.0555,-1.0521,-1.0604,-1.0638,-1.0631,-1.0732,-1.087,-1.0387,-0.9662,-0.8703,-0.7911,-0.7012,-0.6133,-0.5905,-0.5901,-0.5766,-0.5776,-0.5837,-0.5966,-0.6,-0.6057,-0.6162,-0.6186,-0.622,-0.62,-0.623,-0.624,-0.624,-0.6244,-0.6261,-0.6261,-0.6261,-0.6251,-0.6224,-0.6122,-0.6091,-0.619,-0.6213,-0.6213,-0.6203,-0.6152,-0.6132,-0.6224,-0.6261,-0.6261,-0.6261,-0.6251,-0.622,-0.621,-0.6207,-0.6169,-0.5962,-0.5993,-0.5915,-0.5691,-0.5583,-0.5542,-0.5504,-0.5449,-0.5428,-0.5428,-0.5428,-0.5428,-3.917,-3.8871,-3.9245,-3.8616,-3.7652,-3.8238,-3.525,-2.9995,-2.977,-2.9779,-2.9842,-3.0131,-3.0105,-2.9792,-2.9779,-2.9779,-2.9779,-2.9779,-2.9779,-2.9804,-2.9786,-2.8455,-2.6057,-2.4013,-2.3118,-2.3105,-2.3144,-2.3144,-2.3144,-2.3144,-2.3047,-2.2871,-2.2646,-2.2318,-2.2049,-2.1597,-2.1923,-2.301,-2.2413,-2.0813,-1.8408,-1.6733,-1.5072,-1.3237,-1.2182,-1.1597,-1.145,-1.143,-1.1295,-1.1114,-1.1168,-1.1122,-1.0929,-1.0996,-1.1069,-1.1076,-1.1076,-1.1122,-1.1243,-1.0529,-0.9892,-0.9469,-0.8127,-0.7111,-0.6791,-0.6298,-0.5969,-0.6047,-0.5993,-0.5966,-0.6027,-0.6112,-0.6193,-0.6251,-0.6261,-0.6261,-0.6261,-0.6261,-0.6261,-0.6261,-0.6261,-0.6261,-0.6261,-0.6261,-0.6261,-0.6257,-0.6196,-0.6196,-0.6254,-0.6261,-0.6261,-0.6254,-0.6203,-0.6196,-0.6251,-0.6261,-0.6261,-0.6261,-0.6261,-0.6261,-0.6261,-0.6261,-0.6207,-0.6057,-0.6108,-0.6037,-0.5769,-0.5715,-0.5671,-0.5528,-0.5466,-0.5428,-0.5428,-0.5428,-0.5428,-3.914,-3.8796,-3.9215,-3.8192,-3.6373,-3.7517,-3.496,-3.0241,-3.0085,-3.007,-2.9854,-3.0369,-3.0306,-2.9867,-2.9942,-3.0018,-3.0005,-2.9867,-2.9779,-2.9779,-2.9779,-2.8688,-2.6687,-2.4259,-2.3126,-2.3103,-2.3096,-2.3144,-2.3144,-2.3144,-2.3144,-2.3086,-2.2832,-2.2801,-2.3031,-2.2465,-2.2529,-2.3062,-2.3118,-2.2107,-1.9961,-1.7811,-1.5847,-1.4238,-1.2806,-1.2011,-1.1797,-1.171,-1.1617,-1.1405,-1.1474,-1.151,-1.143,-1.143,-1.143,-1.1436,-1.1503,-1.155,-1.155,-1.0988,-1.0597,-1.0243,-0.8729,-0.7784,-0.7463,-0.6686,-0.6218,-0.6224,-0.6159,-0.6095,-0.6105,-0.6193,-0.6254,-0.6261,-0.6261,-0.6261,-0.6261,-0.6261,-0.6261,-0.6261,-0.6261,-0.6261,-0.6261,-0.6261,-0.6271,-0.6318,-0.6288,-0.6285,-0.6376,-0.6291,-0.6261,-0.6261,-0.6261,-0.6257,-0.6261,-0.6261,-0.6261,-0.6261,-0.6261,-0.6261,-0.6261,-0.6261,-0.6254,-0.6159,-0.6227,-0.6166,-0.5925,-0.585,-0.5722,-0.5569,-0.5507,-0.5428,-0.5428,-0.5428,-0.5428,-3.9394,-3.9364,-3.9394,-3.8102,-3.6144,-3.5282,-3.2961,-2.9846,-3.0773,-3.0707,-3.002,-3.0382,-3.0319,-2.9867,-3.0306,-3.0557,-3.047,-3.0018,-2.9779,-2.9779,-2.9779,-2.8978,-2.7392,-2.4534,-2.3172,-2.3123,-2.3085,-2.3144,-2.3144,-2.3144,-2.3144,-2.3135,-2.3086,-2.3096,-2.3096,-2.2979,-2.3086,-2.3104,-2.3071,-2.2388,-2.0784,-1.865,-1.6782,-1.5344,-1.3614,-1.2748,-1.2708,-1.2405,-1.2231,-1.2267,-1.2033,-1.1988,-1.2123,-1.1703,-1.147,-1.1476,-1.1703,-1.185,-1.1877,-1.1926,-1.1685,-1.0804,-0.9574,-0.8727,-0.7808,-0.6835,-0.6321,-0.6342,-0.6264,-0.6247,-0.6264,-0.6261,-0.6261,-0.6261,-0.6261,-0.6261,-0.6261,-0.6261,-0.6261,-0.6261,-0.6261,-0.6271,-0.6268,-0.6261,-0.6417,-0.6403,-0.6352,-0.6308,-0.6393,-0.6342,-0.6271,-0.6261,-0.6261,-0.6261,-0.6261,-0.6261,-0.6261,-0.6261,-0.6261,-0.6261,-0.6261,-0.6257,-0.6251,-0.6325,-0.6254,-0.619,-0.6047,-0.5874,-0.5681,-0.5528,-0.549,-0.5428,-0.5428,-0.5428,-0.5428,-3.9155,-3.8721,-3.8302,-3.695,-3.5068,-3.4682,-3.2751,-2.9911,-3.0211,-3.0577,-3.0751,-3.0666,-3.0495,-3.0344,-3.0532,-3.0419,-3.008,-2.9867,-2.9779,-2.9779,-2.9779,-2.9477,-2.8771,-2.6445,-2.444,-2.3273,-2.3065,-2.3144,-2.3144,-2.3144,-2.3144,-2.3144,-2.3144,-2.3144,-2.3144,-2.3144,-2.3144,-2.3125,-2.3104,-2.2716,-2.1788,-1.9458,-1.7762,-1.6982,-1.4468,-1.3046,-1.3046,-1.2939,-1.2665,-1.2305,-1.2375,-1.2378,-1.2265,-1.2091,-1.1984,-1.1997,-1.2091,-1.2144,-1.2078,-1.1636,-1.1242,-1.0708,-0.9291,-0.8241,-0.7706,-0.6872,-0.6373,-0.6452,-0.6476,-0.643,-0.6481,-0.6376,-0.6261,-0.6261,-0.6261,-0.6268,-0.6261,-0.6261,-0.6261,-0.6261,-0.6261,-0.6291,-0.6376,-0.6396,-0.6454,-0.6569,-0.6488,-0.6437,-0.6434,-0.6431,-0.6268,-0.6261,-0.6261,-0.6261,-0.6261,-0.6261,-0.6261,-0.6261,-0.6261,-0.6261,-0.6261,-0.6261,-0.6254,-0.6251,-0.6257,-0.6213,-0.6078,-0.5884,-0.5681,-0.5531,-0.5428,-0.5428,-0.5428,-0.5432,-0.5428,-3.902,-3.8362,-3.7913,-3.6343,-3.433,-3.4882,-3.3265,-3.0478,-3.0319,-3.0578,-3.0811,-3.088,-3.0683,-3.0394,-3.0357,-3.0168,-2.9817,-2.9779,-2.9779,-2.9779,-2.9779,-2.9761,-2.9426,-2.7499,-2.5308,-2.3362,-2.3103,-2.3144,-2.3144,-2.3144,-2.3144,-2.3144,-2.3144,-2.3144,-2.3144,-2.3144,-2.3144,-2.3144,-2.3144,-2.2988,-2.2418,-2.0086,-1.8596,-1.7826,-1.5202,-1.3534,-1.3367,-1.3267,-1.3028,-1.2653,-1.2824,-1.2809,-1.2608,-1.2516,-1.2498,-1.2565,-1.2405,-1.2398,-1.2381,-1.1496,-1.0824,-1.0825,-0.9027,-0.7799,-0.7777,-0.6943,-0.6476,-0.6502,-0.6546,-0.66,-0.6634,-0.6522,-0.6386,-0.6352,-0.6373,-0.6356,-0.6355,-0.6383,-0.6329,-0.6332,-0.6366,-0.6349,-0.6491,-0.6488,-0.6573,-0.6742,-0.6641,-0.6563,-0.659,-0.6454,-0.6329,-0.6332,-0.6417,-0.6312,-0.6302,-0.6308,-0.6288,-0.6285,-0.6261,-0.6261,-0.6261,-0.6261,-0.6261,-0.6261,-0.624,-0.6203,-0.6084,-0.5895,-0.5671,-0.543,-0.5428,-0.5428,-0.5432,-0.5369,-0.5236,-3.9005,-3.8362,-3.8362,-3.6503,-3.4168,-3.5185,-3.4199,-3.1656,-3.129,-3.086,-3.0373,-3.0904,-3.0645,-2.9993,-2.988,-2.9804,-2.9792,-2.9779,-2.9779,-2.9779,-2.9779,-2.9792,-2.9661,-2.758,-2.5348,-2.3183,-2.311,-2.3135,-2.3144,-2.3144,-2.3144,-2.3144,-2.3144,-2.3144,-2.3144,-2.3144,-2.3144,-2.3144,-2.3144,-2.3038,-2.2804,-2.0439,-1.8929,-1.8337,-1.5871,-1.4182,-1.3687,-1.3414,-1.3287,-1.3187,-1.3227,-1.3213,-1.314,-1.2906,-1.295,-1.3013,-1.2652,-1.2659,-1.2863,-1.1643,-1.0831,-1.065,-0.9063,-0.7749,-0.7632,-0.7027,-0.6539,-0.6668,-0.6702,-0.6715,-0.6729,-0.6715,-0.6637,-0.6515,-0.6576,-0.6542,-0.6386,-0.6396,-0.6474,-0.6461,-0.6386,-0.6407,-0.658,-0.661,-0.6651,-0.6831,-0.68,-0.6736,-0.6807,-0.6637,-0.6495,-0.6474,-0.6474,-0.6451,-0.6403,-0.6441,-0.6335,-0.6312,-0.6278,-0.6261,-0.6261,-0.6261,-0.6261,-0.6261,-0.6261,-0.6217,-0.603,-0.5844,-0.5671,-0.5474,-0.543,-0.5372,-0.5369,-0.5239,-0.4903,-3.8751,-3.7679,-3.7031,-3.6026,-3.472,-3.4068,-3.3186,-3.2485,-3.182,-3.1235,-3.0838,-3.0498,-3.0093,-2.9867,-2.9779,-2.9779,-2.9779,-2.9779,-2.9779,-2.9779,-2.9779,-2.9792,-2.9378,-2.7557,-2.5292,-2.3388,-2.3114,-2.3144,-2.3144,-2.3144,-2.3144,-2.3144,-2.3144,-2.3144,-2.3144,-2.3144,-2.3144,-2.3144,-2.3144,-2.3144,-2.2833,-2.0492,-1.9079,-1.8658,-1.6068,-1.4422,-1.4249,-1.3968,-1.3821,-1.3794,-1.3614,-1.3427,-1.324,-1.312,-1.312,-1.318,-1.3053,-1.2979,-1.2897,-1.135,-1.0221,-0.9892,-0.8336,-0.7226,-0.7104,-0.6869,-0.6698,-0.6831,-0.6861,-0.6892,-0.6976,-0.7004,-0.6888,-0.6658,-0.6671,-0.6688,-0.6583,-0.6593,-0.6624,-0.6627,-0.659,-0.6658,-0.6793,-0.679,-0.6844,-0.7004,-0.6943,-0.6892,-0.6881,-0.6766,-0.6637,-0.663,-0.6624,-0.6593,-0.6519,-0.6458,-0.642,-0.6349,-0.6291,-0.6261,-0.6261,-0.6261,-0.6261,-0.6251,-0.6251,-0.6169,-0.5983,-0.5803,-0.5633,-0.5525,-0.5457,-0.5349,-0.5252,-0.5055,-0.4739,-3.8916,-3.7998,-3.6807,-3.596,-3.5237,-3.3792,-3.2872,-3.2528,-3.221,-3.1587,-3.0803,-3.0557,-3.0156,-2.9867,-2.9779,-2.9779,-2.9779,-2.9779,-2.9779,-2.9779,-2.9779,-2.9777,-2.9332,-2.6606,-2.4618,-2.3377,-2.3144,-2.3144,-2.3144,-2.3144,-2.3144,-2.3144,-2.3144,-2.3144,-2.3144,-2.3144,-2.3144,-2.3144,-2.3144,-2.3144,-2.2541,-2.0536,-1.919,-1.8725,-1.6228,-1.4737,-1.4516,-1.4242,-1.4088,-1.4062,-1.3901,-1.3721,-1.3547,-1.3447,-1.342,-1.348,-1.3353,-1.3293,-1.3218,-1.1347,-0.9984,-0.9707,-0.7958,-0.6816,-0.6766,-0.6783,-0.6851,-0.6976,-0.7007,-0.6957,-0.7115,-0.7136,-0.7048,-0.6892,-0.6871,-0.6841,-0.68,-0.6732,-0.6739,-0.6749,-0.6729,-0.681,-0.6943,-0.6953,-0.6993,-0.7088,-0.7065,-0.7007,-0.6976,-0.6885,-0.6824,-0.6787,-0.6783,-0.6719,-0.6614,-0.6552,-0.6508,-0.6407,-0.6379,-0.6274,-0.6261,-0.6261,-0.6257,-0.6224,-0.6213,-0.6139,-0.5973,-0.5789,-0.5623,-0.5555,-0.5501,-0.5426,-0.5262,-0.4925,-0.434,-3.9307,-3.9043,-3.733,-3.6029,-3.5205,-3.4313,-3.2993,-3.1934,-3.2444,-3.1751,-3.0535,-3.0748,-3.062,-2.993,-2.9779,-2.9779,-2.9792,-2.9905,-2.9854,-2.9842,-2.9711,-2.9626,-2.8405,-2.5325,-2.3684,-2.3379,-2.3252,-2.3213,-2.3242,-2.3174,-2.3144,-2.3144,-2.3144,-2.3144,-2.3144,-2.3144,-2.3144,-2.3144,-2.3144,-2.3144,-2.296,-2.0747,-1.934,-1.9018,-1.6557,-1.4877,-1.4656,-1.4342,-1.4122,-1.4095,-1.4055,-1.4028,-1.4015,-1.3808,-1.3788,-1.3975,-1.3547,-1.3621,-1.34,-1.1509,-1.011,-1.0173,-0.825,-0.678,-0.6915,-0.6943,-0.6983,-0.7099,-0.7119,-0.7129,-0.7136,-0.7139,-0.7126,-0.7136,-0.7088,-0.7041,-0.6946,-0.6824,-0.6834,-0.6892,-0.6831,-0.6824,-0.7085,-0.7017,-0.7037,-0.7095,-0.7129,-0.7115,-0.7095,-0.7014,-0.7046,-0.6939,-0.6936,-0.6851,-0.6746,-0.6641,-0.6583,-0.6437,-0.6407,-0.6274,-0.6261,-0.6261,-0.6261,-0.6224,-0.619,-0.6101,-0.6,-0.5847,-0.5725,-0.5664,-0.5576,-0.5454,-0.502,-0.4455,-0.0,-3.7943,-3.7316,-3.5369,-3.4712,-3.4619,-3.3001,-3.244,-3.2483,-3.2047,-3.1524,-3.0964,-3.0394,-3.0143,-2.9804,-2.9779,-2.9779,-2.9867,-3.0181,-3.0143,-2.9827,-2.9831,-2.8175,-2.6195,-2.4784,-2.4009,-2.3975,-2.3711,-2.3623,-2.3594,-2.3281,-2.3144,-2.3144,-2.3144,-2.3144,-2.3144,-2.3144,-2.3144,-2.3144,-2.3144,-2.3057,-2.2677,-2.0764,-1.9546,-1.9159,-1.6682,-1.5329,-1.511,-1.4474,-1.4104,-1.4102,-1.4088,-1.4088,-1.4095,-1.4008,-1.3995,-1.4041,-1.3968,-1.3888,-1.3568,-1.1781,-1.0544,-1.0333,-0.8303,-0.7041,-0.7075,-0.7085,-0.7102,-0.7139,-0.7139,-0.7139,-0.7139,-0.7139,-0.7139,-0.7139,-0.7139,-0.7122,-0.7078,-0.7054,-0.7044,-0.7068,-0.7037,-0.7061,-0.7092,-0.7109,-0.7092,-0.7129,-0.7139,-0.7139,-0.7126,-0.7119,-0.7051,-0.7075,-0.7061,-0.6973,-0.6875,-0.6759,-0.6634,-0.6474,-0.6438,-0.6268,-0.6261,-0.6261,-0.6261,-0.6247,-0.6237,-0.6169,-0.6098,-0.606,-0.5891,-0.5548,-0.5603,-0.5329,-0.4268,-0.0,-0.0,-3.7282,-3.638,-3.4834,-3.4334,-3.4432,-3.2878,-3.2466,-3.2642,-3.1452,-3.0748,-3.0658,-3.0331,-3.0018,-2.9804,-2.9779,-2.9779,-2.9842,-3.0118,-3.0206,-3.0261,-3.0382,-2.8487,-2.5785,-2.4954,-2.4794,-2.4346,-2.3994,-2.3809,-2.3701,-2.335,-2.3164,-2.3144,-2.3144,-2.3144,-2.3144,-2.3144,-2.3144,-2.3144,-2.3047,-2.295,-2.2217,-2.0486,-1.9314,-1.8517,-1.6551,-1.5357,-1.5177,-1.4774,-1.4475,-1.4315,-1.4168,-1.4135,-1.4249,-1.4148,-1.4142,-1.4235,-1.4162,-1.3906,-1.3118,-1.1643,-1.0438,-0.9744,-0.8101,-0.7316,-0.7136,-0.7139,-0.7139,-0.7139,-0.7139,-0.7139,-0.7139,-0.7139,-0.7139,-0.7139,-0.7139,-0.7139,-0.7143,-0.7193,-0.7197,-0.7166,-0.7139,-0.7143,-0.7143,-0.7143,-0.7143,-0.7139,-0.7139,-0.7139,-0.7139,-0.7143,-0.7139,-0.7139,-0.7122,-0.7034,-0.6939,-0.6831,-0.6644,-0.6485,-0.6386,-0.6291,-0.6261,-0.6261,-0.6261,-0.6261,-0.6264,-0.6247,-0.6179,-0.5934,-0.5353,-0.515,-0.5275,-0.4511,-0.3115,-0.0,-0.0,-3.6944,-3.596,-3.4966,-3.4498,-3.4358,-3.3471,-3.3013,-3.2706,-3.1048,-3.0138,-3.0196,-3.049,-3.0319,-2.988,-2.9854,-2.9779,-2.9792,-3.0105,-3.0503,-3.0745,-3.0527,-2.8688,-2.5832,-2.5493,-2.5252,-2.4732,-2.415,-2.4023,-2.3935,-2.3525,-2.3242,-2.3242,-2.3203,-2.3144,-2.3144,-2.3144,-2.3144,-2.3038,-2.2522,-2.2073,-2.1284,-1.9943,-1.8772,-1.7825,-1.6457,-1.549,-1.5302,-1.5127,-1.5082,-1.4629,-1.4342,-1.4369,-1.4516,-1.4309,-1.4329,-1.4456,-1.4243,-1.3724,-1.2454,-1.1332,-1.0091,-0.9061,-0.7948,-0.7163,-0.7187,-0.7214,-0.7241,-0.7248,-0.7177,-0.717,-0.7139,-0.7139,-0.716,-0.7183,-0.719,-0.7193,-0.7204,-0.7285,-0.7302,-0.7207,-0.7187,-0.7166,-0.7166,-0.7078,-0.7173,-0.7224,-0.7217,-0.7221,-0.7221,-0.7224,-0.719,-0.7139,-0.7115,-0.7082,-0.6987,-0.6895,-0.6675,-0.6485,-0.64,-0.6322,-0.6274,-0.6268,-0.6264,-0.6264,-0.6271,-0.6278,-0.6264,-0.5765,-0.4952,-0.391,-0.346,-0.2301,-0.0,-0.0,-0.0,-3.5224,-3.4897,-3.3882,-3.3471,-3.3398,-3.3154,-3.3148,-3.2962,-3.1655,-3.1005,-3.096,-3.0783,-3.0545,-3.0394,-3.0018,-2.9779,-3.0005,-3.0591,-3.1572,-3.2117,-2.9512,-2.772,-2.5889,-2.5664,-2.5631,-2.5283,-2.498,-2.4785,-2.459,-2.3994,-2.3643,-2.3613,-2.334,-2.3057,-2.3076,-2.3067,-2.3144,-2.2746,-2.1405,-2.0766,-2.072,-1.9222,-1.8048,-1.7498,-1.6404,-1.5799,-1.5618,-1.5636,-1.5487,-1.5255,-1.5053,-1.4919,-1.4836,-1.4776,-1.4776,-1.477,-1.4596,-1.3889,-1.2691,-1.1342,-1.0106,-0.8937,-0.7979,-0.7319,-0.7329,-0.7424,-0.7478,-0.7478,-0.7397,-0.7282,-0.7197,-0.7149,-0.7214,-0.7312,-0.7411,-0.7478,-0.7468,-0.7329,-0.7322,-0.7407,-0.7383,-0.7322,-0.7322,-0.7322,-0.7322,-0.7319,-0.7322,-0.7322,-0.7312,-0.7302,-0.7234,-0.7163,-0.7129,-0.7095,-0.7017,-0.6922,-0.6753,-0.6583,-0.6495,-0.6386,-0.6339,-0.5743,-0.559,-0.5821,-0.6281,-0.6288,-0.6298,-0.5334,-0.4523,-0.3062,-0.0,-0.0,-0.0,-0.0,-0.0,-3.4428,-3.3869,-3.3313,-3.3081,-3.3081,-3.3081,-3.3148,-3.3,-3.2495,-3.1896,-3.136,-3.0851,-3.062,-3.0595,-3.0331,-3.0294,-3.0523,-3.0774,-3.1394,-3.1555,-2.9579,-2.7628,-2.5974,-2.5673,-2.5654,-2.5439,-2.5185,-2.499,-2.4668,-2.4375,-2.4082,-2.4043,-2.3643,-2.3279,-2.3153,-2.3125,-2.3144,-2.2629,-2.0713,-1.9673,-1.9545,-1.8556,-1.7318,-1.6857,-1.6204,-1.5825,-1.5792,-1.5792,-1.5712,-1.5565,-1.5544,-1.5396,-1.5241,-1.5044,-1.503,-1.5097,-1.489,-1.3824,-1.2399,-1.1358,-1.0135,-0.8426,-0.7802,-0.7643,-0.7485,-0.756,-0.7587,-0.7584,-0.7522,-0.7438,-0.7366,-0.736,-0.7411,-0.7455,-0.7546,-0.7624,-0.7655,-0.755,-0.7465,-0.7577,-0.7519,-0.7485,-0.7478,-0.7475,-0.7475,-0.7475,-0.7472,-0.7465,-0.735,-0.7329,-0.7255,-0.7193,-0.7156,-0.7109,-0.7041,-0.6946,-0.6837,-0.6722,-0.6651,-0.6536,-0.652,-0.5592,-0.4602,-0.5056,-0.5578,-0.623,-0.6139,-0.5092,-0.0,-0.0,-0.0,-0.0,-0.0,-0.0,-0.0,-3.403,-3.3081,-3.3081,-3.3081,-3.3081,-3.3081,-3.3101,-3.3127,-3.3089,-3.2351,-3.1521,-3.0926,-3.0821,-3.0708,-3.0482,-3.0796,-3.1034,-3.0677,-3.0894,-3.0679,-2.9892,-2.7852,-2.6227,-2.5674,-2.5518,-2.5117,-2.5195,-2.5019,-2.4805,-2.4541,-2.4453,-2.4346,-2.3975,-2.3534,-2.322,-2.3124,-2.3086,-2.2823,-2.0713,-1.9192,-1.8454,-1.7732,-1.6756,-1.6204,-1.592,-1.5825,-1.5825,-1.5805,-1.5805,-1.5825,-1.5825,-1.5691,-1.5478,-1.5277,-1.5184,-1.5438,-1.4904,-1.3556,-1.1957,-1.0997,-0.9864,-0.7785,-0.7624,-0.7628,-0.7634,-0.7675,-0.7709,-0.7685,-0.7655,-0.7611,-0.76,-0.7556,-0.7584,-0.7624,-0.7631,-0.7699,-0.7804,-0.7845,-0.778,-0.7709,-0.7668,-0.7631,-0.7628,-0.7628,-0.7628,-0.7631,-0.7628,-0.758,-0.7465,-0.7373,-0.7316,-0.7207,-0.7156,-0.7078,-0.7007,-0.7041,-0.6922,-0.6814,-0.6763,-0.6675,-0.6552,-0.5913,-0.5052,-0.4423,-0.4716,-0.0,-0.0,-0.2795,-0.0,-0.0,-0.0,-0.0,-0.0,-0.0,-0.0,-3.3656,-3.3081,-3.3081,-3.3081,-3.3081,-3.3081,-3.3129,-3.3091,-3.3028,-3.2431,-3.1502,-3.1304,-3.1223,-3.1072,-3.0269,-3.052,-3.1253,-3.0784,-3.0155,-2.9909,-2.9217,-2.7798,-2.6073,-2.5723,-2.5498,-2.5283,-2.5371,-2.5488,-2.5322,-2.5166,-2.4844,-2.4434,-2.4033,-2.3592,-2.3339,-2.3086,-2.3135,-2.2644,-2.0532,-1.8744,-1.7972,-1.6929,-1.6204,-1.5825,-1.5825,-1.5825,-1.5825,-1.5825,-1.5825,-1.5825,-1.5825,-1.5792,-1.5725,-1.5658,-1.5665,-1.545,-1.4521,-1.324,-1.1822,-1.038,-0.9096,-0.7994,-0.7712,-0.7773,-0.7801,-0.7875,-0.7902,-0.7899,-0.7824,-0.7736,-0.7611,-0.7645,-0.7678,-0.7733,-0.7787,-0.7834,-0.7946,-0.7977,-0.797,-0.7906,-0.7838,-0.7777,-0.778,-0.778,-0.778,-0.778,-0.7777,-0.7689,-0.755,-0.7475,-0.7417,-0.7285,-0.7146,-0.7054,-0.6963,-0.7044,-0.7034,-0.6892,-0.6824,-0.6793,-0.6681,-0.6329,-0.5675,-0.4094,-0.0,-0.0,-0.0,-0.0,-0.0,-0.0,-0.0,-0.0,-0.0,-0.0,-0.0,-3.3583,-3.3119,-3.3382,-3.3332,-3.3106,-3.3081,-3.3081,-3.3006,-3.2471,-3.2306,-3.2102,-3.1662,-3.1386,-3.1323,-3.126,-3.1524,-3.1682,-3.0525,-2.9737,-2.9279,-2.8115,-2.7033,-2.5742,-2.5732,-2.5625,-2.5518,-2.5644,-2.5605,-2.543,-2.543,-2.5234,-2.5019,-2.4473,-2.3994,-2.3711,-2.3281,-2.3174,-2.2428,-1.9726,-1.7484,-1.7106,-1.6094,-1.5913,-1.5825,-1.5825,-1.5825,-1.5825,-1.5825,-1.5825,-1.5825,-1.5825,-1.5825,-1.5825,-1.5825,-1.5825,-1.5507,-1.4426,-1.3115,-1.1869,-1.0437,-0.9176,-0.8028,-0.7892,-0.7923,-0.794,-0.7987,-0.8035,-0.8021,-0.8001,-0.7906,-0.7845,-0.7818,-0.7865,-0.7906,-0.7926,-0.796,-0.8014,-0.8035,-0.8038,-0.8038,-0.797,-0.7919,-0.7933,-0.7933,-0.7933,-0.7929,-0.7926,-0.7801,-0.7641,-0.7556,-0.7489,-0.7288,-0.7139,-0.7102,-0.7024,-0.7065,-0.7119,-0.6997,-0.6481,-0.6452,-0.6746,-0.6399,-0.4571,-0.247,-0.0,-0.0,-0.0,-0.0,-0.0,-0.0,-0.0,-0.0,-0.0,-0.0,-0.0,-3.3746,-3.3282,-3.3596,-3.3483,-3.3119,-3.3081,-3.3081,-3.2943,-3.2187,-3.2109,-3.2566,-3.1933,-3.1512,-3.1512,-3.1813,-3.224,-3.2473,-3.0206,-2.9352,-2.8936,-2.704,-2.5742,-2.5732,-2.5732,-2.5703,-2.5684,-2.5703,-2.5557,-2.543,-2.5547,-2.5644,-2.5332,-2.4775,-2.4293,-2.3991,-2.3347,-2.3193,-2.1799,-1.9011,-1.6584,-1.5934,-1.5852,-1.5825,-1.5825,-1.5825,-1.5825,-1.5825,-1.5825,-1.5825,-1.5825,-1.5825,-1.5825,-1.5825,-1.5825,-1.573,-1.5242,-1.4166,-1.2915,-1.1546,-1.0271,-0.8867,-0.7987,-0.8024,-0.8035,-0.8035,-0.8024,-0.8038,-0.8038,-0.8031,-0.8024,-0.7994,-0.8024,-0.8024,-0.8024,-0.8024,-0.8038,-0.8035,-0.8038,-0.8038,-0.8038,-0.8038,-0.8028,-0.8007,-0.8004,-0.7987,-0.7987,-0.798,-0.7885,-0.7733,-0.7621,-0.7506,-0.7272,-0.7139,-0.7139,-0.7112,-0.7102,-0.7136,-0.7099,-0.6072,-0.5434,-0.6007,-0.6478,-0.4172,-0.0,-0.0,-0.0,-0.0,-0.0,-0.0,-0.0,-0.0,-0.0,-0.0,-0.0,-0.0,-3.4299,-3.3759,-3.3357,-3.3131,-3.3093,-3.3081,-3.3081,-3.3056,-3.2867,-3.2372,-3.1776,-3.1955,-3.1788,-3.1625,-3.1512,-3.1599,-3.1134,-2.9875,-2.9116,-2.9006,-2.6924,-2.5732,-2.5732,-2.5732,-2.5732,-2.5732,-2.5732,-2.5713,-2.5615,-2.5684,-2.5547,-2.5244,-2.5049,-2.4555,-2.3789,-2.3371,-2.3089,-2.2598,-2.0232,-1.7827,-1.6209,-1.5893,-1.5818,-1.5825,-1.5825,-1.5825,-1.5825,-1.5825,-1.5825,-1.5825,-1.5825,-1.5825,-1.5825,-1.5825,-1.5146,-1.4172,-1.2915,-1.1551,-1.0386,-0.9213,-0.8432,-0.8038,-0.8038,-0.8038,-0.8038,-0.8038,-0.8038,-0.8038,-0.8038,-0.8038,-0.8038,-0.8038,-0.8038,-0.8038,-0.8038,-0.8038,-0.8038,-0.8038,-0.8038,-0.8038,-0.8038,-0.8038,-0.8028,-0.8031,-0.8035,-0.8038,-0.8014,-0.7919,-0.7794,-0.7651,-0.7526,-0.7299,-0.7149,-0.7139,-0.7139,-0.7139,-0.7146,-0.7153,-0.6245,-0.4802,-0.4232,-0.4363,-0.3795,-0.0,-0.0,-0.0,-0.0,-0.0,-0.0,-0.0,-0.0,-0.0,-0.0,-0.0,-0.0,-3.3935,-3.3445,-3.3495,-3.3357,-3.3093,-3.3081,-3.3081,-3.2943,-3.239,-3.1872,-3.1447,-3.1597,-3.1926,-3.2114,-3.2039,-3.2064,-3.1796,-3.002,-2.9172,-2.8811,-2.703,-2.5732,-2.5732,-2.5732,-2.5732,-2.5732,-2.5732,-2.5732,-2.5732,-2.5713,-2.5596,-2.5449,-2.5195,-2.5065,-2.4273,-2.3524,-2.3167,-2.1997,-1.9604,-1.7375,-1.6786,-1.6197,-1.5825,-1.5825,-1.5825,-1.5825,-1.5825,-1.5825,-1.5825,-1.5825,-1.5825,-1.5825,-1.5825,-1.5635,-1.5045,-1.2915,-1.2334,-1.1361,-1.0092,-0.8722,-0.8134,-0.8038,-0.8038,-0.8038,-0.8038,-0.8038,-0.8038,-0.8038,-0.8038,-0.8038,-0.8038,-0.8038,-0.8038,-0.8038,-0.8038,-0.8038,-0.8038,-0.8038,-0.8038,-0.8038,-0.8038,-0.8038,-0.8038,-0.8038,-0.8038,-0.8038,-0.8018,-0.7946,-0.7777,-0.758,-0.7461,-0.7336,-0.7217,-0.7139,-0.7139,-0.7139,-0.7153,-0.7071,-0.7084,-0.5267,-0.2399,-0.1585,-0.0,-0.0,-0.0,-0.0,-0.0,-0.0,-0.0,-0.0,-0.0,-0.0,-0.0,-0.0,-0.0,-3.3583,-3.3131,-3.352,-3.3458,-3.3093,-3.3081,-3.3116,-3.3,-3.1893,-3.1427,-3.1456,-3.156,-3.2064,-3.2403,-3.2164,-3.1972,-3.213,-3.0131,-2.9487,-2.8538,-2.7156,-2.582,-2.5732,-2.5732,-2.5732,-2.5732,-2.5732,-2.5732,-2.5732,-2.5723,-2.5723,-2.5723,-2.5439,-2.5405,-2.5238,-2.4481,-2.3566,-2.1552,-1.8827,-1.7283,-1.6893,-1.6197,-1.592,-1.5825,-1.5825,-1.5825,-1.5825,-1.5825,-1.5825,-1.5825,-1.5825,-1.5825,-1.5825,-1.573,-1.4567,-1.2721,-1.1945,-1.1068,-0.9702,-0.8528,-0.8137,-0.8038,-0.8038,-0.8038,-0.8038,-0.8038,-0.8038,-0.8038,-0.8038,-0.8038,-0.8038,-0.8038,-0.8038,-0.8038,-0.8038,-0.8038,-0.8038,-0.8038,-0.8038,-0.8038,-0.8038,-0.8038,-0.8038,-0.8038,-0.8038,-0.8038,-0.8007,-0.7963,-0.7794,-0.758,-0.7455,-0.736,-0.7234,-0.7153,-0.7139,-0.7143,-0.7156,-0.7078,-0.7091,-0.6002,-0.3207,-0.0,-0.0,-0.0,-0.0,-0.0,-0.0,-0.0,-0.0,-0.0,-0.0,-0.0,-0.0,-0.0,-0.0,-3.3571,-3.3081,-3.3131,-3.3131,-3.3081,-3.3081,-3.3089,-3.2954,-3.1897,-3.1435,-3.1509,-3.1859,-3.1901,-3.175,-3.1601,-3.1269,-3.0644,-2.9269,-2.9079,-2.8408,-2.7033,-2.5849,-2.5732,-2.5732,-2.5732,-2.5732,-2.5732,-2.5732,-2.5732,-2.5732,-2.5732,-2.5703,-2.5615,-2.5651,-2.5609,-2.5192,-2.3027,-2.1,-1.8627,-1.7487,-1.6741,-1.6015,-1.5825,-1.5825,-1.5825,-1.5825,-1.5825,-1.5825,-1.5825,-1.5825,-1.5825,-1.5825,-1.5825,-1.5825,-1.4472,-1.2915,-1.1945,-1.0872,-0.9312,-0.8333,-0.8038,-0.8038,-0.8038,-0.8038,-0.8038,-0.8038,-0.8038,-0.8038,-0.8038,-0.8038,-0.8038,-0.8038,-0.8038,-0.8038,-0.8038,-0.8038,-0.8038,-0.8038,-0.8038,-0.8038,-0.8038,-0.8038,-0.8038,-0.8038,-0.8038,-0.8038,-0.8028,-0.7984,-0.7855,-0.7665,-0.7519,-0.7397,-0.7251,-0.717,-0.7143,-0.7146,-0.7149,-0.7074,-0.7088,-0.6005,-0.42,-0.0,-0.0,-0.0,-0.0,-0.0,-0.0,-0.0,-0.0,-0.0,-0.0,-0.0,-0.0,-0.0,-0.0,-3.3269,-3.3081,-3.3081,-3.3081,-3.3081,-3.3081,-3.3148,-3.2878,-3.1922,-3.163,-3.1909,-3.2093,-3.2303,-3.2184,-3.1516,-3.1158,-3.0626,-2.8763,-2.8779,-2.8305,-2.715,-2.5946,-2.5732,-2.5732,-2.5732,-2.5732,-2.5732,-2.5732,-2.5732,-2.5732,-2.5732,-2.5732,-2.5732,-2.5674,-2.5653,-2.5496,-2.3208,-2.0087,-1.8176,-1.6914,-1.7225,-1.6109,-1.5825,-1.5825,-1.5825,-1.5825,-1.5825,-1.5825,-1.5825,-1.5825,-1.5825,-1.5825,-1.5825,-1.5825,-1.4854,-1.3199,-1.2431,-1.097,-0.941,-0.8531,-0.8038,-0.8038,-0.8038,-0.8038,-0.8038,-0.8038,-0.8038,-0.8038,-0.8038,-0.8038,-0.8038,-0.8038,-0.8038,-0.8038,-0.8038,-0.8038,-0.8038,-0.8038,-0.8038,-0.8038,-0.8038,-0.8038,-0.8038,-0.8038,-0.8038,-0.8038,-0.8024,-0.7895,-0.7875,-0.776,-0.7621,-0.7495,-0.736,-0.7251,-0.7221,-0.7187,-0.7156,-0.7081,-0.7101,-0.6278,-0.4931,-0.0,-0.0,-0.0,-0.0,-0.0,-0.0,-0.0,-0.0,-0.0,-0.0,-0.0,-0.0,-0.0,-0.0,-3.3081,-3.3081,-3.3081,-3.3081,-3.3081,-3.3081,-3.3161,-3.2878,-3.1909,-3.1543,-3.2001,-3.2277,-3.2554,-3.2536,-3.2265,-3.1175,-3.0348,-2.9017,-2.8365,-2.7587,-2.65,-2.5742,-2.5732,-2.5732,-2.5732,-2.5732,-2.5732,-2.5732,-2.5732,-2.5732,-2.5732,-2.5732,-2.5732,-2.5723,-2.5713,-2.5412,-2.3483,-1.9478,-1.7433,-1.6334,-1.702,-1.6443,-1.5885,-1.5865,-1.5825,-1.5825,-1.5825,-1.5825,-1.5825,-1.5825,-1.5825,-1.5825,-1.5825,-1.5635,-1.5051,-1.398,-1.2619,-1.1365,-1.0096,-0.8825,-0.8038,-0.8038,-0.8038,-0.8038,-0.8038,-0.8038,-0.8038,-0.8038,-0.8038,-0.8038,-0.8038,-0.8038,-0.8038,-0.8038,-0.8038,-0.8038,-0.8038,-0.8038,-0.8038,-0.8038,-0.8038,-0.8038,-0.8038,-0.8038,-0.8038,-0.8038,-0.8035,-0.7915,-0.7851,-0.7838,-0.7729,-0.7611,-0.7495,-0.7397,-0.7316,-0.7299,-0.7278,-0.7165,-0.7171,-0.7125,-0.5576,-0.2246,-0.0,-0.0,-0.0,-0.0,-0.0,-0.0,-0.0,-0.0,-0.0,-0.0,-0.0,-0.0,-0.0,-3.3081,-3.3081,-3.3081,-3.3081,-3.3081,-3.3081,-3.3148,-3.2975,-3.2056,-3.1589,-3.1813,-3.2566,-3.2729,-3.2481,-3.2364,-3.1223,-2.9863,-2.9039,-2.807,-2.642,-2.6053,-2.5732,-2.5732,-2.5732,-2.5732,-2.5732,-2.5732,-2.5732,-2.5732,-2.5732,-2.5732,-2.5732,-2.5732,-2.5732,-2.5732,-2.5693,-2.2895,-1.8422,-1.7064,-1.6701,-1.6474,-1.633,-1.6072,-1.5959,-1.5845,-1.5832,-1.5825,-1.5825,-1.5825,-1.5825,-1.5825,-1.5825,-1.5825,-1.5825,-1.5242,-1.4166,-1.2721,-1.1365,-0.9998,-0.8726,-0.8137,-0.8038,-0.8038,-0.8038,-0.8038,-0.8038,-0.8038,-0.8038,-0.8038,-0.8038,-0.8038,-0.8038,-0.8038,-0.8038,-0.8038,-0.8038,-0.8038,-0.8038,-0.8038,-0.8038,-0.8038,-0.8038,-0.8038,-0.8038,-0.8038,-0.8038,-0.8038,-0.8014,-0.7868,-0.7926,-0.7821,-0.7692,-0.7587,-0.746,-0.7379,-0.7431,-0.7404,-0.7373,-0.6966,-0.6653,-0.5153,-0.2071,-0.0,-0.0,-0.0,-0.0,-0.0,-0.0,-0.0,-0.0,-0.0,-0.0,-0.0,-0.0,-0.0,-3.3081,-3.3081,-3.3081,-3.3081,-3.3081,-3.3081,-3.3148,-3.3013,-3.268,-3.2475,-3.2554,-3.298,-3.3018,-3.2549,-3.128,-3.0328,-2.9407,-2.7295,-2.6004,-2.5917,-2.5732,-2.5732,-2.5732,-2.5732,-2.5732,-2.5732,-2.5732,-2.5732,-2.5732,-2.5732,-2.5732,-2.5732,-2.5528,-2.5732,-2.5644,-2.5271,-2.3024,-1.86,-1.7355,-1.7136,-1.658,-1.64,-1.6239,-1.6112,-1.5939,-1.5852,-1.5832,-1.5825,-1.5825,-1.5825,-1.5825,-1.5825,-1.5825,-1.5825,-1.5534,-1.4561,-1.3301,-1.0877,-0.941,-0.8137,-0.8038,-0.8038,-0.8038,-0.8038,-0.8038,-0.8038,-0.8038,-0.8041,-0.8041,-0.8041,-0.8038,-0.8038,-0.8038,-0.8038,-0.8038,-0.8038,-0.8038,-0.8038,-0.8038,-0.8038,-0.8038,-0.8038,-0.8038,-0.8038,-0.8038,-0.8038,-0.8038,-0.797,-0.7916,-0.7957,-0.7913,-0.7763,-0.7567,-0.7563,-0.754,-0.7597,-0.7483,-0.7376,-0.6447,-0.5443,-0.3567,-0.0,-0.0,-0.0,-0.0,-0.0,-0.0,-0.0,-0.0,-0.0,-0.0,-0.0,-0.0,-0.0,-0.0,-3.3081,-3.3081,-3.3081,-3.3081,-3.3081,-3.3081,-3.3114,-3.3119,-3.3107,-3.3148,-3.3116,-3.3068,-3.3068,-3.2513,-3.1146,-2.959,-2.9223,-2.74,-2.5917,-2.582,-2.5732,-2.5732,-2.5732,-2.5732,-2.5732,-2.5732,-2.5732,-2.5732,-2.5732,-2.5732,-2.5421,-2.5011,-2.502,-2.5271,-2.5443,-2.5077,-2.2998,-1.9089,-1.7442,-1.7367,-1.7009,-1.6687,-1.6493,-1.6279,-1.6092,-1.5952,-1.5865,-1.5825,-1.5825,-1.5825,-1.5825,-1.5825,-1.5825,-1.5825,-1.554,-1.4657,-1.2716,-1.0288,-0.8627,-0.8038,-0.8038,-0.8038,-0.8038,-0.8038,-0.8038,-0.8038,-0.8085,-0.8092,-0.8062,-0.8079,-0.8092,-0.8085,-0.8038,-0.8038,-0.8038,-0.8038,-0.8038,-0.8038,-0.8038,-0.8038,-0.8038,-0.8038,-0.8038,-0.8038,-0.8038,-0.8038,-0.8038,-0.796,-0.7899,-0.795,-0.7997,-0.7784,-0.7711,-0.7738,-0.7721,-0.777,-0.7661,-0.7462,-0.0,-0.0,-0.0,-0.0,-0.0,-0.0,-0.0,-0.0,-0.0,-0.0,-0.0,-0.0,-0.0,-0.0,-0.0,-0.0,-0.0,-3.3081,-3.3081,-3.3081,-3.3081,-3.3081,-3.3081,-3.3068,-3.3154,-3.3154,-3.3154,-3.3081,-3.2982,-3.2797,-3.2612,-3.15,-3.0135,-2.9039,-2.7778,-2.6658,-2.5917,-2.5732,-2.5732,-2.5732,-2.5732,-2.5732,-2.5732,-2.5732,-2.5732,-2.5732,-2.5732,-2.5118,-2.4097,-2.4097,-2.438,-2.4848,-2.4399,-2.2046,-1.8891,-1.7585,-1.7445,-1.7168,-1.7177,-1.68,-1.654,-1.6293,-1.6106,-1.5979,-1.5872,-1.5838,-1.5825,-1.5825,-1.5825,-1.5825,-1.5825,-1.5045,-1.359,-1.1356,-0.9702,-0.8333,-0.8038,-0.8038,-0.8038,-0.8038,-0.8038,-0.8038,-0.8041,-0.8079,-0.8109,-0.8099,-0.8153,-0.8191,-0.8113,-0.8038,-0.8038,-0.8038,-0.8038,-0.8038,-0.8038,-0.8038,-0.8038,-0.8038,-0.8038,-0.8038,-0.8038,-0.8038,-0.8045,-0.7949,-0.7939,-0.7991,-0.7997,-0.7935,-0.7932,-0.7892,-0.7935,-0.7799,-0.7024,-0.562,-0.4724,-0.0,-0.0,-0.0,-0.0,-0.0,-0.0,-0.0,-0.0,-0.0,-0.0,-0.0,-0.0,-0.0,-0.0,-0.0,-0.0,-0.0,-3.3081,-3.3081,-3.3081,-3.3081,-3.3081,-3.3081,-3.3081,-3.3081,-3.3081,-3.3081,-3.3068,-3.214,-3.1877,-3.1589,-2.959,-2.868,-2.7767,-2.6935,-2.6187,-2.5723,-2.5732,-2.5732,-2.5732,-2.5732,-2.5732,-2.5732,-2.5732,-2.5732,-2.5732,-2.5732,-2.502,-2.3899,-2.3493,-2.3527,-2.3019,-2.286,-2.0444,-1.8626,-1.7691,-1.7586,-1.7395,-1.7275,-1.7034,-1.6834,-1.6493,-1.6299,-1.6139,-1.5965,-1.5905,-1.5832,-1.5832,-1.5832,-1.5825,-1.573,-1.5051,-1.2619,-1.0872,-0.941,-0.8333,-0.8038,-0.8038,-0.8041,-0.8048,-0.8038,-0.8038,-0.8052,-0.8075,-0.8106,-0.8099,-0.8123,-0.8147,-0.8099,-0.8048,-0.8038,-0.8038,-0.8038,-0.8038,-0.8038,-0.8038,-0.8038,-0.8038,-0.8038,-0.8038,-0.8038,-0.8041,-0.7949,-0.7955,-0.7959,-0.7962,-0.7959,-0.7347,-0.7347,-0.7982,-0.7995,-0.6163,-0.5109,-0.3304,-0.0,-0.0,-0.0,-0.0,-0.0,-0.0,-0.0,-0.0,-0.0,-0.0,-0.0,-0.0,-0.0,-0.0,-0.0,-0.0,-0.0,-0.0,-3.2403,-3.2403,-3.2416,-3.2528,-3.2729,-3.3013,-3.3148,-3.3076,-3.3104,-3.3116,-3.2978,-3.1804,-3.1223,-3.0855,-2.8947,-2.7683,-2.7589,-2.6476,-2.5732,-2.5732,-2.5732,-2.5732,-2.5732,-2.5732,-2.5732,-2.5732,-2.5732,-2.5732,-2.5732,-2.5528,-2.4913,-2.2976,-2.2876,-2.176,-2.0593,-1.9955,-1.9279,-1.8137,-1.762,-1.7569,-1.7508,-1.7402,-1.7301,-1.7101,-1.6734,-1.654,-1.6313,-1.6126,-1.6072,-1.5925,-1.5892,-1.5932,-1.5688,-1.5337,-1.4274,-1.2139,-1.0779,-0.9414,-0.8336,-0.8038,-0.8038,-0.8055,-0.8092,-0.8133,-0.8102,-0.8096,-0.8116,-0.8133,-0.8085,-0.8058,-0.8075,-0.8082,-0.8058,-0.8038,-0.8038,-0.8038,-0.8038,-0.8038,-0.8038,-0.8038,-0.8038,-0.8038,-0.8038,-0.8038,-0.8045,-0.7959,-0.7969,-0.7972,-0.7972,-0.7972,-0.6845,-0.5929,-0.7074,-0.7918,-0.577,-0.0,-0.0,-0.0,-0.0,-0.0,-0.0,-0.0,-0.0,-0.0,-0.0,-0.0,-0.0,-0.0,-0.0,-0.0,-0.0,-0.0,-0.0,-0.0,-0.0,-3.1411,-3.1449,-3.1436,-3.1851,-3.2298,-3.284,-3.3122,-3.311,-3.2915,-3.3,-3.2824,-3.1644,-3.0944,-3.0316,-2.8319,-2.7315,-2.6945,-2.611,-2.5732,-2.5732,-2.5732,-2.5732,-2.5732,-2.5732,-2.5732,-2.5732,-2.5732,-2.5732,-2.5732,-2.543,-2.4402,-2.1845,-2.1845,-2.0735,-1.8715,-1.8325,-1.8003,-1.7884,-1.7555,-1.7589,-1.7589,-1.7535,-1.7462,-1.7241,-1.7034,-1.6847,-1.6513,-1.6386,-1.6393,-1.6112,-1.5985,-1.6025,-1.5523,-1.4651,-1.3397,-1.2042,-1.0685,-0.941,-0.8432,-0.8038,-0.8038,-0.8085,-0.8177,-0.8218,-0.8194,-0.8201,-0.8231,-0.8197,-0.8157,-0.8106,-0.8109,-0.8079,-0.8045,-0.8038,-0.8038,-0.8038,-0.8038,-0.8038,-0.8038,-0.8038,-0.8038,-0.8038,-0.8038,-0.8038,-0.7952,-0.7969,-0.7975,-0.7979,-0.7889,-0.7889,-0.6859,-0.5131,-0.474,-0.5466,-0.4651,-0.0,-0.0,-0.0,-0.0,-0.0,-0.0,-0.0,-0.0,-0.0,-0.0,-0.0,-0.0,-0.0,-0.0,-0.0,-0.0,-0.0,-0.0,-0.0,-0.0,-3.1386,-3.1424,-3.1838,-3.2102,-3.224,-3.2815,-3.3071,-3.2975,-3.2181,-3.2353,-3.2579,-3.0956,-2.9852,-2.9579,-2.7389,-2.6294,-2.611,-2.6014,-2.5732,-2.5732,-2.5732,-2.5732,-2.5732,-2.5732,-2.5732,-2.5732,-2.5732,-2.5732,-2.5732,-2.543,-2.4412,-2.2047,-2.1643,-2.0326,-1.7786,-1.7589,-1.7589,-1.7589,-1.7589,-1.7589,-1.7589,-1.7589,-1.7522,-1.7328,-1.7154,-1.6847,-1.6513,-1.6219,-1.6092,-1.5872,-1.5885,-1.5885,-1.5737,-1.4561,-1.3301,-1.2047,-1.0877,-0.9702,-0.8627,-0.8237,-0.8134,-0.8085,-0.8163,-0.8235,-0.8286,-0.8343,-0.8343,-0.8286,-0.8221,-0.8167,-0.8119,-0.8072,-0.8038,-0.8038,-0.8038,-0.8038,-0.8038,-0.8038,-0.8038,-0.8038,-0.8038,-0.8038,-0.8038,-0.8045,-0.7959,-0.7969,-0.7972,-0.7882,-0.7601,-0.7507,-0.7086,-0.5249,-0.2117,-0.202,-0.0,-0.0,-0.0,-0.0,-0.0,-0.0,-0.0,-0.0,-0.0,-0.0,-0.0,-0.0,-0.0,-0.0,-0.0,-0.0,-0.0,-0.0,-0.0,-0.0,-0.0,-3.0683,-3.0721,-3.1009,-3.1016,-3.1005,-3.1876,-3.2307,-3.2269,-3.2143,-3.1891,-3.1357,-3.007,-2.9396,-2.9028,-2.6839,-2.5732,-2.5732,-2.5732,-2.5732,-2.5732,-2.5732,-2.5732,-2.5732,-2.5732,-2.5732,-2.5732,-2.5732,-2.5732,-2.5732,-2.543,-2.4402,-2.2156,-2.1541,-2.0326,-1.7996,-1.7589,-1.7589,-1.7589,-1.7589,-1.7589,-1.7589,-1.7589,-1.7589,-1.7422,-1.7194,-1.6881,-1.6647,-1.6333,-1.6119,-1.5925,-1.5845,-1.5845,-1.573,-1.5242,-1.4172,-1.3102,-1.2037,-1.0872,-0.9509,-0.8825,-0.8528,-0.8382,-0.818,-0.8262,-0.8296,-0.834,-0.8364,-0.8303,-0.816,-0.8089,-0.8079,-0.8041,-0.8038,-0.8038,-0.8038,-0.8038,-0.8038,-0.8038,-0.8038,-0.8038,-0.8038,-0.8038,-0.8038,-0.8038,-0.7952,-0.7559,-0.7563,-0.5434,-0.5454,-0.6189,-0.608,-0.0,-0.0,-0.0,-0.0,-0.0,-0.0,-0.0,-0.0,-0.0,-0.0,-0.0,-0.0,-0.0,-0.0,-0.0,-0.0,-0.0,-0.0,-0.0,-0.0,-0.0,-0.0,-0.0,-0.0,-2.9337,-2.9378,-2.9489,-2.9168,-2.9092,-3.0659,-3.1599,-3.1719,-3.1984,-3.1053,-2.9526,-2.9083,-2.9101,-2.8297,-2.6924,-2.6197,-2.5732,-2.5732,-2.5732,-2.5732,-2.5732,-2.5732,-2.5732,-2.5732,-2.5732,-2.5732,-2.5732,-2.5732,-2.5732,-2.5216,-2.4097,-2.2156,-2.1041,-2.0128,-1.8401,-1.7589,-1.7589,-1.7589,-1.7589,-1.7589,-1.7589,-1.7575,-1.7549,-1.7448,-1.7248,-1.6967,-1.678,-1.6526,-1.6273,-1.6002,-1.577,-1.5825,-1.5825,-1.5534,-1.4848,-1.3878,-1.3488,-1.2129,-1.0774,-0.9903,-0.9312,-0.8766,-0.8498,-0.8269,-0.8296,-0.8313,-0.8336,-0.8282,-0.8136,-0.8065,-0.8055,-0.8038,-0.8038,-0.8038,-0.8038,-0.8038,-0.8038,-0.8038,-0.8038,-0.8038,-0.8038,-0.8038,-0.8038,-0.8038,-0.7746,-0.735,-0.5937,-0.3215,-0.181,-0.3029,-0.374,-0.0,-0.0,-0.0,-0.0,-0.0,-0.0,-0.0,-0.0,-0.0,-0.0,-0.0,-0.0,-0.0,-0.0,-0.0,-0.0,-0.0,-0.0,-0.0,-0.0,-0.0,-0.0,-0.0,-0.0,-2.7139,-2.7174,-2.7575,-2.771,-2.7954,-3.026,-3.1893,-3.2077,-2.9082,-2.7847,-2.7993,-2.7594,-2.7562,-2.784,-2.6476,-2.5732,-2.5732,-2.5732,-2.5732,-2.5732,-2.5732,-2.5732,-2.5732,-2.5732,-2.5732,-2.5732,-2.5732,-2.5732,-2.5528,-2.4609,-2.3375,-2.1752,-2.0333,-1.9317,-1.8101,-1.7589,-1.7589,-1.7589,-1.7589,-1.7589,-1.7589,-1.7542,-1.7415,-1.7228,-1.6941,-1.6807,-1.6613,-1.6226,-1.5932,-1.5853,-1.585,-1.5858,-1.5825,-1.573,-1.514,-1.4555,-1.4166,-1.3199,-1.194,-1.0779,-0.9895,-0.9422,-0.9052,-0.8235,-0.8252,-0.8255,-0.8269,-0.8269,-0.8163,-0.8113,-0.8089,-0.8048,-0.8038,-0.8038,-0.8038,-0.8038,-0.8038,-0.8038,-0.8038,-0.8038,-0.8038,-0.8038,-0.8038,-0.8041,-0.7952,-0.7559,-0.7163,-0.4529,-0.2015,-0.1817,-0.1617,-0.0,-0.0,-0.0,-0.0,-0.0,-0.0,-0.0,-0.0,-0.0,-0.0,-0.0,-0.0,-0.0,-0.0,-0.0,-0.0,-0.0,-0.0,-0.0,-0.0,-0.0,-0.0,-0.0,-0.0]},{"header":{"parameterUnit":"m.s-1","parameterCategory":1,"la1":31.0,"la2":29.5877,"lo1":-88.7671,"lo2":-86.6584,"dy":0.0162,"dx":0.0185,"nx":115,"ny":88,"refTime":"2023-06-27T06:00:00:Z","depth":0,"parameterNumber":3,"parameterNumberName":"V-component_of_WINDS"},"data":[0.0,0.0,0.0,0.0,0.0,0.0,0.0,0.0,0.0,0.0,0.0,0.0,0.0,0.0,0.0,0.0,0.0,0.0,0.0,0.0,0.0,0.0,0.0,0.0,0.0,0.0,0.0,0.0,0.0,0.0,0.0,0.0,0.0,0.0,0.0,0.0,0.0,0.0,0.0,0.0,0.0,0.0,0.0,0.0,0.0,0.0,0.0,0.0,0.0,0.0,0.0,0.0,0.0,0.0,0.0,0.0,0.0,0.0,0.0,0.0,0.0,0.0,0.0,0.0,0.0,0.0,0.0,0.0,0.0,0.0,0.0,0.0,0.0,0.0,0.0,0.0,0.0,0.0,0.0,0.0,0.0,0.0,0.0,0.0,0.0,0.0,0.0,0.0,0.0,0.0,0.0,0.0,0.0,0.0,0.0,0.0,0.0,0.0,0.0,0.0,0.0,0.0,0.0,0.0,0.0,0.0,0.0,0.0,0.0,0.0,0.0,0.0,0.0,0.0,0.0,0.0,0.0,0.0,0.0,0.0,0.0,0.0,0.0,0.0,0.0,0.0,0.0,0.0,0.0,0.0,0.0,0.0,0.0,0.0,0.0,0.0,0.0,0.0,0.0,0.0,0.0,0.0,0.0,0.0,0.0,0.0,0.0,0.0,0.0,0.0,0.0,0.0,0.0,0.0,0.0,0.0,0.0,0.0,0.0,0.0,0.0,0.0,0.0,0.0,0.0,0.0,0.0,0.0,0.0,0.0,0.0,0.0,0.0,0.0,0.0,0.0,0.0,0.0,0.0,0.0,0.0,0.0,0.0,0.0,0.0,0.0,0.0,0.0,0.0,0.0,0.0,0.0,0.0,0.0,0.0,0.0,0.0,0.0,0.0,0.0,0.0,0.0,0.0,0.0,0.0,0.0,0.0,0.0,0.0,0.0,0.0,0.0,0.0,0.0,0.0,0.0,0.0,0.0,0.0,0.0,0.0,0.0,0.0,0.0,0.0,0.0,0.0,0.0,0.0,0.0,0.0,0.0,0.0,0.0,0.0,0.0,0.0,0.0,0.0,0.0,0.0,0.0,0.0,0.0,0.0,0.0,0.0,0.0,0.0,0.0,0.0,0.0,0.0,0.0,0.0,0.0,0.0,0.0,0.0,0.0,0.0,0.0,0.0,0.0,0.0,0.0,0.0,0.0,0.0,0.0,0.0,0.0,0.0,0.0,0.0,0.0,0.0,0.0,0.0,0.0,0.0,0.0,0.0,0.0,0.0,0.0,0.0,0.0,0.0,0.0,0.0,0.0,0.0,0.0,0.0,0.0,0.0,0.0,0.0,0.0,0.0,0.0,0.0,0.0,0.0,0.0,0.0,0.0,0.0,0.0,0.0,0.0,0.0,0.0,0.0,0.0,0.0,0.0,0.0,0.0,0.0,0.0,0.0,0.0,0.0,0.0,0.0,0.0,0.0,0.0,0.0,0.0,0.0,0.0,0.0,0.0,0.0,0.0,0.0,0.0,0.0,0.0,0.0,0.0,0.0,0.0,0.0,0.0,0.0,0.0,0.0,0.0,0.0,0.0,0.0,0.0,0.0,0.0,0.0,0.0,0.0,0.0,0.0,0.0,0.0,0.0,0.0,0.0,0.0,0.0,0.0,0.0,0.0,0.0,0.0,0.0,0.0,0.0,0.0,0.0,0.0,0.0,0.0,0.0,0.0,0.0,0.0,0.0,0.0,0.0,0.0,0.0,0.0,0.0,0.0,0.0,0.0,0.0,0.0,0.0,0.0,0.0,0.0,0.0,0.0,0.0,0.0,0.0,0.0,0.0,0.0,0.0,0.0,0.0,0.0,0.0,0.0,0.0,0.0,0.0,0.0,0.0,0.0,0.0,0.0,0.0,0.0,0.0,0.0,0.0,0.0,0.0,0.0,0.0,0.0,0.0,0.0,0.0,0.0,0.0,0.0,0.0,0.0,0.0,0.0,0.0,0.0,0.0,0.0,0.0,0.0,0.0,0.0,0.0,0.0,0.0,0.0,0.0,0.0,0.0,0.0,0.0,0.0,0.0,0.0,0.0,0.0,0.0,0.0,0.0,0.0,0.0,0.0,0.0,0.0,0.0,0.0,0.0,0.0,0.0,0.0,0.0,0.0,0.0,0.0,0.0,0.0,0.0,0.0,0.0,0.0,0.0,0.0,0.0,0.0,0.0,0.0,0.0,0.0,0.0,0.0,0.0,0.0,0.0,0.0,0.0,0.0,0.0,0.0,0.0,0.0,0.0,0.0,0.0,0.0,0.0,0.0,0.0,0.0,0.0,0.0,0.0,0.0,0.0,0.0,0.0,0.0,0.0,0.0,0.0,0.0,0.0,0.0,0.0,0.0,0.0,0.0,0.0,0.0,0.0,0.0,0.0,0.0,0.0,0.0,0.0,0.0,0.0,0.0,0.0,0.0,0.0,0.0,0.0,0.0,0.0,0.0,0.0,0.0,0.0,0.0,0.0,0.0,0.0,0.0,0.0,0.0,0.0,0.0,0.0,0.0,0.0,0.0,0.0,0.0,0.0,0.0,0.0,0.0,0.0,0.0,0.0,0.0,0.0,0.0,0.0,0.0,0.0,0.0,0.0,0.0,0.0,0.0,0.0,0.0,0.0,0.0,0.0,0.0,0.0,0.0,0.0,0.0,0.0,0.0,0.0,0.0,0.0,0.0,0.0,0.0,0.0,0.0,0.0,0.0,0.0,0.0,0.0,0.0,0.0,0.0,0.0,0.0,0.0,0.0,0.0,0.0,0.0,0.0,0.0,0.0,0.0,0.0,0.0,0.0,0.0,0.0,0.0,0.0,0.0,0.0,0.0,0.0,0.0,0.0,0.0,0.0,0.0,0.0,0.0,0.0,0.0,0.0,0.0,0.0,0.0,0.0,0.0,0.0,0.0,0.0,0.0,0.0,0.0,0.0,0.0,0.0,0.0,0.0,0.0,0.0,0.0,0.0,0.0,0.0,0.0,0.0,0.0,0.0,0.0,0.0,0.0,0.0,0.0,0.0,0.0,0.0,0.0,0.0,0.0,0.0,0.0,0.0,0.0,0.0,0.0,0.0,0.0,0.0,0.0,0.0,0.0,0.0,0.0,0.0,0.0,0.0,0.0,0.0,0.0,0.0,0.0,0.0,0.0,0.0,0.0,0.0,0.0,0.0,0.0,0.0,0.0,0.0,0.0,0.0,0.0,0.0,0.0,0.0,0.0,0.0,0.0,0.0,0.0,0.0,0.0,0.0,0.0,0.0,0.0,0.0,0.0,0.0,0.0,0.0,0.0,0.0,0.0,0.0,0.0,0.0,0.0,0.0,0.0,0.0,0.0,0.0,0.0,0.0,0.0,0.0,0.0,0.0,0.0,0.0,0.0,0.0,0.0,0.0,0.0,0.0,0.0,0.0,0.0,0.0,0.0,0.0,0.0,0.0,0.0,0.0,0.0,0.0,0.0,0.0,0.0,0.0,0.0,0.0,0.0,0.0,0.0,0.0,0.0,0.0,0.0,0.0,0.0,0.0,0.0,0.0,0.0,0.0,0.0,0.0,0.0,0.0,0.0,0.0,0.0,0.0,0.0,0.0,0.0,0.0,0.0,0.0,0.0,0.0,0.0,0.0,0.0,0.0,0.0,0.0,0.0,0.0,0.0,0.0,0.0,0.0,0.0,0.0,0.0,0.0,0.0,0.0,0.0,0.0,0.0,0.0,0.0,0.0,0.0,0.0,0.0,0.0,0.0,0.0,0.0,0.0,0.0,0.0,0.0,0.0,0.0,0.0,0.0,0.0,0.0,0.0,0.0,0.0,0.0,0.0,0.0,0.0,0.0,0.0,0.0,0.0,0.0,0.0,0.0,0.0,0.0,0.0,0.0,0.0,0.0,0.0,0.0,0.0,0.0,0.0,0.0,0.0,0.0,0.0,0.0,0.0,0.0,0.0,0.0,0.0,0.0,0.0,0.0,0.0,0.0,0.0,0.0,0.0,0.0,0.0,0.0,0.0,0.0,0.0,0.0,0.0,0.0,0.0,0.0,0.0,0.0,0.0,0.0,0.0,0.0,0.0,0.0,0.0,0.0,0.0,0.0,0.0,0.0,0.0,0.0,0.0,0.0,0.0,0.0,0.0,0.0,0.0,0.0,0.0,0.0,0.0,0.0,0.0,0.0,0.0,0.0,0.0,0.0,0.0,0.0,0.0,0.0,0.0,0.0,0.0,0.0,0.0,0.0,0.0,0.0,0.0,0.0,0.0,0.0,0.0,0.0,-1.1768,0.0,0.0,0.0,0.0,0.0,0.0,0.0,0.0,0.0,0.0,0.0,0.0,0.0,0.0,0.0,0.0,0.0,0.0,0.0,0.0,0.0,0.0,0.0,0.0,0.0,0.0,0.0,0.0,0.0,0.0,0.0,0.0,0.0,0.0,0.0,0.0,0.0,0.0,0.0,0.0,0.0,0.0,0.0,0.0,0.0,0.0,0.0,0.0,0.0,0.0,0.0,0.0,0.0,0.0,0.0,0.0,0.0,0.0,0.0,0.0,0.0,0.0,0.0,0.0,0.0,0.0,0.0,0.0,0.0,0.0,0.0,0.0,0.0,0.0,0.0,0.0,0.0,0.0,0.0,0.0,0.0,0.0,0.0,0.0,0.0,0.0,0.0,0.0,0.0,0.0,0.0,0.0,0.0,0.0,0.0,0.0,0.0,0.0,0.0,0.0,0.0,0.0,0.0,0.0,0.0,0.0,0.0,0.0,0.0,0.0,-1.2153,-1.2133,-1.1991,-1.1891,-1.1869,0.0,0.0,0.0,0.0,0.0,0.0,0.0,0.0,0.0,0.0,0.0,0.0,0.0,0.0,0.0,0.0,0.0,0.0,0.0,0.0,0.0,0.0,0.0,0.0,0.0,0.0,0.0,0.0,0.0,0.0,0.0,0.0,0.0,0.0,0.0,0.0,0.0,0.0,0.0,0.0,0.0,0.0,0.0,0.0,0.0,0.0,0.0,0.0,0.0,0.0,0.0,0.0,0.0,0.0,0.0,0.0,0.0,0.0,0.0,0.0,0.0,0.0,0.0,0.0,0.0,0.0,0.0,0.0,0.0,0.0,0.0,0.0,0.0,0.0,0.0,0.0,0.0,0.0,0.0,0.0,0.0,0.0,0.0,0.0,0.0,0.0,0.0,0.0,0.0,0.0,0.0,0.0,0.0,0.0,0.0,0.0,0.0,0.0,0.0,0.0,0.0,0.0,0.0,0.0,0.0,0.0,0.0,0.0,0.0,0.0,0.0,0.0,-1.2039,-1.1955,-1.1912,0.0,0.0,0.0,0.0,0.0,0.0,0.0,0.0,0.0,0.0,0.0,0.0,0.0,0.0,0.0,0.0,0.0,0.0,0.0,0.0,0.0,0.0,0.0,0.0,0.0,0.0,0.0,0.0,0.0,0.0,0.0,0.0,0.0,0.0,0.0,0.0,0.0,0.0,0.0,0.0,0.0,0.0,0.0,0.0,0.0,0.0,0.0,0.0,0.0,0.0,0.0,0.0,0.0,0.0,0.0,0.0,0.0,0.0,0.0,0.0,0.0,0.0,0.0,0.0,0.0,0.0,0.0,0.0,0.0,0.0,0.0,0.0,0.0,0.0,0.0,0.0,0.0,0.0,0.0,0.0,0.0,0.0,0.0,0.0,0.0,0.0,0.0,0.0,0.0,0.0,0.0,0.0,0.0,0.0,0.0,0.0,0.0,0.0,0.0,0.0,0.0,0.0,0.0,0.0,0.0,0.0,0.0,0.0,0.0,0.0,-1.2514,-1.2475,-1.2282,0.0,-1.2012,0.0,0.0,0.0,0.0,0.0,0.0,0.0,0.0,0.0,0.0,0.0,0.0,0.0,0.0,0.0,0.0,0.0,0.0,0.0,0.0,0.0,0.0,0.0,0.0,0.0,0.0,0.0,0.0,0.0,0.0,0.0,0.0,0.0,0.0,0.0,0.0,0.0,0.0,0.0,0.0,0.0,0.0,0.0,0.0,0.0,0.0,0.0,0.0,0.0,0.0,0.0,0.0,0.0,0.0,0.0,0.0,0.0,0.0,0.0,0.0,0.0,0.0,0.0,0.0,0.0,0.0,0.0,0.0,0.0,0.0,0.0,0.0,0.0,0.0,0.0,0.0,0.0,0.0,0.0,0.0,0.0,0.0,0.0,0.0,0.0,0.0,0.0,0.0,0.0,0.0,0.0,0.0,0.0,0.0,0.0,0.0,0.0,0.0,0.0,0.0,0.0,0.0,0.0,0.0,0.0,0.0,0.0,0.0,0.0,0.0,-1.2574,-1.2554,-1.2363,-1.22,0.0,0.0,0.0,0.0,0.0,0.0,0.0,0.0,0.0,0.0,0.0,0.0,0.0,0.0,0.0,0.0,0.0,0.0,0.0,0.0,0.0,0.0,0.0,0.0,0.0,0.0,0.0,0.0,0.0,0.0,0.0,0.0,0.0,0.0,0.0,0.0,0.0,0.0,0.0,0.0,0.0,0.0,0.0,0.0,0.0,0.0,0.0,0.0,0.0,0.0,0.0,0.0,0.0,0.0,0.0,0.0,0.0,0.0,0.0,0.0,0.0,0.0,0.0,0.0,0.0,0.0,0.0,0.0,0.0,0.0,0.0,0.0,0.0,0.0,0.0,0.0,0.0,0.0,0.0,0.0,0.0,0.0,0.0,0.0,0.0,0.0,0.0,0.0,0.0,0.0,0.0,0.0,0.0,0.0,0.0,0.0,0.0,0.0,0.0,0.0,0.0,0.0,0.0,0.0,0.0,0.0,0.0,0.0,0.0,0.0,-1.2675,-1.2652,-1.2597,-1.2459,-1.2323,-1.2216,0.0,0.0,0.0,0.0,0.0,0.0,0.0,0.0,0.0,0.0,0.0,0.0,0.0,0.0,0.0,0.0,0.0,0.0,0.0,0.0,0.0,0.0,0.0,0.0,0.0,0.0,0.0,0.0,0.0,0.0,0.0,0.0,0.0,0.0,0.0,0.0,0.0,0.0,0.0,0.0,0.0,0.0,0.0,0.0,0.0,0.0,0.0,0.0,0.0,0.0,0.0,0.0,0.0,0.0,0.0,0.0,0.0,0.0,0.0,0.0,0.0,0.0,0.0,0.0,0.0,0.0,0.0,0.0,0.0,0.0,0.0,0.0,0.0,0.0,0.0,0.0,0.0,0.0,0.0,0.0,0.0,0.0,0.0,0.0,0.0,0.0,0.0,0.0,0.0,0.0,0.0,0.0,0.0,0.0,0.0,0.0,0.0,0.0,0.0,0.0,0.0,0.0,0.0,0.0,0.0,0.0,0.0,0.0,-1.2878,-1.288,-1.2776,-1.2626,-1.2597,-1.2554,0.0,0.0,0.0,0.0,0.0,0.0,0.0,0.0,0.0,0.0,0.0,0.0,0.0,0.0,0.0,0.0,0.0,0.0,0.0,0.0,0.0,0.0,0.0,0.0,0.0,0.0,0.0,0.0,0.0,0.0,0.0,0.0,0.0,0.0,0.0,0.0,0.0,0.0,0.0,0.0,0.0,0.0,0.0,0.0,0.0,0.0,0.0,0.0,0.0,0.0,0.0,0.0,0.0,0.0,0.0,0.0,0.0,0.0,0.0,0.0,0.0,0.0,0.0,0.0,0.0,0.0,0.0,0.0,0.0,0.0,0.0,0.0,0.0,0.0,0.0,0.0,0.0,0.0,0.0,0.0,0.0,0.0,0.0,0.0,0.0,0.0,0.0,0.0,0.0,0.0,0.0,0.0,0.0,0.0,0.0,0.0,0.0,0.0,0.0,0.0,0.0,0.0,0.0,0.0,0.0,0.0,0.0,0.0,0.0,-1.2846,-1.277,-1.2678,-1.26,-1.2597,-1.2577,0.0,0.0,0.0,0.0,0.0,0.0,0.0,0.0,0.0,0.0,0.0,0.0,0.0,0.0,0.0,0.0,0.0,0.0,0.0,0.0,0.0,0.0,0.0,0.0,0.0,0.0,0.0,0.0,0.0,0.0,0.0,0.0,0.0,0.0,0.0,0.0,0.0,0.0,0.0,0.0,0.0,0.0,0.0,0.0,0.0,0.0,0.0,0.0,0.0,0.0,0.0,0.0,0.0,0.0,0.0,0.0,0.0,0.0,0.0,0.0,0.0,0.0,0.0,0.0,0.0,0.0,0.0,0.0,0.0,0.0,0.0,0.0,0.0,0.0,0.0,0.0,0.0,0.0,0.0,0.0,0.0,0.0,0.0,0.0,0.0,0.0,0.0,0.0,0.0,0.0,0.0,0.0,0.0,0.0,0.0,0.0,0.0,0.0,0.0,0.0,0.0,0.0,0.0,0.0,0.0,0.0,0.0,0.0,0.0,-1.2757,0.0,-1.2597,-1.2609,-1.262,-1.2659,0.0,0.0,0.0,0.0,0.0,0.0,0.0,0.0,0.0,0.0,0.0,0.0,0.0,0.0,0.0,0.0,0.0,0.0,0.0,0.0,0.0,0.0,0.0,0.0,0.0,0.0,0.0,0.0,0.0,0.0,0.0,0.0,0.0,0.0,0.0,0.0,0.0,0.0,0.0,0.0,0.0,0.0,0.0,0.0,0.0,0.0,0.0,0.0,0.0,0.0,0.0,0.0,0.0,0.0,0.0,0.0,0.0,0.0,0.0,0.0,0.0,0.0,0.0,0.0,0.0,0.0,0.0,0.0,0.0,0.0,0.0,0.0,0.0,0.0,0.0,0.0,0.0,0.0,0.0,0.0,0.0,0.0,0.0,0.0,0.0,0.0,0.0,0.0,0.0,0.0,0.0,0.0,0.0,0.0,0.0,0.0,0.0,0.0,0.0,0.0,0.0,0.0,0.0,0.0,0.0,0.0,0.0,0.0,-1.2867,-1.2735,-1.2648,-1.2657,-1.2625,-1.271,-1.2773,0.0,0.0,0.0,0.0,0.0,0.0,0.0,0.0,0.0,0.0,0.0,0.0,0.0,0.0,0.0,0.0,0.0,0.0,0.0,0.0,0.0,0.0,0.0,0.0,0.0,0.0,0.0,0.0,0.0,0.0,0.0,0.0,0.0,0.0,0.0,0.0,0.0,0.0,0.0,0.0,0.0,0.0,0.0,0.0,0.0,0.0,0.0,0.0,0.0,0.0,0.0,0.0,0.0,0.0,0.0,0.0,0.0,0.0,0.0,0.0,0.0,0.0,0.0,0.0,0.0,0.0,0.0,0.0,0.0,0.0,0.0,0.0,0.0,0.0,0.0,0.0,0.0,0.0,0.0,0.0,0.0,0.0,0.0,0.0,0.0,0.0,0.0,0.0,0.0,0.0,0.0,0.0,0.0,0.0,0.0,0.0,0.0,0.0,0.0,0.0,0.0,0.0,0.0,0.0,0.0,0.0,0.0,0.0,0.0,-1.3473,-1.3355,-1.3293,-1.3293,-1.3396,-1.329,0.0,0.0,0.0,0.0,0.0,0.0,0.0,0.0,0.0,0.0,0.0,0.0,0.0,0.0,0.0,0.0,0.0,0.0,0.0,0.0,0.0,0.0,0.0,0.0,0.0,0.0,0.0,0.0,0.0,0.0,0.0,0.0,0.0,0.0,0.0,0.0,0.0,0.0,0.0,0.0,0.0,0.0,0.0,0.0,0.0,0.0,0.0,0.0,0.0,0.0,0.0,0.0,0.0,0.0,0.0,0.0,0.0,0.0,0.0,0.0,0.0,0.0,0.0,0.0,0.0,0.0,0.0,0.0,0.0,0.0,0.0,0.0,0.0,0.0,0.0,0.0,0.0,0.0,0.0,0.0,0.0,0.0,0.0,0.0,0.0,0.0,0.0,0.0,0.0,0.0,0.0,0.0,0.0,0.0,0.0,0.0,0.0,0.0,0.0,0.0,0.0,0.0,0.0,0.0,0.0,0.0,0.0,0.0,0.0,-1.5958,-1.5096,-1.4624,-1.464,-1.454,-1.4137,-1.342,0.0,0.0,0.0,0.0,0.0,0.0,0.0,0.0,0.0,0.0,0.0,0.0,0.0,0.0,0.0,0.0,0.0,0.0,0.0,0.0,0.0,0.0,0.0,0.0,0.0,0.0,0.0,0.0,0.0,0.0,0.0,0.0,0.0,0.0,0.0,0.0,0.0,0.0,0.0,0.0,0.0,0.0,0.0,0.0,0.0,0.0,0.0,0.0,0.0,0.0,0.0,0.0,0.0,0.0,0.0,0.0,0.0,0.0,0.0,0.0,0.0,0.0,0.0,0.0,0.0,0.0,0.0,0.0,0.0,0.0,0.0,0.0,0.0,0.0,0.0,0.0,0.0,0.0,0.0,0.0,0.0,0.0,0.0,0.0,0.0,0.0,0.0,0.0,0.0,0.0,0.0,0.0,0.0,0.0,0.0,0.0,0.0,0.0,0.0,0.0,0.0,0.0,0.0,0.0,0.0,0.0,0.0,0.0,-1.9791,-1.7877,-1.6831,-1.6669,-1.6143,-1.5333,0.0,0.0,0.0,0.0,0.0,0.0,0.0,0.0,0.0,0.0,0.0,0.0,0.0,0.0,0.0,0.0,0.0,0.0,0.0,0.0,0.0,0.0,0.0,0.0,0.0,0.0,0.0,0.0,0.0,0.0,0.0,0.0,0.0,0.0,0.0,0.0,0.0,0.0,0.0,0.0,0.0,0.0,0.0,0.0,0.0,0.0,0.0,0.0,0.0,0.0,0.0,0.0,0.0,0.0,0.0,0.0,0.0,0.0,0.0,0.0,0.0,0.0,0.0,0.0,0.0,0.0,0.0,0.0,0.0,0.0,0.0,0.0,0.0,0.0,0.0,0.0,0.0,0.0,0.0,0.0,0.0,0.0,0.0,0.0,0.0,0.0,0.0,0.0,0.0,0.0,0.0,0.0,0.0,0.0,0.0,0.0,0.0,0.0,0.0,0.0,0.0,0.0,0.0,0.0,0.0,0.0,0.0,0.0,0.0,-2.0977,-2.2035,-2.1629,-1.9645,-1.894,-1.7509,0.0,0.0,0.0,0.0,0.0,0.0,0.0,0.0,0.0,0.0,0.0,0.0,0.0,0.0,0.0,0.0,0.0,0.0,0.0,0.0,0.0,0.0,0.0,0.0,0.0,0.0,0.0,0.0,0.0,0.0,0.0,0.0,0.0,0.0,0.0,0.0,0.0,0.0,0.0,0.0,0.0,0.0,0.0,0.0,0.0,0.0,0.0,0.0,0.0,0.0,0.0,0.0,0.0,0.0,0.0,0.0,0.0,0.0,0.0,0.0,0.0,0.0,0.0,0.0,0.0,0.0,0.0,0.0,0.0,0.0,0.0,0.0,0.0,0.0,0.0,0.0,0.0,0.0,0.0,0.0,0.0,0.0,0.0,0.0,0.0,0.0,0.0,0.0,0.0,0.0,0.0,0.0,0.0,0.0,0.0,0.0,0.0,0.0,0.0,0.0,0.0,0.0,0.0,0.0,0.0,0.0,0.0,0.0,-2.1209,-2.3185,-2.5412,-2.5797,-2.4208,-2.2056,-1.9631,0.0,0.0,0.0,0.0,0.0,0.0,0.0,0.0,0.0,0.0,0.0,0.0,0.0,0.0,0.0,0.0,0.0,0.0,0.0,0.0,0.0,0.0,0.0,0.0,0.0,0.0,0.0,0.0,0.0,0.0,0.0,0.0,0.0,0.0,0.0,0.0,0.0,0.0,0.0,0.0,0.0,0.0,0.0,0.0,0.0,0.0,0.0,0.0,0.0,0.0,0.0,0.0,0.0,0.0,0.0,0.0,0.0,0.0,0.0,0.0,0.0,0.0,0.0,0.0,0.0,0.0,0.0,0.0,0.0,0.0,0.0,0.0,0.0,0.0,0.0,0.0,0.0,0.0,0.0,0.0,0.0,0.0,0.0,0.0,0.0,0.0,0.0,0.0,0.0,0.0,0.0,0.0,0.0,0.0,0.0,0.0,0.0,0.0,0.0,0.0,0.0,0.0,0.0,0.0,0.0,0.0,0.0,0.0,-2.3469,-2.5592,-2.7807,-2.8975,-2.8873,-2.5046,-2.1698,0.0,0.0,0.0,0.0,0.0,0.0,0.0,0.0,0.0,0.0,0.0,0.0,0.0,0.0,0.0,0.0,0.0,0.0,0.0,0.0,0.0,0.0,0.0,0.0,0.0,0.0,0.0,0.0,0.0,0.0,0.0,0.0,0.0,0.0,0.0,0.0,0.0,0.0,0.0,0.0,0.0,0.0,0.0,0.0,0.0,0.0,0.0,0.0,0.0,0.0,0.0,0.0,0.0,0.0,0.0,0.0,0.0,0.0,0.0,0.0,0.0,0.0,0.0,0.0,0.0,0.0,0.0,0.0,0.0,0.0,0.0,0.0,0.0,0.0,0.0,0.0,0.0,0.0,0.0,0.0,0.0,0.0,0.0,0.0,0.0,0.0,0.0,0.0,0.0,0.0,0.0,0.0,0.0,0.0,0.0,0.0,0.0,0.0,0.0,0.0,0.0,0.0,0.0,0.0,0.0,0.0,0.0,0.0,-2.3966,-2.5576,-2.7807,-2.9011,-2.9011,-2.6371,-2.3611,0.0,0.0,0.0,0.0,0.0,0.0,0.0,0.0,0.0,0.0,0.0,0.0,0.0,0.0,0.0,0.0,0.0,0.0,0.0,0.0,0.0,0.0,0.0,0.0,0.0,0.0,0.0,0.0,0.0,0.0,0.0,0.0,0.0,0.0,0.0,0.0,0.0,0.0,0.0,0.0,0.0,0.0,0.0,0.0,0.0,0.0,0.0,0.0,-1.8529,0.0,0.0,0.0,0.0,0.0,0.0,0.0,0.0,0.0,0.0,0.0,0.0,0.0,0.0,0.0,0.0,0.0,0.0,0.0,0.0,0.0,0.0,0.0,0.0,0.0,0.0,0.0,0.0,0.0,0.0,0.0,0.0,0.0,0.0,0.0,0.0,0.0,0.0,0.0,0.0,0.0,0.0,0.0,0.0,0.0,0.0,0.0,0.0,0.0,0.0,0.0,0.0,0.0,0.0,0.0,0.0,0.0,0.0,0.0,-2.376,-2.5559,-2.7452,-2.8619,-2.889,-2.6793,-2.4374,0.0,0.0,0.0,0.0,0.0,0.0,0.0,0.0,0.0,0.0,0.0,0.0,0.0,0.0,0.0,0.0,0.0,0.0,0.0,0.0,0.0,0.0,0.0,0.0,0.0,0.0,0.0,0.0,0.0,0.0,0.0,0.0,0.0,0.0,0.0,0.0,0.0,0.0,0.0,0.0,0.0,0.0,0.0,0.0,0.0,0.0,0.0,0.0,0.0,0.0,0.0,0.0,0.0,0.0,0.0,0.0,0.0,0.0,0.0,0.0,0.0,0.0,0.0,0.0,0.0,0.0,0.0,0.0,0.0,0.0,0.0,0.0,0.0,0.0,0.0,0.0,0.0,0.0,0.0,0.0,0.0,0.0,0.0,0.0,0.0,0.0,0.0,0.0,0.0,0.0,0.0,0.0,0.0,0.0,0.0,0.0,0.0,0.0,0.0,0.0,0.0,0.0,0.0,0.0,0.0,0.0,0.0,-2.1505,-2.3376,-2.5541,-2.6843,-2.7841,-2.8552,-2.6336,-2.4188,-2.2192,0.0,0.0,0.0,0.0,0.0,0.0,0.0,0.0,0.0,0.0,0.0,0.0,0.0,0.0,0.0,0.0,0.0,0.0,0.0,0.0,0.0,0.0,0.0,0.0,0.0,0.0,0.0,0.0,0.0,0.0,0.0,0.0,0.0,0.0,0.0,0.0,0.0,0.0,-1.9473,-1.9381,0.0,0.0,0.0,0.0,0.0,0.0,0.0,0.0,-1.8538,0.0,0.0,0.0,0.0,0.0,0.0,0.0,0.0,0.0,0.0,0.0,0.0,0.0,0.0,0.0,0.0,0.0,0.0,0.0,0.0,0.0,0.0,0.0,0.0,0.0,0.0,0.0,0.0,0.0,0.0,0.0,0.0,0.0,0.0,0.0,0.0,0.0,0.0,0.0,0.0,0.0,0.0,0.0,0.0,0.0,0.0,0.0,0.0,0.0,0.0,0.0,0.0,0.0,0.0,0.0,0.0,-1.9968,-2.1532,-2.3376,-2.5541,-2.5845,-2.6319,-2.6962,-2.4323,-2.2378,-2.1329,0.0,0.0,0.0,0.0,0.0,0.0,0.0,0.0,0.0,0.0,0.0,0.0,0.0,0.0,0.0,0.0,0.0,0.0,0.0,0.0,0.0,0.0,0.0,0.0,0.0,0.0,0.0,0.0,0.0,0.0,0.0,0.0,0.0,0.0,0.0,0.0,0.0,0.0,0.0,-1.973,-1.9546,0.0,0.0,0.0,0.0,0.0,0.0,0.0,0.0,-1.8815,0.0,0.0,0.0,0.0,0.0,0.0,0.0,0.0,0.0,0.0,0.0,0.0,0.0,0.0,0.0,0.0,0.0,0.0,0.0,0.0,0.0,0.0,0.0,0.0,0.0,0.0,0.0,0.0,0.0,0.0,0.0,0.0,0.0,0.0,0.0,0.0,0.0,0.0,0.0,0.0,0.0,0.0,0.0,0.0,0.0,0.0,0.0,0.0,0.0,0.0,0.0,0.0,0.0,0.0,0.0,-1.9968,-2.1137,-2.2618,-2.4408,-2.4831,-2.5186,-2.549,-2.3444,-2.1972,0.0,0.0,0.0,0.0,0.0,0.0,0.0,0.0,0.0,0.0,0.0,0.0,0.0,0.0,0.0,0.0,0.0,0.0,0.0,0.0,0.0,0.0,0.0,0.0,0.0,0.0,0.0,0.0,0.0,0.0,0.0,0.0,0.0,0.0,0.0,0.0,0.0,0.0,0.0,0.0,-2.0221,-2.0129,-2.0464,0.0,0.0,0.0,0.0,0.0,0.0,-2.0025,-1.9909,0.0,0.0,0.0,0.0,0.0,0.0,0.0,0.0,0.0,0.0,0.0,0.0,0.0,0.0,0.0,0.0,0.0,0.0,0.0,0.0,0.0,0.0,0.0,0.0,0.0,0.0,0.0,0.0,0.0,0.0,0.0,0.0,0.0,0.0,0.0,0.0,0.0,0.0,0.0,0.0,0.0,0.0,0.0,0.0,0.0,0.0,0.0,0.0,0.0,0.0,0.0,0.0,0.0,0.0,0.0,-1.9985,-2.0803,-2.1927,-2.3342,-2.3816,-2.415,-2.4222,-2.2682,-2.1566,0.0,0.0,0.0,0.0,0.0,0.0,0.0,0.0,0.0,0.0,0.0,0.0,0.0,0.0,0.0,0.0,0.0,0.0,0.0,0.0,0.0,0.0,0.0,0.0,0.0,0.0,0.0,0.0,0.0,0.0,0.0,0.0,0.0,0.0,0.0,0.0,0.0,0.0,0.0,0.0,0.0,-2.0696,-2.0978,-2.0724,0.0,0.0,0.0,0.0,-2.0588,-2.138,0.0,0.0,0.0,0.0,0.0,0.0,0.0,0.0,0.0,0.0,0.0,0.0,0.0,0.0,0.0,0.0,0.0,0.0,0.0,0.0,0.0,0.0,0.0,0.0,0.0,0.0,0.0,0.0,0.0,0.0,0.0,0.0,0.0,0.0,0.0,0.0,0.0,0.0,0.0,0.0,0.0,0.0,0.0,0.0,0.0,0.0,0.0,0.0,0.0,0.0,0.0,0.0,0.0,0.0,0.0,0.0,-1.9985,-2.0787,-2.191,-2.3291,-2.2852,-2.2868,-2.346,-2.1414,-2.0221,0.0,0.0,0.0,0.0,0.0,0.0,0.0,0.0,0.0,0.0,0.0,0.0,0.0,0.0,0.0,0.0,0.0,0.0,0.0,0.0,0.0,0.0,0.0,0.0,0.0,0.0,0.0,0.0,0.0,0.0,0.0,0.0,0.0,0.0,0.0,0.0,0.0,0.0,0.0,0.0,0.0,-2.1103,-2.252,-2.1438,-2.0723,0.0,0.0,-2.1878,-2.2557,-2.3835,0.0,0.0,0.0,0.0,0.0,0.0,0.0,0.0,0.0,0.0,0.0,0.0,0.0,0.0,0.0,0.0,0.0,0.0,0.0,0.0,0.0,0.0,0.0,0.0,0.0,0.0,0.0,0.0,0.0,0.0,0.0,0.0,0.0,0.0,0.0,0.0,0.0,0.0,0.0,0.0,0.0,0.0,0.0,0.0,0.0,0.0,0.0,0.0,0.0,0.0,0.0,0.0,0.0,0.0,0.0,-1.8846,-1.9957,-2.034,-2.1261,-2.2688,-2.2462,-2.226,-2.2169,-2.0754,-1.9799,0.0,0.0,0.0,0.0,0.0,0.0,0.0,0.0,0.0,0.0,0.0,0.0,0.0,0.0,0.0,0.0,0.0,0.0,0.0,0.0,0.0,0.0,0.0,0.0,0.0,0.0,0.0,0.0,0.0,0.0,0.0,0.0,0.0,0.0,0.0,0.0,0.0,0.0,0.0,0.0,0.0,0.0,-2.2922,-2.2758,0.0,0.0,0.0,-2.3804,-2.3638,0.0,0.0,0.0,0.0,0.0,0.0,0.0,0.0,0.0,0.0,0.0,0.0,0.0,0.0,0.0,0.0,0.0,0.0,0.0,0.0,0.0,0.0,0.0,0.0,0.0,0.0,0.0,0.0,0.0,0.0,0.0,0.0,0.0,0.0,0.0,0.0,0.0,0.0,0.0,0.0,0.0,0.0,0.0,0.0,0.0,0.0,0.0,0.0,0.0,0.0,0.0,0.0,0.0,0.0,0.0,0.0,0.0,-1.9998,-2.019,-2.0955,-2.2248,-2.2327,-2.1955,-2.1221,-2.0433,0.0,0.0,0.0,0.0,0.0,0.0,0.0,0.0,0.0,0.0,0.0,0.0,0.0,0.0,0.0,0.0,0.0,0.0,0.0,0.0,0.0,0.0,0.0,0.0,0.0,0.0,0.0,-1.9323,0.0,0.0,0.0,0.0,0.0,0.0,0.0,0.0,0.0,0.0,0.0,0.0,0.0,0.0,-2.3248,-2.3584,-2.4136,-2.4208,0.0,0.0,-2.5474,-2.4829,-2.6091,-2.6289,0.0,0.0,0.0,0.0,0.0,0.0,0.0,0.0,0.0,0.0,0.0,0.0,0.0,0.0,0.0,0.0,0.0,0.0,0.0,0.0,0.0,0.0,0.0,0.0,0.0,0.0,0.0,0.0,0.0,0.0,0.0,0.0,0.0,0.0,0.0,0.0,0.0,0.0,0.0,0.0,0.0,0.0,0.0,0.0,0.0,0.0,0.0,0.0,0.0,0.0,0.0,0.0,0.0,0.0,0.0,-2.0103,-2.0776,-2.1479,-2.2265,-2.2327,-2.1955,-2.1221,-2.0407,-1.963,0.0,0.0,0.0,0.0,0.0,0.0,0.0,0.0,0.0,0.0,0.0,0.0,0.0,0.0,0.0,0.0,0.0,0.0,0.0,0.0,0.0,0.0,0.0,0.0,0.0,0.0,0.0,0.0,0.0,0.0,0.0,0.0,0.0,0.0,0.0,0.0,0.0,0.0,0.0,0.0,0.0,-2.3727,-2.5134,-2.5333,-2.5825,0.0,0.0,-2.6502,-2.6447,-2.7746,-2.7251,-2.2703,0.0,0.0,0.0,0.0,0.0,0.0,0.0,0.0,0.0,0.0,0.0,0.0,0.0,0.0,0.0,0.0,0.0,0.0,0.0,0.0,0.0,0.0,0.0,0.0,0.0,0.0,0.0,0.0,0.0,0.0,0.0,0.0,0.0,0.0,0.0,0.0,0.0,0.0,0.0,0.0,0.0,0.0,0.0,0.0,0.0,0.0,0.0,0.0,0.0,0.0,0.0,0.0,0.0,-1.9407,-2.0094,-2.082,-2.1558,-2.2265,-2.2327,-2.1701,-2.05,-2.017,-1.9452,0.0,0.0,0.0,0.0,0.0,0.0,0.0,0.0,0.0,0.0,0.0,0.0,0.0,0.0,0.0,0.0,0.0,0.0,0.0,0.0,0.0,0.0,0.0,0.0,0.0,0.0,0.0,0.0,-2.0154,-2.0011,-1.9689,0.0,0.0,0.0,0.0,0.0,0.0,0.0,0.0,0.0,0.0,-2.4963,-2.5559,-2.6333,0.0,0.0,-2.7618,-2.775,-2.6759,-2.753,-2.7291,-2.4484,-2.3694,0.0,0.0,0.0,0.0,0.0,0.0,0.0,0.0,0.0,0.0,0.0,0.0,0.0,0.0,0.0,0.0,0.0,0.0,0.0,0.0,0.0,0.0,0.0,0.0,0.0,0.0,0.0,0.0,0.0,0.0,0.0,0.0,0.0,0.0,0.0,0.0,0.0,0.0,0.0,0.0,0.0,0.0,0.0,0.0,0.0,0.0,0.0,0.0,0.0,0.0,0.0,0.0,-1.9499,-2.0142,-2.0849,-2.1575,-2.2265,-2.2327,-2.1701,-2.039,-2.012,-1.9467,0.0,0.0,0.0,0.0,0.0,0.0,0.0,0.0,0.0,0.0,0.0,0.0,0.0,0.0,0.0,0.0,0.0,0.0,0.0,0.0,0.0,0.0,0.0,0.0,0.0,0.0,0.0,0.0,-2.0385,-2.0275,-1.9869,0.0,0.0,0.0,0.0,0.0,0.0,0.0,0.0,0.0,0.0,-2.5541,-2.5752,-2.6804,-2.7456,-2.7061,-2.7757,-2.7919,-2.6799,-2.6891,-2.6542,-2.4924,0.0,0.0,0.0,0.0,0.0,0.0,0.0,0.0,0.0,0.0,0.0,0.0,0.0,0.0,0.0,0.0,0.0,0.0,0.0,0.0,0.0,0.0,0.0,0.0,0.0,0.0,0.0,0.0,0.0,0.0,-1.5448,0.0,0.0,0.0,0.0,0.0,0.0,0.0,0.0,0.0,0.0,0.0,0.0,0.0,0.0,0.0,0.0,0.0,0.0,0.0,0.0,0.0,0.0,-1.9664,-2.0301,-2.0922,-2.1575,-2.2265,-2.2327,-2.1938,-2.1187,-2.0433,-1.9777,-1.929,0.0,0.0,0.0,0.0,0.0,0.0,0.0,0.0,0.0,0.0,0.0,0.0,0.0,0.0,0.0,0.0,0.0,0.0,0.0,0.0,0.0,0.0,0.0,0.0,0.0,0.0,-1.9764,-1.977,-1.9899,0.0,0.0,0.0,0.0,0.0,0.0,0.0,0.0,0.0,0.0,-2.448,-2.5163,-2.5807,-2.6538,-2.7251,-2.7874,-2.729,-2.6767,-2.673,-2.6048,-2.4887,0.0,0.0,0.0,0.0,0.0,0.0,0.0,0.0,0.0,0.0,0.0,0.0,0.0,0.0,0.0,0.0,0.0,0.0,0.0,0.0,0.0,0.0,0.0,0.0,0.0,0.0,0.0,-1.7642,-1.8022,0.0,0.0,0.0,0.0,0.0,0.0,0.0,0.0,0.0,0.0,0.0,-2.0871,-2.1778,0.0,0.0,0.0,0.0,0.0,0.0,0.0,0.0,0.0,0.0,0.0,0.0,-2.0373,-2.1072,-2.167,-2.204,-2.2282,-2.2327,-2.1955,-2.1237,-2.094,-2.0618,-2.0249,0.0,0.0,0.0,0.0,0.0,0.0,0.0,0.0,0.0,0.0,0.0,0.0,0.0,0.0,0.0,0.0,0.0,0.0,0.0,0.0,0.0,0.0,0.0,0.0,0.0,-2.0641,0.0,0.0,0.0,0.0,0.0,0.0,0.0,0.0,0.0,0.0,0.0,-2.3381,-2.3938,-2.5037,-2.5844,-2.6062,-2.6604,-2.7251,0.0,0.0,0.0,0.0,0.0,0.0,0.0,0.0,0.0,0.0,0.0,0.0,0.0,0.0,-2.5079,-2.2261,-2.175,-2.1733,-2.1751,0.0,0.0,0.0,0.0,0.0,0.0,0.0,0.0,0.0,0.0,0.0,0.0,0.0,0.0,-1.9266,0.0,-2.0011,0.0,0.0,0.0,0.0,0.0,0.0,0.0,0.0,-2.1835,-2.2991,-2.3499,-2.4831,-2.5221,0.0,-2.4349,-2.3354,0.0,0.0,0.0,0.0,0.0,0.0,0.0,0.0,-2.1452,-2.195,-2.2704,-2.2948,-2.27,-2.2677,-2.2327,-2.1583,-2.1516,-2.1305,-2.0962,-2.1092,-2.1043,0.0,0.0,0.0,0.0,0.0,0.0,0.0,0.0,0.0,0.0,0.0,0.0,0.0,0.0,0.0,0.0,0.0,0.0,0.0,0.0,0.0,0.0,0.0,-2.0908,0.0,0.0,0.0,0.0,0.0,0.0,0.0,0.0,0.0,-2.2401,-2.3342,-2.4159,-2.4485,-2.5302,-2.599,-2.6225,0.0,0.0,0.0,0.0,0.0,0.0,0.0,-2.7751,-2.73,-2.749,-2.7716,-2.7811,-2.8353,-2.8877,-2.9175,0.0,0.0,-2.4469,-2.3658,-2.3456,-2.3474,-2.3474,-2.3639,-2.4171,-2.3841,-2.3768,0.0,0.0,0.0,0.0,0.0,0.0,0.0,0.0,-1.9959,-2.0469,0.0,-2.1381,0.0,0.0,0.0,0.0,0.0,-2.0827,0.0,0.0,-2.5203,-2.6639,-2.6641,-2.7811,-2.8197,-2.7923,-2.7838,-2.7045,-2.5592,-2.2146,0.0,0.0,0.0,0.0,0.0,0.0,-2.2758,-2.2898,-2.396,-2.4173,-2.3517,-2.3471,-2.3078,-2.2349,-2.2136,-2.1882,-2.1512,-2.168,-2.177,-2.1734,-2.0949,0.0,0.0,0.0,0.0,0.0,0.0,0.0,0.0,0.0,0.0,0.0,0.0,0.0,0.0,0.0,0.0,0.0,0.0,0.0,0.0,-2.0838,0.0,0.0,0.0,0.0,0.0,0.0,0.0,0.0,0.0,0.0,-2.4245,-2.4225,-2.4466,-2.5245,0.0,0.0,0.0,0.0,-2.6643,-2.7343,-2.7242,-2.714,-2.7043,-2.7606,-2.8107,-2.8296,0.0,0.0,-2.9948,-3.0035,-3.0047,-2.9777,-2.9756,-2.9246,-2.8169,-2.7163,-2.6631,-2.6612,-2.6521,-2.6631,-2.6649,-2.641,-2.641,-2.3113,0.0,0.0,0.0,0.0,-2.1244,-2.2439,-2.3788,-2.5203,-2.5136,-2.4104,-2.4358,0.0,0.0,0.0,0.0,0.0,0.0,-2.4112,-2.599,-2.7817,-2.9145,-3.0097,-3.1314,-3.1582,-3.1021,-3.0441,-2.9715,-2.8755,-2.664,-2.472,-2.3048,0.0,0.0,0.0,0.0,-2.339,-2.4106,-2.4872,-2.5196,-2.4964,-2.44,-2.3727,-2.2975,-2.29,-2.2901,-2.3025,-2.3087,-2.2971,-2.263,-2.2392,0.0,0.0,0.0,0.0,0.0,0.0,0.0,0.0,0.0,0.0,0.0,0.0,0.0,0.0,0.0,0.0,0.0,0.0,0.0,-2.1528,-2.221,-2.2562,0.0,0.0,0.0,0.0,0.0,0.0,0.0,0.0,0.0,-2.6717,-2.6255,-2.5967,0.0,0.0,-2.7166,-2.7374,-2.7841,-2.8401,-2.9125,0.0,0.0,0.0,-3.0424,-3.0494,-3.0526,-3.1377,-3.2075,-3.2219,-3.2845,-3.3161,-3.2678,-3.2265,-3.1823,-3.1256,-2.9622,-2.8429,-2.826,-2.7879,-2.7677,-2.8136,-2.7457,-2.7006,-2.6967,-2.4318,-2.2912,-2.2569,-2.2997,-2.392,-2.5069,-2.6362,-2.7583,-2.76,-2.6797,-2.7066,-2.5644,-2.3041,-2.2772,0.0,0.0,0.0,-2.6778,-2.8917,-3.0687,-3.2167,-3.3271,-3.4263,-3.433,-3.3592,-3.2848,-3.1968,-3.097,-3.004,-2.8471,-2.6292,0.0,0.0,-2.4605,-2.5009,-2.5309,-2.5605,-2.6186,-2.6375,-2.6091,-2.4966,-2.4076,-2.3427,-2.3392,-2.3544,-2.3896,-2.3878,-2.3777,-2.3474,-2.318,-2.2539,0.0,0.0,0.0,0.0,0.0,0.0,0.0,0.0,0.0,0.0,0.0,-2.0299,0.0,0.0,0.0,0.0,-2.1426,-2.199,-2.2922,-2.3254,0.0,0.0,0.0,0.0,0.0,0.0,0.0,-2.6236,-2.7072,-2.7783,-2.8313,-2.8525,-2.8255,-2.7255,-2.7822,-2.8426,-2.8791,0.0,-3.0234,-3.0958,-3.1236,-3.1465,-3.1829,-3.1936,-3.2115,-3.2508,-3.3202,-3.3778,-3.3939,-3.4472,-3.4715,-3.4349,-3.377,-3.3208,-3.2834,-3.132,-2.9941,-2.9554,-2.8833,-2.8484,-2.8925,-2.8316,-2.8096,-3.0105,-2.89,-2.6402,-2.5247,-2.5124,-2.587,-2.6701,-2.7533,-2.8302,-2.8675,-2.8871,-2.9448,-2.8652,-2.6797,-2.6243,0.0,-2.7055,-2.8299,-2.9713,-3.1196,-3.3583,-3.5133,-3.6,-3.6468,-3.6333,-3.5543,-3.4912,-3.3846,-3.251,-3.2442,-3.1811,-3.0445,-2.8828,-2.7624,-2.6826,-2.7734,-2.7912,-2.7305,-2.7843,-2.7752,-2.6986,-2.5404,-2.4349,-2.3862,-2.3789,-2.3878,-2.417,-2.419,-2.419,-2.4171,-2.3511,-2.3051,-2.2939,0.0,0.0,0.0,0.0,0.0,0.0,0.0,0.0,0.0,0.0,0.0,0.0,0.0,0.0,0.0,-2.2822,0.0,-2.4582,-2.4193,0.0,0.0,0.0,-2.4971,-2.6617,-2.6928,-2.7314,-2.8102,0.0,0.0,-2.941,0.0,-3.0929,-2.8602,-2.8871,-2.9602,-3.0475,-3.1212,-3.1981,-3.2661,-3.2604,-3.2392,-3.2464,-3.2687,-3.3197,-3.4008,-3.4529,-3.4756,-3.4959,-3.5049,-3.5069,-3.4846,-3.427,-3.3542,-3.3047,-3.2154,-3.1414,-3.0388,-2.9627,-2.9108,-2.9173,-2.9206,-2.9282,-3.1424,-3.0758,-3.0105,-2.8863,-2.7485,-2.9065,-2.9862,-3.0115,-3.2117,-3.2197,-3.0834,-3.0984,-3.0253,-2.8891,-2.919,-2.9699,-3.0387,-3.1185,-3.2633,-3.4484,-3.4603,-3.5361,-3.653,-3.6111,-3.5816,-3.5594,-3.5436,-3.4878,-3.3998,-3.3964,-3.3508,-3.2618,-3.2021,-3.0466,-2.8085,-2.8341,-2.8672,-2.9017,-2.9716,-2.9588,-2.8471,-2.6899,-2.571,-2.5027,-2.4405,-2.4132,-2.4208,-2.419,-2.419,-2.419,-2.4006,-2.3639,-2.3033,-2.263,0.0,0.0,0.0,0.0,0.0,0.0,0.0,0.0,0.0,-2.1507,-2.1574,0.0,-2.2604,0.0,-2.4323,-2.5405,-2.5763,-2.628,0.0,0.0,-2.7484,-2.7984,-2.8461,-2.9679,-3.0568,-3.0756,-3.1506,-3.1987,-3.2006,-3.2352,-3.2391,-3.1775,-3.1333,-3.1371,-3.2179,-3.2449,-3.2897,-3.3659,-3.4063,-3.439,-3.4224,-3.428,-3.429,-3.4794,-3.4944,-3.5035,-3.5069,-3.5011,-3.4693,-3.398,-3.3564,-3.309,-3.2446,-3.1655,-3.1091,-3.075,-3.0309,-2.9987,-3.0154,-2.98,-2.9494,-3.2277,-3.1738,-3.1486,-3.0545,-2.929,-3.0359,-3.1109,-3.1676,-3.3092,-3.3354,-3.2825,-3.2492,-3.2003,-3.1375,-3.1689,-3.2033,-3.2422,-3.3108,-3.4207,-3.5625,-3.5934,-3.6439,-3.7208,-3.6793,-3.6641,-3.662,-3.6299,-3.6096,-3.6011,-3.5673,-3.5131,-3.4387,-3.3902,-3.2466,-3.0212,-2.9899,-3.0062,-3.0617,-3.0541,-2.9777,-2.8239,-2.7171,-2.6209,-2.5421,-2.4612,-2.419,-2.419,-2.419,-2.419,-2.419,-2.419,-2.4006,-2.3566,-2.3199,-2.2813,0.0,0.0,0.0,0.0,0.0,0.0,0.0,0.0,0.0,0.0,0.0,-2.3822,0.0,-2.5568,-2.65,-2.6677,-2.7238,-2.7918,-2.8766,-2.9315,-2.9908,-3.0713,-3.166,-3.223,-3.2237,-3.2968,-3.3474,-3.3487,-3.3814,-3.391,-3.3526,-3.3083,-3.2833,-3.2968,-3.3526,-3.3987,-3.3699,-3.4125,-3.431,-3.3881,-3.3639,-3.3582,-3.3733,-3.375,-3.3805,-3.3927,-3.4056,-3.3925,-3.332,-3.2923,-3.2509,-3.1855,-3.1063,-3.0478,-3.0338,-3.0149,-3.0048,-3.0168,-2.9927,-2.9746,-3.278,-3.2277,-3.18,-3.126,-3.0696,-3.0722,-3.1402,-3.2646,-3.2758,-3.3492,-3.4629,-3.3988,-3.3754,-3.3754,-3.3754,-3.3754,-3.3815,-3.4347,-3.5016,-3.5784,-3.7085,-3.7713,-3.7803,-3.7894,-3.7928,-3.7872,-3.7229,-3.7263,-3.7872,-3.7161,-3.6451,-3.5757,-3.4912,-3.3897,-3.2719,-3.1966,-3.169,-3.1967,-3.0874,-2.9482,-2.7791,-2.7082,-2.6374,-2.5566,-2.4777,-2.43,-2.419,-2.419,-2.419,-2.419,-2.419,-2.419,-2.419,-2.3547,-2.318,0.0,-2.2648,0.0,0.0,0.0,0.0,0.0,0.0,0.0,0.0,-2.4653,-2.5039,-2.58,-2.6756,-2.7393,-2.7509,-2.7853,-2.865,-3.0126,-3.0477,-3.1193,-3.2679,-3.3006,-3.3122,-3.3218,-3.3903,-3.4364,-3.441,-3.5045,-3.518,-3.4507,-3.4334,-3.3987,-3.3372,-3.416,-3.4449,-3.3179,-3.3408,-3.3427,-3.265,-3.2334,-3.2353,-3.2278,-3.239,-3.2275,-3.2626,-3.294,-3.3077,-3.2743,-3.2231,-3.1732,-3.1269,-3.0577,-3.0041,-2.9905,-2.9872,-2.9857,-2.9822,-2.9883,-2.998,-3.3018,-3.2905,-3.2805,-3.2177,-3.1248,-3.1266,-3.177,-3.264,-3.34,-3.4301,-3.5305,-3.5205,-3.513,-3.5115,-3.513,-3.513,-3.513,-3.5228,-3.5706,-3.6398,-3.6722,-3.7211,-3.7786,-3.7858,-3.7885,-3.7889,-3.7753,-3.777,-3.7905,-3.7144,-3.6705,-3.6518,-3.5165,-3.4641,-3.4871,0.0,0.0,0.0,-3.1538,-3.0921,-3.0552,-2.8557,-2.7134,-2.6392,-2.5603,0.0,-2.4245,-2.419,-2.419,-2.419,-2.419,0.0,0.0,0.0,0.0,0.0,0.0,0.0,0.0,0.0,0.0,0.0,-2.6086,-2.6151,-2.6432,-2.6723,-2.6982,-2.7238,-2.8088,-2.8664,-2.8759,-2.9459,-3.0021,-3.0348,-3.1013,-3.184,-3.2795,-3.3519,-3.4211,-3.4936,-3.5147,-3.5243,-3.5238,-3.5411,-3.543,-3.5161,-3.5257,-3.4911,-3.4026,-3.366,-3.3564,-3.3795,-3.3467,-3.3037,-3.2799,-3.2732,-3.2685,-3.2746,-3.2746,-3.2727,-3.2768,-3.2801,-3.2666,-3.2064,-3.1282,-3.072,-3.0611,-3.0439,-3.0299,-3.0273,-3.026,-3.0202,-2.9984,-2.9984,-3.0042,-3.3081,0.0,-3.2767,-3.2164,0.0,-3.1631,-3.2058,-3.2601,-3.3123,-3.4133,-3.5489,-3.5489,-3.5489,-3.5489,-3.5489,-3.5489,-3.5489,-3.5489,-3.5689,-3.611,-3.6903,-3.7238,-3.7286,-3.8069,-3.8434,-3.8447,-3.8447,-3.8616,-3.892,-3.8227,-3.7686,-3.733,-3.618,-3.5442,-3.5049,-3.4167,-3.3219,-3.2219,-3.2201,-3.1647,-3.0534,-2.9082,-2.7981,-2.7181,0.0,0.0,0.0,0.0,0.0,0.0,0.0,0.0,0.0,0.0,0.0,-2.5933,-2.5988,-2.6153,-2.6576,-2.6612,-2.6796,-2.7224,-2.7738,-2.7917,-2.7624,-2.8106,-2.8485,-2.8624,-2.9179,-2.9505,-2.9545,-3.0074,-3.0583,-3.0987,-3.1429,-3.2006,-3.2814,-3.3673,-3.4351,-3.4801,-3.5257,-3.5507,-3.5507,-3.5507,-3.5103,-3.443,-3.4988,-3.5045,-3.3853,-3.3564,-3.3622,-3.3583,-3.3237,-3.291,-3.2891,-3.2891,-3.2891,-3.2872,-3.2564,-3.2333,-3.2295,-3.1948,-3.1525,-3.1121,-3.0686,-3.0386,-3.0398,-3.0398,-3.0398,-3.0398,-3.0398,-3.0367,-3.0209,-3.0196,-3.0222,-3.3081,-3.3031,-3.2566,-3.1989,-3.1442,-3.1795,-3.2198,-3.2651,0.0,0.0,0.0,-3.5489,-3.5489,-3.5489,-3.5489,-3.5489,-3.5489,-3.5489,-3.5489,-3.5614,-3.7105,-3.75,-3.6969,-3.8472,-3.9177,-3.9191,-3.9191,-3.9495,-4.0037,-3.9326,-3.87,-3.8058,-3.7229,-3.6055,-3.479,-3.4466,-3.3762,-3.2552,-3.2788,-3.1992,-3.0071,-2.9416,-2.874,-2.8026,-2.6594,-2.577,-2.5623,-2.4979,-2.463,-2.4612,-2.463,-2.4924,-2.5568,-2.5623,-2.597,-2.6741,-2.6814,-2.6888,-2.7016,-2.7016,-2.7331,-2.8021,-2.8922,-2.9175,-2.8558,-2.912,-2.9589,-2.9799,-2.9988,-3.0133,-3.0266,-3.0516,-3.0975,-3.1833,-3.1929,-3.2237,-3.3045,-3.373,-3.4268,-3.4468,-3.5103,-3.5507,-3.5507,-3.5507,-3.493,-3.3757,-3.4584,-3.4949,-3.3603,-3.3564,-3.3526,-3.2852,-3.2622,-3.2679,-3.2872,-3.2891,-3.2891,-3.2872,-3.2372,-3.1929,-3.1814,-3.1244,-3.0744,-3.0814,-3.0648,-3.0641,-3.0456,-3.0398,-3.0398,-3.0398,-3.0398,-3.0398,-3.0398,-3.0398,-3.0379,-3.3081,-3.3068,-3.2993,-3.2353,-3.1386,-3.1486,-3.1889,-3.273,-3.4368,-3.521,-3.5489,-3.5489,-3.5489,-3.5489,-3.5489,-3.5489,-3.5489,-3.5489,-3.5489,0.0,-3.709,-3.7749,-3.7719,-3.9211,-3.9952,-3.9935,-3.9918,-3.9986,-4.0036,-3.936,-3.892,-3.8684,-3.7466,-3.6349,-3.5526,-3.538,-3.5176,-3.4738,-3.3195,-3.2184,-3.1639,-3.0206,-2.9246,-2.8828,-2.7934,-2.7108,-2.6447,-2.63,-2.6264,-2.6282,-2.6264,-2.6319,-2.6429,-2.6429,-2.6796,-2.7548,-2.7622,-2.7934,-2.8613,-2.8686,-2.8795,-2.9145,-2.9476,-2.9691,-2.9737,-2.9848,-3.0018,-3.0273,-3.0349,-3.0662,-3.1335,-3.1494,-3.1833,-3.2564,-3.2718,-3.3064,-3.3814,-3.4083,-3.4468,-3.5103,-3.5411,-3.5507,-3.5507,-3.5507,-3.5141,-3.4391,-3.4737,-3.5103,-3.4141,-3.3449,-3.2776,-3.2083,-3.1872,-3.216,-3.291,-3.291,-3.3045,-3.2891,-3.2872,-3.2737,-3.2737,-3.2263,-3.1782,-3.1525,-3.166,-3.1468,-3.066,-3.0398,-3.0436,-3.0436,-3.0398,-3.0398,-3.0398,-3.0398,-3.0398,-3.3081,-3.3081,-3.3081,-3.2591,-3.1896,-3.2298,-3.2995,-3.3929,-3.5026,-3.5489,-3.5489,-3.5489,-3.5489,-3.5489,-3.5489,-3.5489,-3.5489,-3.5489,-3.5489,-3.5614,-3.6637,-3.7392,-3.7851,-3.8959,-3.9649,-4.0054,-4.0087,-4.0087,-4.0054,-3.9732,-3.9394,-3.892,-3.7526,-3.6588,-3.6265,-3.6248,-3.5802,-3.4852,-3.4197,-3.3335,-3.2232,-3.1733,-3.0802,-2.9359,-2.8753,-2.8062,-2.7273,-2.6833,-2.6612,-2.6612,-2.6612,-2.6814,-2.7218,-2.7255,-2.7603,-2.8393,-2.8466,-2.8613,-2.8957,-2.9134,-2.9267,-2.9392,-2.9589,-2.9988,-3.0666,-3.028,-3.0122,-3.0386,-3.0814,-3.1256,-3.1679,-3.2083,-3.2506,-3.2872,-3.2891,-3.3064,-3.3449,-3.3949,-3.4372,-3.4776,-3.5218,-3.5507,-3.5507,-3.5507,-3.518,-3.443,-3.4603,-3.4622,-3.4257,-3.3891,-3.3487,-3.316,-3.3449,-3.3891,-3.4237,-3.4314,-3.4314,-3.4314,-3.391,-3.3641,-3.3583,-3.3276,-3.2699,-3.1968,-3.2384,-3.223,-3.0814,-3.0833,-3.0859,-3.0456,-3.0398,-3.0398,-3.0398,-3.0398,-3.0398,-3.3081,-3.3081,-3.3081,-3.278,-3.2277,-3.3051,-3.3872,-3.4587,-3.521,-3.5489,-3.5489,-3.5489,-3.5489,-3.5489,-3.5489,-3.5489,-3.5489,-3.5489,-3.5489,-3.5534,-3.6265,-3.7055,-3.7826,-3.8572,-3.9345,-4.002,-4.0087,-4.0087,-4.0087,-4.0087,-3.9715,-3.8937,-3.7844,-3.7234,-3.7024,-3.7024,-3.6469,-3.5367,-3.545,-3.4725,-3.3017,-3.2973,-3.2146,-3.0677,-2.9899,-2.9237,-2.8613,-2.7989,-2.7603,-2.7398,-2.742,-2.7603,-2.8026,-2.8062,-2.8356,-2.8943,-2.8975,-2.9085,-2.9274,-2.9709,-2.9954,-3.0035,-3.0226,-3.0715,-3.1469,-3.1059,-3.0737,-3.1001,-3.1621,-3.2064,-3.2372,-3.2833,-3.3276,-3.343,-3.3487,-3.3603,-3.3583,-3.4103,-3.4507,-3.4584,-3.5103,-3.5507,-3.5507,-3.5507,-3.5257,-3.4718,-3.4353,-3.4237,-3.443,-3.4487,-3.4487,-3.4564,-3.493,-3.5141,-3.5411,-3.543,-3.5411,-3.5507,-3.493,-3.4564,-3.4449,-3.4308,-3.3731,-3.2795,-3.3134,-3.2904,-3.1295,-3.1179,-3.1237,-3.0609,-3.0398,-3.0398,-3.0398,-3.0398,-3.0398,-3.3068,-3.3081,-3.3068,-3.2746,-3.2336,-3.3122,-3.3513,-3.3747,-3.4901,-3.5489,-3.5489,-3.5504,-3.5519,-3.5489,-3.5489,-3.5489,-3.5489,-3.5489,-3.5489,-3.5534,-3.628,-3.7017,-3.7828,-3.855,-3.9345,-4.002,-4.0087,-4.0087,-4.0087,-4.0087,-3.9715,-3.9056,-3.8819,-3.8418,-3.7877,-3.7802,-3.7721,-3.7569,-3.6941,-3.5998,-3.4588,-3.3191,-3.2746,-3.3405,-3.1928,-3.1146,-3.0925,-3.098,-3.0613,-2.9947,-2.98,-2.9549,-2.8998,-2.8906,-2.8938,-2.903,-2.9012,-2.9287,-3.0068,-3.1043,-3.1603,-3.1921,-3.2026,-3.2294,-3.2691,-3.2654,-3.2635,-3.2699,-3.2756,-3.3103,-3.3833,-3.4026,-3.4353,-3.4949,-3.5084,-3.5276,-3.5161,-3.5334,-3.5391,-3.5391,-3.5411,-3.5507,-3.5507,-3.5507,-3.5449,-3.5295,-3.4718,-3.4545,-3.5103,-3.5238,-3.5238,-3.518,-3.4891,-3.4776,-3.5295,-3.5507,-3.5507,-3.5507,-3.5449,-3.5276,-3.5218,-3.5199,-3.4988,-3.3814,-3.3987,-3.3545,-3.2275,-3.166,-3.1429,-3.0821,-3.0513,-3.0398,-3.0398,-3.0398,-3.0398,-3.2867,-3.2616,-3.293,-3.3127,-3.3165,-3.3682,-3.4041,-3.4353,-3.5165,-3.5489,-3.5564,-3.5908,-3.5878,-3.5504,-3.5489,-3.5489,-3.5489,-3.5489,-3.5489,-3.5519,-3.5814,-3.6585,-3.7737,-3.8058,-3.8858,-4.002,-4.0087,-4.0087,-4.0087,-4.0087,-3.9918,-3.9614,-3.9225,-3.8851,-3.8577,-3.8564,-3.8357,-3.792,-3.805,-3.7547,-3.6324,-3.4691,-3.3654,-3.339,-3.2582,-3.1861,-3.1458,-3.1403,-3.1244,-3.0956,-3.0895,-3.0766,-3.0441,-3.0417,-3.0411,-3.043,-3.043,-3.0558,-3.0889,-3.1469,-3.1859,-3.1967,-3.2294,-3.2752,-3.3379,-3.3574,-3.3853,-3.4295,-3.3987,-3.3833,-3.418,-3.4661,-3.5122,-3.5449,-3.5507,-3.5507,-3.5507,-3.5507,-3.5507,-3.5507,-3.5507,-3.5507,-3.5507,-3.5507,-3.5507,-3.5488,-3.5141,-3.5141,-3.5468,-3.5507,-3.5507,-3.5468,-3.518,-3.5141,-3.5449,-3.5507,-3.5507,-3.5507,-3.5507,-3.5507,-3.5507,-3.5507,-3.5199,-3.4353,-3.4641,-3.4237,-3.2718,-3.241,-3.216,-3.1352,-3.0609,-3.0398,-3.0398,-3.0398,-3.0398,-3.2842,-3.2554,-3.2905,-3.32,-3.3476,-3.4078,-3.4506,-3.4942,-3.5538,-3.5678,-3.5579,-3.6193,-3.6118,-3.5594,-3.5684,-3.5774,-3.5759,-3.5594,-3.5489,-3.5489,-3.5489,-3.6228,-3.7414,-3.7715,-3.8489,-3.9615,-4.0003,-4.0087,-4.0087,-4.0087,-4.0087,-3.9986,-3.9546,-3.9294,-3.9295,-3.9306,-3.9022,-3.8573,-3.8858,-3.8679,-3.794,-3.6317,-3.4976,-3.4163,-3.3578,-3.2999,-3.2412,-3.2173,-3.1916,-3.1765,-3.174,-3.1623,-3.1403,-3.1403,-3.1403,-3.1421,-3.1604,-3.1733,-3.1733,-3.2138,-3.2372,-3.2486,-3.2864,-3.3382,-3.4015,-3.4395,-3.482,-3.5295,-3.493,-3.4564,-3.4622,-3.5122,-3.5468,-3.5507,-3.5507,-3.5507,-3.5507,-3.5507,-3.5507,-3.5507,-3.5507,-3.5507,-3.5507,-3.5507,-3.5565,-3.5834,-3.5661,-3.5641,-3.5705,-3.568,-3.5507,-3.5507,-3.5507,-3.5488,-3.5507,-3.5507,-3.5507,-3.5507,-3.5507,-3.5507,-3.5507,-3.5507,-3.5468,-3.493,-3.5315,-3.4968,-3.3603,-3.3179,-3.2449,-3.1583,-3.084,-3.0398,-3.0398,-3.0398,-3.0398,-3.3056,-3.3031,-3.3056,-3.2976,-3.2975,-3.3923,-3.4582,-3.51,-3.603,-3.6112,-3.5618,-3.6207,-3.6133,-3.5594,-3.6118,-3.6417,-3.6312,-3.5774,-3.5489,-3.5489,-3.5489,-3.5946,-3.6682,-3.742,-3.8187,-3.9059,-3.9783,-4.0087,-4.0087,-4.0087,-4.0087,-4.007,-3.9986,-4.0003,-4.0003,-4.0002,-3.9986,-3.9817,-3.9362,-3.9171,-3.9295,-3.7819,-3.6825,-3.6368,-3.5465,-3.4789,-3.4679,-3.4082,-3.3376,-3.2592,-3.2617,-3.2279,-3.1581,-3.151,-3.1513,-3.1531,-3.2155,-3.2559,-3.2632,-3.3217,-3.3696,-3.4008,-3.4233,-3.468,-3.4859,-3.5162,-3.5397,-3.5512,-3.5526,-3.543,-3.5526,-3.5507,-3.5507,-3.5507,-3.5507,-3.5507,-3.5507,-3.5507,-3.5507,-3.5507,-3.5507,-3.5565,-3.5545,-3.5507,-3.5935,-3.6315,-3.6026,-3.5776,-3.6257,-3.5968,-3.5565,-3.5507,-3.5507,-3.5507,-3.5507,-3.5507,-3.5507,-3.5507,-3.5507,-3.5507,-3.5507,-3.5488,-3.5449,-3.5416,-3.5468,-3.5103,-3.4295,-3.3314,-3.2218,-3.1352,-3.0744,-3.0398,-3.0398,-3.0398,-3.0398,-3.2855,-3.2491,-3.2139,-3.2691,-3.3865,-3.4231,-3.4968,-3.5964,-3.6325,-3.6119,-3.5688,-3.6224,-3.6342,-3.6163,-3.6387,-3.6252,-3.5848,-3.5594,-3.5489,-3.5489,-3.5489,-3.5918,-3.666,-3.7419,-3.8179,-3.8925,-3.975,-4.0087,-4.0087,-4.0087,-4.0087,-4.0087,-4.0087,-4.0087,-4.0087,-4.0087,-4.0087,-4.0054,-3.9817,-3.9545,-3.9307,-3.8814,-3.8309,-3.7699,-3.6495,-3.5844,-3.5844,-3.555,-3.5276,-3.4989,-3.4467,-3.4009,-3.3697,-3.322,-3.2926,-3.2963,-3.322,-3.3366,-3.3411,-3.3795,-3.4093,-3.4223,-3.4675,-3.5,-3.5122,-3.5354,-3.5685,-3.6128,-3.6262,-3.6469,-3.6757,-3.6161,-3.5507,-3.5507,-3.5507,-3.5545,-3.5507,-3.5507,-3.5507,-3.5507,-3.5507,-3.568,-3.6161,-3.6276,-3.6603,-3.7257,-3.6796,-3.6507,-3.6488,-3.6012,-3.5545,-3.5507,-3.5507,-3.5507,-3.5507,-3.5507,-3.5507,-3.5507,-3.5507,-3.5507,-3.5507,-3.5507,-3.5468,-3.5449,-3.5488,-3.5238,-3.4468,-3.3372,-3.2218,-3.0975,-3.0398,-3.0398,-3.0398,-3.0417,-3.0398,-3.2742,-3.219,-3.1813,-3.258,-3.4032,-3.4279,-3.5208,-3.6484,-3.6944,-3.6603,-3.6075,-3.6477,-3.6567,-3.6222,-3.6178,-3.5953,-3.5534,-3.5489,-3.5489,-3.5489,-3.5489,-3.5784,-3.6338,-3.7333,-3.8056,-3.8689,-3.9615,-4.0087,-4.0087,-4.0087,-4.0087,-4.0087,-4.0087,-4.0087,-4.0087,-4.0087,-4.0087,-4.0087,-4.0087,-3.9817,-3.9423,-3.9634,-3.9428,-3.8667,-3.7863,-3.7184,-3.6725,-3.645,-3.6287,-3.6233,-3.5717,-3.5432,-3.5358,-3.4623,-3.4339,-3.4523,-3.4082,-3.4064,-3.4485,-3.4358,-3.433,-3.4596,-3.4906,-3.5181,-3.5446,-3.5718,-3.6262,-3.6873,-3.7123,-3.743,-3.7623,-3.6988,-3.6219,-3.6026,-3.6142,-3.6045,-3.5589,-3.5743,-3.5892,-3.5911,-3.5647,-3.6007,-3.6815,-3.6796,-3.7276,-3.8238,-3.7661,-3.7219,-3.7373,-3.6603,-3.5892,-3.5911,-3.5935,-3.5795,-3.5738,-3.5776,-3.5661,-3.5641,-3.5507,-3.5507,-3.5507,-3.5507,-3.5507,-3.5507,-3.5391,-3.518,-3.4507,-3.343,-3.216,-3.0794,-3.0398,-3.0398,-3.0417,-3.0448,-3.0471,-3.2729,-3.219,-3.219,-3.2723,-3.3724,-3.4276,-3.526,-3.6739,-3.779,-3.7436,-3.652,-3.6993,-3.6522,-3.5744,-3.5609,-3.5519,-3.5504,-3.5489,-3.5489,-3.5489,-3.5489,-3.5504,-3.5664,-3.7103,-3.7936,-3.8204,-3.943,-4.007,-4.0087,-4.0087,-4.0087,-4.0087,-4.0087,-4.0087,-4.0087,-4.0087,-4.0087,-4.0087,-4.0087,-4.0104,-4.0102,-4.0331,-4.0135,-3.9549,-3.953,-3.8964,-3.7606,-3.6853,-3.6505,-3.6479,-3.634,-3.6303,-3.6101,-3.5459,-3.5339,-3.5752,-3.4761,-3.478,-3.5827,-3.505,-3.4881,-3.5385,-3.5361,-3.5692,-3.6296,-3.6577,-3.7084,-3.7815,-3.8007,-3.8084,-3.8161,-3.8084,-3.7642,-3.6949,-3.7296,-3.7103,-3.6219,-3.6276,-3.6719,-3.6642,-3.6219,-3.6334,-3.7315,-3.7488,-3.7719,-3.8738,-3.8565,-3.82,-3.8604,-3.7642,-3.6834,-3.6719,-3.6719,-3.6584,-3.6315,-3.607,-3.593,-3.5795,-3.5603,-3.5507,-3.5507,-3.5507,-3.5507,-3.5507,-3.5507,-3.5257,-3.4199,-3.3141,-3.216,-3.1044,-3.0794,-3.0467,-3.0448,-3.0491,-3.0527,-3.2516,-3.1757,-3.2333,-3.3449,-3.472,-3.5278,-3.6375,-3.7701,-3.7754,-3.7225,-3.6589,-3.6186,-3.5863,-3.5594,-3.5489,-3.5489,-3.5489,-3.5489,-3.5489,-3.5489,-3.5489,-3.5504,-3.5797,-3.7071,-3.8394,-3.9311,-3.9834,-4.0087,-4.0087,-4.0087,-4.0087,-4.0087,-4.0087,-4.0087,-4.0087,-4.0087,-4.0087,-4.0087,-4.0087,-4.0087,-4.0153,-4.0436,-4.0453,-4.024,-4.002,-3.9625,-3.9148,-3.8377,-3.7973,-3.79,-3.7404,-3.689,-3.6376,-3.6046,-3.6046,-3.6211,-3.5862,-3.5661,-3.6168,-3.6273,-3.6242,-3.6597,-3.6842,-3.7175,-3.7417,-3.7521,-3.7988,-3.8738,-3.8911,-3.9084,-3.9565,-3.9719,-3.9065,-3.7757,-3.7834,-3.793,-3.7334,-3.7392,-3.7565,-3.7584,-3.7373,-3.7757,-3.8527,-3.8507,-3.8815,-3.9719,-3.9373,-3.9084,-3.9027,-3.8373,-3.7642,-3.7603,-3.7565,-3.7392,-3.6969,-3.6622,-3.6411,-3.6007,-3.568,-3.5507,-3.5507,-3.5507,-3.5507,-3.5449,-3.5449,-3.4988,-3.393,-3.291,-3.1948,-3.1333,-3.0948,-3.0729,-3.0568,-3.0621,-3.079,-3.2654,-3.2167,-3.2852,-3.3976,-3.5391,-3.608,-3.7155,-3.8255,-3.8217,-3.7644,-3.6873,-3.6417,-3.5938,-3.5594,-3.5489,-3.5489,-3.5489,-3.5489,-3.5489,-3.5489,-3.5489,-3.5644,-3.6061,-3.7472,-3.883,-3.9885,-4.0087,-4.0087,-4.0087,-4.0087,-4.0087,-4.0087,-4.0087,-4.0087,-4.0087,-4.0087,-4.0087,-4.0087,-4.0087,-4.0087,-4.0251,-4.0742,-4.0919,-4.0618,-4.0419,-4.0217,-3.9882,-3.9129,-3.8707,-3.8634,-3.8193,-3.7698,-3.7221,-3.6945,-3.6872,-3.7037,-3.6688,-3.6523,-3.7069,-3.7113,-3.726,-3.7535,-3.7844,-3.8166,-3.8373,-3.8469,-3.8854,-3.9565,-3.9738,-3.9965,-4.0354,-4.0469,-3.9969,-3.9084,-3.8969,-3.8796,-3.8565,-3.818,-3.8219,-3.8277,-3.8161,-3.8623,-3.9373,-3.9431,-3.9662,-4.02,-4.0065,-3.9738,-3.9565,-3.9046,-3.87,-3.8488,-3.8469,-3.8104,-3.7507,-3.7161,-3.6911,-3.6334,-3.5724,-3.5584,-3.5507,-3.5507,-3.5488,-3.5295,-3.5238,-3.4814,-3.3872,-3.2833,-3.1891,-3.1506,-3.1198,-3.0775,-3.0625,-3.1097,-3.1381,-3.3129,-3.3199,-3.376,-3.4641,-3.5669,-3.6636,-3.7621,-3.8397,-3.8837,-3.8346,-3.7373,-3.697,-3.6492,-3.5669,-3.5489,-3.5489,-3.5504,-3.5639,-3.5579,-3.5564,-3.5724,-3.6099,-3.7018,-3.8443,-3.9612,-4.029,-4.0273,-4.0206,-4.0257,-4.0138,-4.0087,-4.0087,-4.0087,-4.0087,-4.0087,-4.0087,-4.0087,-4.0087,-4.0087,-4.0087,-4.0171,-4.1161,-4.1474,-4.0784,-4.0981,-4.0873,-4.0267,-3.9405,-3.8799,-3.8726,-3.8615,-3.8542,-3.8505,-3.7936,-3.7881,-3.8395,-3.7221,-3.7422,-3.8103,-3.7941,-3.7731,-3.8301,-3.8401,-3.845,-3.9219,-3.9373,-3.9604,-4.0258,-4.0373,-4.0431,-4.0469,-4.0489,-4.0412,-4.0469,-4.02,-3.9931,-3.9392,-3.87,-3.8757,-3.9084,-3.8738,-3.87,-4.0181,-3.9796,-3.9912,-4.0239,-4.0431,-4.0354,-4.0239,-3.9777,-3.9454,-3.9354,-3.9335,-3.8854,-3.8257,-3.7661,-3.7334,-3.6507,-3.5878,-3.5584,-3.5507,-3.5507,-3.5507,-3.5295,-3.5103,-3.4603,-3.4026,-3.316,-3.2468,-3.2122,-3.1621,-3.0929,-3.0824,-3.1207,-3.1738,-3.4014,-3.3747,-3.5369,-3.642,-3.7125,-3.7796,-3.815,-3.837,-3.8023,-3.7569,-3.6738,-3.6222,-3.5923,-3.5519,-3.5489,-3.5489,-3.5594,-3.5968,-3.5923,-3.5704,-3.6511,-3.7389,-3.8472,-3.9856,-4.0963,-4.1525,-4.1068,-4.0916,-4.0865,-4.0324,-4.0087,-4.0087,-4.0087,-4.0087,-4.0087,-4.0087,-4.0087,-4.0087,-4.0087,-4.0138,-4.0286,-4.1196,-4.1679,-4.1558,-4.1814,-4.1831,-4.1515,-4.0312,-3.9283,-3.8744,-3.8707,-3.8707,-3.8726,-3.8487,-3.845,-3.8579,-3.8377,-3.8157,-3.8582,-3.8838,-3.901,-3.9248,-3.9488,-3.9931,-4.0123,-4.0181,-4.0277,-4.0489,-4.0489,-4.0489,-4.0489,-4.0489,-4.0489,-4.0489,-4.0489,-4.0392,-4.0142,-4.0008,-3.995,-4.0085,-3.9912,-4.0046,-4.0219,-4.0315,-4.0219,-4.0431,-4.0489,-4.0489,-4.0412,-4.0373,-3.9988,-4.0123,-4.0046,-3.9546,-3.8988,-3.8334,-3.7623,-3.6719,-3.6051,-3.5545,-3.5507,-3.5507,-3.5507,-3.543,-3.5372,-3.4988,-3.4584,-3.3936,-3.341,-3.2716,-3.1775,-3.101,-3.0858,-3.1074,-3.1719,-3.4766,-3.4979,-3.6547,-3.7469,-3.7907,-3.8495,-3.8691,-3.8389,-3.7985,-3.73,-3.6537,-3.6148,-3.5774,-3.5519,-3.5489,-3.5489,-3.5564,-3.5893,-3.5998,-3.6385,-3.8025,-3.903,-3.9706,-4.0921,-4.1883,-4.2168,-4.1559,-4.1238,-4.1052,-4.0443,-4.0121,-4.0087,-4.0087,-4.0087,-4.0087,-4.0087,-4.0087,-4.0087,-4.0121,-4.0154,-4.0497,-4.1313,-4.1895,-4.2083,-4.2287,-4.2194,-4.1699,-4.0868,-4.0042,-3.9331,-3.8927,-3.8836,-3.9148,-3.8872,-3.8854,-3.9111,-3.8909,-3.8732,-3.8923,-3.9308,-3.9645,-3.9821,-4.0267,-4.0457,-4.0469,-4.0489,-4.0489,-4.0489,-4.0489,-4.0489,-4.0489,-4.0489,-4.0489,-4.0489,-4.0489,-4.0489,-4.0508,-4.0796,-4.0816,-4.0642,-4.0489,-4.0508,-4.0508,-4.0508,-4.0508,-4.0489,-4.0489,-4.0489,-4.0489,-4.0508,-4.0489,-4.0489,-4.0392,-3.9892,-3.9354,-3.8738,-3.768,-3.6776,-3.6219,-3.568,-3.5507,-3.5507,-3.5507,-3.5507,-3.5526,-3.543,-3.5045,-3.4533,-3.3797,-3.2979,-3.195,-3.1594,-3.1624,-3.1641,-3.2207,-3.5521,-3.6434,-3.7496,-3.7979,-3.8159,-3.9017,-3.8996,-3.8463,-3.8341,-3.772,-3.6793,-3.6499,-3.6133,-3.5609,-3.5579,-3.5489,-3.5504,-3.5878,-3.6514,-3.7631,-3.9426,-4.0593,-4.0743,-4.2011,-4.2656,-4.2621,-4.183,-4.161,-4.1457,-4.0747,-4.0257,-4.0257,-4.0189,-4.0087,-4.0087,-4.0087,-4.0087,-4.0104,-4.0217,-4.0443,-4.0886,-4.1578,-4.2162,-4.2508,-4.2595,-4.2271,-4.1757,-4.128,-4.0881,-4.0194,-3.9405,-3.9478,-3.9882,-3.9313,-3.9368,-3.9717,-3.9399,-3.9024,-3.9202,-3.9521,-3.9735,-4.0042,-4.0417,-4.0623,-4.0758,-4.0912,-4.1066,-4.1104,-4.07,-4.0662,-4.0489,-4.0489,-4.0604,-4.0739,-4.0777,-4.0796,-4.0854,-4.1316,-4.1412,-4.0873,-4.0758,-4.0642,-4.0642,-4.0658,-4.0681,-4.0969,-4.0931,-4.095,-4.095,-4.0969,-4.0777,-4.0489,-4.0354,-4.0162,-3.9623,-3.9104,-3.7853,-3.6776,-3.6295,-3.5853,-3.5584,-3.5545,-3.5526,-3.5526,-3.5565,-3.5603,-3.5526,-3.4918,-3.4154,-3.366,-3.2924,-3.2908,-3.3008,-3.2988,-3.332,-3.7281,-3.7587,-3.8634,-3.9017,-3.9104,-3.9337,-3.8984,-3.8424,-3.84,-3.7948,-3.7226,-3.6686,-3.6402,-3.6222,-3.5774,-3.5489,-3.5759,-3.6618,-3.7961,-3.9838,-4.0434,-4.1683,-4.2455,-4.3569,-4.3951,-4.3792,-4.3267,-4.2929,-4.2591,-4.1559,-4.095,-4.0899,-4.0426,-4.0138,-4.0172,-4.0155,-4.0087,-4.0203,-4.0469,-4.0756,-4.1108,-4.1937,-4.2519,-4.277,-4.3013,-4.3114,-4.291,-4.2383,-4.198,-4.1629,-4.1079,-4.0712,-4.0763,-4.0598,-4.0598,-4.0579,-4.0102,-3.9773,-3.9946,-3.9883,-3.9791,-4.031,-4.1048,-4.1508,-4.1566,-4.2104,-4.2412,-4.2412,-4.195,-4.1296,-4.0816,-4.0546,-4.0912,-4.147,-4.2027,-4.2412,-4.2354,-4.1566,-4.1527,-4.2008,-4.1873,-4.1527,-4.1527,-4.1527,-4.1527,-4.1508,-4.1527,-4.1527,-4.147,-4.1412,-4.1027,-4.0623,-4.0431,-4.0239,-3.9796,-3.9258,-3.8296,-3.7334,-3.6834,-3.6219,-3.5949,-3.5753,-3.5797,-3.574,-3.5622,-3.5661,-3.5718,-3.5164,-3.4352,-3.414,-3.3965,-3.3809,-3.375,-3.3984,-3.4277,-3.8069,-3.862,-3.9177,-3.9424,-3.9424,-3.9424,-3.8984,-3.8468,-3.8385,-3.7844,-3.7044,-3.6604,-3.6492,-3.6462,-3.6148,-3.6103,-3.67,-3.7834,-3.9291,-4.0754,-4.1661,-4.2747,-4.3658,-4.4243,-4.4434,-4.4062,-4.3623,-4.3284,-4.2726,-4.2219,-4.1711,-4.1644,-4.095,-4.0731,-4.051,-4.0256,-4.0087,-4.0201,-4.0652,-4.1014,-4.1442,-4.2172,-4.2864,-4.3069,-4.3339,-4.3479,-4.3387,-4.3096,-4.2876,-4.2763,-4.2417,-4.2014,-4.1592,-4.1332,-4.1295,-4.1479,-4.091,-4.0725,-4.0875,-4.0954,-4.1032,-4.1417,-4.2096,-4.2264,-4.245,-4.2874,-4.3028,-4.3008,-4.2662,-4.2181,-4.1777,-4.1739,-4.2027,-4.2277,-4.2797,-4.3239,-4.3412,-4.2816,-4.2335,-4.297,-4.2643,-4.245,-4.2412,-4.2393,-4.2393,-4.2393,-4.2374,-4.2335,-4.1681,-4.1566,-4.1143,-4.0796,-4.0585,-4.0315,-3.9931,-3.9392,-3.8777,-3.8123,-3.7719,-3.7065,-3.6512,-3.633,-3.6173,-3.5974,-3.5719,-3.579,-3.5726,-3.5121,-3.4902,-3.498,-3.4863,-3.4531,-3.4531,-3.5,-3.5215,-3.8634,-3.9424,-3.9424,-3.9424,-3.9424,-3.9424,-3.9101,-3.8616,-3.8572,-3.8046,-3.6906,-3.6694,-3.6731,-3.6596,-3.6327,-3.6701,-3.7647,-3.8913,-4.0081,-4.1272,-4.2492,-4.3509,-4.4303,-4.4468,-4.4198,-4.3504,-4.3639,-4.3335,-4.2963,-4.2506,-4.2354,-4.2168,-4.1525,-4.0968,-4.0832,-4.0459,-4.0189,-4.0339,-4.0871,-4.1392,-4.194,-4.2546,-4.3087,-4.3339,-4.3444,-4.3479,-4.3479,-4.3424,-4.3424,-4.3479,-4.3479,-4.3112,-4.2525,-4.1974,-4.1717,-4.2415,-4.1797,-4.172,-4.2044,-4.2143,-4.2303,-4.3052,-4.3239,-4.3258,-4.3297,-4.3528,-4.372,-4.3585,-4.3412,-4.3162,-4.3104,-4.2854,-4.3008,-4.3239,-4.3278,-4.3662,-4.4259,-4.4489,-4.4124,-4.372,-4.3489,-4.3278,-4.3258,-4.3258,-4.3258,-4.3278,-4.3258,-4.2989,-4.2335,-4.1816,-4.1489,-4.0873,-4.0585,-4.0142,-3.9738,-3.9931,-3.9258,-3.8642,-3.8354,-3.7853,-3.7161,-3.6813,-3.6527,-3.6018,-3.5824,-3.5879,-3.5859,-3.5515,-3.5469,-3.5781,-3.584,-3.5566,-3.5742,-3.6094,-3.6074,-3.9757,-3.9424,-3.9424,-3.9424,-3.9424,-3.9424,-3.9307,-3.9262,-3.9188,-3.8822,-3.8045,-3.7473,-3.721,-3.703,-3.6073,-3.6372,-3.7744,-3.9226,-4.0567,-4.1738,-4.2912,-4.3845,-4.4485,-4.4553,-4.4164,-4.3792,-4.3944,-4.4147,-4.3859,-4.3589,-4.3031,-4.232,-4.1627,-4.1069,-4.0629,-4.0189,-4.0273,-4.0641,-4.1181,-4.1854,-4.234,-4.2977,-4.3339,-4.3479,-4.3479,-4.3479,-4.3479,-4.3479,-4.3479,-4.3479,-4.3479,-4.3387,-4.3204,-4.302,-4.3039,-4.3033,-4.2778,-4.264,-4.2994,-4.2822,-4.2794,-4.3133,-4.3739,-4.4085,-4.4239,-4.4662,-4.4816,-4.4797,-4.4374,-4.3874,-4.3162,-4.3355,-4.3547,-4.3855,-4.4162,-4.4432,-4.5066,-4.524,-4.5201,-4.4836,-4.4451,-4.4105,-4.4124,-4.4124,-4.4124,-4.4124,-4.4105,-4.3605,-4.2816,-4.2393,-4.2066,-4.1316,-4.0527,-4.0008,-3.9488,-3.995,-3.9892,-3.9084,-3.87,-3.8527,-3.7892,-3.7319,-3.687,-3.6647,-3.6191,-3.5957,-3.5879,-3.5742,-3.5937,-3.6152,-3.6367,-3.6582,-3.6699,-3.6758,-3.6504,-4.0023,-3.9469,-3.9783,-3.9723,-3.9454,-3.9424,-3.9424,-3.9334,-3.9043,-3.8672,-3.8257,-3.7734,-3.7404,-3.733,-3.7255,-3.7569,-3.8605,-4.0142,-4.1308,-4.2206,-4.3293,-4.4114,-4.4587,-4.457,-4.4384,-4.4198,-4.4418,-4.435,-4.4045,-4.4045,-4.3707,-4.3335,-4.2388,-4.1559,-4.1068,-4.0527,-4.0341,-4.0671,-4.1357,-4.1951,-4.2339,-4.3047,-4.3426,-4.3479,-4.3479,-4.3479,-4.3479,-4.3479,-4.3479,-4.3479,-4.3479,-4.3479,-4.3479,-4.3479,-4.3479,-4.349,-4.3428,-4.3577,-4.3912,-4.3893,-4.4114,-4.4397,-4.4759,-4.4932,-4.5028,-4.5297,-4.5566,-4.549,-4.5374,-4.4836,-4.4489,-4.4335,-4.4605,-4.4836,-4.4951,-4.5143,-4.5451,-4.5566,-4.5586,-4.5586,-4.5201,-4.4913,-4.4989,-4.4989,-4.4989,-4.497,-4.4951,-4.4239,-4.3335,-4.2854,-4.247,-4.1335,-4.0489,-4.0277,-3.9835,-4.0065,-4.0373,-3.9681,-3.9254,-3.908,-3.8753,-3.8238,-3.7909,-3.7692,-3.7129,-3.6289,-3.5996,-3.5918,-3.6211,-3.6504,-3.6816,-3.709,-3.7305,-3.7324,-3.7168,-4.0217,-3.9664,-4.0038,-3.9903,-3.9469,-3.9424,-3.9424,-3.926,-3.8873,-3.8607,-3.8299,-3.7888,-3.7554,-3.7554,-3.7913,-3.8422,-3.9219,-4.0821,-4.1726,-4.23,-4.3697,-4.4587,-4.457,-4.457,-4.4519,-4.4485,-4.4519,-4.4265,-4.4045,-4.4248,-4.4418,-4.3876,-4.2912,-4.2289,-4.1764,-4.0849,-4.0375,-4.0569,-4.1239,-4.1833,-4.2335,-4.297,-4.3479,-4.3479,-4.3479,-4.3479,-4.3479,-4.3479,-4.3479,-4.3479,-4.3479,-4.3479,-4.3479,-4.3479,-4.3513,-4.3646,-4.3924,-4.4308,-4.4644,-4.4935,-4.5093,-4.5297,-4.5509,-4.5566,-4.5566,-4.5509,-4.5586,-4.5586,-4.5547,-4.5509,-4.5336,-4.5509,-4.5509,-4.5509,-4.5509,-4.5586,-4.5566,-4.5586,-4.5586,-4.5586,-4.5586,-4.5528,-4.5413,-4.5393,-4.5297,-4.5297,-4.5259,-4.472,-4.3855,-4.322,-4.2566,-4.1239,-4.0489,-4.0489,-4.0335,-4.0277,-4.0469,-4.0258,-4.003,-3.9925,-3.9605,-3.9234,-3.8878,-3.8398,-3.748,-3.6719,-3.6387,-3.6094,-3.6172,-3.6504,-3.7148,-3.7461,-3.7441,-3.791,-3.8164,-4.0876,-4.0232,-3.9753,-3.9484,-3.9439,-3.9424,-3.9424,-3.9394,-3.917,-3.8923,-3.8376,-3.8252,-3.7883,-3.7689,-3.7554,-3.7659,-3.8447,-4.019,-4.1581,-4.2204,-4.3722,-4.457,-4.457,-4.457,-4.457,-4.457,-4.457,-4.4536,-4.4367,-4.4485,-4.4248,-4.3724,-4.3386,-4.2746,-4.1834,-4.1308,-4.1018,-4.0979,-4.1481,-4.2253,-4.3066,-4.3371,-4.3461,-4.3479,-4.3479,-4.3479,-4.3479,-4.3479,-4.3479,-4.3479,-4.3479,-4.3479,-4.3479,-4.3479,-4.3679,-4.3943,-4.4308,-4.4663,-4.4988,-4.5283,-4.5495,-4.5586,-4.5586,-4.5586,-4.5586,-4.5586,-4.5586,-4.5586,-4.5586,-4.5586,-4.5586,-4.5586,-4.5586,-4.5586,-4.5586,-4.5586,-4.5586,-4.5586,-4.5586,-4.5586,-4.5586,-4.5586,-4.5528,-4.5547,-4.5566,-4.5586,-4.5451,-4.4913,-4.4201,-4.3393,-4.2681,-4.1393,-4.0546,-4.0489,-4.0489,-4.0489,-4.0527,-4.0566,-4.0577,-4.0576,-4.0266,-3.984,-3.9407,-3.8809,-3.8008,-3.7559,-3.7422,-3.707,-3.6426,-3.6543,-3.7226,-3.7402,-3.7402,-3.8047,-3.8828,-4.0442,-3.9858,-3.9918,-3.9753,-3.9439,-3.9424,-3.9424,-3.926,-3.8601,-3.8322,-3.8318,-3.7992,-3.8048,-3.8272,-3.8182,-3.8212,-3.8916,-4.057,-4.1661,-4.2314,-4.368,-4.457,-4.457,-4.457,-4.457,-4.457,-4.457,-4.457,-4.457,-4.4536,-4.4333,-4.4079,-4.3639,-4.3196,-4.2255,-4.2006,-4.1579,-4.1371,-4.1566,-4.2208,-4.2887,-4.3321,-4.3479,-4.3479,-4.3479,-4.3479,-4.3479,-4.3479,-4.3479,-4.3479,-4.3479,-4.3479,-4.3479,-4.3548,-4.3693,-4.4308,-4.4474,-4.4732,-4.5055,-4.54,-4.5549,-4.5586,-4.5586,-4.5586,-4.5586,-4.5586,-4.5586,-4.5586,-4.5586,-4.5586,-4.5586,-4.5586,-4.5586,-4.5586,-4.5586,-4.5586,-4.5586,-4.5586,-4.5586,-4.5586,-4.5586,-4.5586,-4.5586,-4.5586,-4.5586,-4.5586,-4.547,-4.5066,-4.4105,-4.2989,-4.2316,-4.1604,-4.0931,-4.0489,-4.0489,-4.0489,-4.0566,-4.062,-4.0696,-4.0696,-4.0671,-4.034,-4.0,-4.0059,-3.9922,-3.9414,-3.873,-3.7519,-3.6426,-3.6777,-3.7344,-3.7656,-3.7949,-3.8262,-3.8965,-4.0023,-3.9484,-3.9948,-3.9873,-3.9439,-3.9424,-3.9292,-3.8981,-3.8177,-3.7955,-3.8159,-3.7946,-3.8212,-3.8616,-3.8332,-3.8442,-3.9501,-4.1094,-4.1917,-4.271,-4.3671,-4.4497,-4.457,-4.457,-4.457,-4.457,-4.457,-4.457,-4.457,-4.4553,-4.4553,-4.4553,-4.4062,-4.3563,-4.3276,-4.2833,-4.2296,-4.1846,-4.1795,-4.2246,-4.2886,-4.3321,-4.3444,-4.3479,-4.3479,-4.3479,-4.3479,-4.3479,-4.3479,-4.3479,-4.3479,-4.3479,-4.3479,-4.3513,-4.3855,-4.4364,-4.458,-4.4806,-4.5161,-4.5457,-4.5568,-4.5586,-4.5586,-4.5586,-4.5586,-4.5586,-4.5586,-4.5586,-4.5586,-4.5586,-4.5586,-4.5586,-4.5586,-4.5586,-4.5586,-4.5586,-4.5586,-4.5586,-4.5586,-4.5586,-4.5586,-4.5586,-4.5586,-4.5586,-4.5586,-4.5586,-4.5413,-4.5163,-4.4201,-4.2989,-4.2277,-4.1739,-4.1027,-4.0566,-4.0489,-4.0508,-4.0585,-4.0658,-4.0735,-4.0771,-4.0753,-4.0898,-4.082,-4.1035,-4.1152,-4.0215,-3.8945,-3.7637,-3.6504,-3.7031,-3.7617,-3.8281,-3.8672,-3.8926,-3.9336,-4.0008,-3.9424,-3.9484,-3.9484,-3.9424,-3.9424,-3.9086,-3.8585,-3.8352,-3.8303,-3.8394,-3.8307,-3.8018,-3.7838,-3.8166,-3.8614,-3.9756,-4.0658,-4.1917,-4.3124,-4.4114,-4.4547,-4.457,-4.457,-4.457,-4.457,-4.457,-4.457,-4.457,-4.457,-4.457,-4.4519,-4.4367,-4.3985,-4.3693,-4.3415,-4.308,-4.2584,-4.2333,-4.2479,-4.3051,-4.341,-4.3479,-4.3479,-4.3479,-4.3479,-4.3479,-4.3479,-4.3479,-4.3479,-4.3479,-4.3479,-4.3479,-4.3479,-4.3886,-4.4308,-4.458,-4.4853,-4.5263,-4.5513,-4.5586,-4.5586,-4.5586,-4.5586,-4.5586,-4.5586,-4.5586,-4.5586,-4.5586,-4.5586,-4.5586,-4.5586,-4.5586,-4.5586,-4.5586,-4.5586,-4.5586,-4.5586,-4.5586,-4.5586,-4.5586,-4.5586,-4.5586,-4.5586,-4.5586,-4.5586,-4.5528,-4.5278,-4.4547,-4.347,-4.2643,-4.195,-4.1123,-4.0662,-4.0508,-4.0527,-4.0546,-4.0639,-4.0716,-4.0791,-4.082,-4.0996,-4.1191,-4.1016,-4.0859,-4.0019,-3.916,-3.7891,-3.7129,-3.7402,-3.7832,-3.832,-3.918,-3.9746,-4.0215,-3.9649,-3.9424,-3.9424,-3.9424,-3.9424,-3.9424,-3.8984,-3.8495,-3.8382,-3.837,-3.8367,-3.8417,-3.8497,-3.8697,-3.9268,-3.9702,-4.0458,-4.185,-4.2666,-4.3379,-4.4088,-4.4491,-4.457,-4.457,-4.457,-4.457,-4.457,-4.457,-4.457,-4.457,-4.457,-4.457,-4.457,-4.4468,-4.4209,-4.3939,-4.3647,-4.3324,-4.308,-4.3214,-4.2902,-4.3375,-4.3479,-4.3479,-4.3479,-4.3479,-4.3479,-4.3479,-4.3479,-4.3479,-4.3479,-4.3479,-4.3479,-4.3479,-4.3758,-4.4204,-4.4447,-4.483,-4.5243,-4.5476,-4.5586,-4.5586,-4.5586,-4.5586,-4.5586,-4.5586,-4.5586,-4.5586,-4.5586,-4.5586,-4.5586,-4.5586,-4.5586,-4.5586,-4.5586,-4.5586,-4.5586,-4.5586,-4.5586,-4.5586,-4.5586,-4.5586,-4.5586,-4.5586,-4.5586,-4.5586,-4.5509,-4.5353,-4.4662,-4.4008,-4.322,-4.2508,-4.1739,-4.1123,-4.095,-4.0758,-4.0585,-4.0677,-4.0793,-4.0789,-4.0895,-4.1055,-4.1152,-4.0918,-4.0547,-3.9805,-3.8984,-3.8066,-3.7539,-3.7266,-3.7578,-3.8164,-3.916,-4.0391,-4.082,-3.9424,-3.9424,-3.9424,-3.9424,-3.9424,-3.9424,-3.8999,-3.8495,-3.8367,-3.8265,-3.8138,-3.8467,-3.8796,-3.9294,-3.9844,-4.0628,-4.1201,-4.222,-4.3059,-4.3723,-4.4322,-4.4587,-4.457,-4.457,-4.457,-4.457,-4.457,-4.457,-4.457,-4.457,-4.457,-4.457,-4.457,-4.4553,-4.4536,-4.4461,-4.4165,-4.4007,-4.3975,-4.3979,-4.3487,-4.3688,-4.3644,-4.3589,-4.3479,-4.3479,-4.3479,-4.3479,-4.3479,-4.3479,-4.3479,-4.3479,-4.3479,-4.3548,-4.3712,-4.4004,-4.4373,-4.4751,-4.5074,-4.54,-4.5586,-4.5586,-4.5586,-4.5586,-4.5586,-4.5586,-4.5586,-4.5586,-4.5586,-4.5586,-4.5586,-4.5586,-4.5586,-4.5586,-4.5586,-4.5586,-4.5586,-4.5586,-4.5586,-4.5586,-4.5586,-4.5586,-4.5586,-4.5586,-4.5586,-4.5586,-4.5566,-4.5468,-4.5103,-4.4451,-4.3835,-4.3162,-4.2508,-4.195,-4.1489,-4.1393,-4.1277,-4.1158,-4.1197,-4.0927,-4.097,-4.113,-4.1191,-4.1074,-4.0547,-3.9707,-3.9082,-3.8535,-3.7637,-3.6738,-3.7461,-3.8437,-3.9707,-4.084,-4.0976,-3.9424,-3.9424,-3.9424,-3.9424,-3.9424,-3.9424,-3.8984,-3.8438,-3.8372,-3.8151,-3.7913,-3.8811,-3.9005,-3.8882,-3.9612,-4.069,-4.1674,-4.2252,-4.3019,-4.4188,-4.4451,-4.457,-4.457,-4.457,-4.457,-4.457,-4.457,-4.457,-4.457,-4.457,-4.457,-4.457,-4.457,-4.457,-4.457,-4.4502,-4.4692,-4.503,-4.504,-4.4967,-4.4656,-4.4563,-4.4158,-4.3846,-4.3534,-4.3497,-4.3479,-4.3479,-4.3479,-4.3479,-4.3479,-4.3479,-4.3479,-4.3479,-4.3646,-4.3924,-4.4364,-4.4751,-4.5096,-4.5419,-4.5568,-4.5586,-4.5586,-4.5586,-4.5586,-4.5586,-4.5586,-4.5586,-4.5586,-4.5586,-4.5586,-4.5586,-4.5586,-4.5586,-4.5586,-4.5586,-4.5586,-4.5586,-4.5586,-4.5586,-4.5586,-4.5586,-4.5586,-4.5586,-4.5586,-4.5586,-4.5586,-4.5451,-4.5199,-4.4951,-4.4355,-4.3624,-4.3028,-4.2852,-4.239,-4.2143,-4.1989,-4.1816,-4.1628,-4.1422,-4.1222,-4.1237,-4.125,-4.1191,-4.0586,-3.9746,-3.9453,-3.9199,-3.8379,-3.7754,-3.8144,-3.9062,-4.0332,-4.1133,-4.1172,-3.9424,-3.9424,-3.9424,-3.9424,-3.9424,-3.9424,-3.8984,-3.8483,-3.8433,-3.8531,-3.8796,-3.9305,-3.9349,-3.9485,-4.0399,-4.1362,-4.1997,-4.3469,-4.4367,-4.444,-4.457,-4.457,-4.457,-4.457,-4.457,-4.457,-4.457,-4.457,-4.457,-4.457,-4.457,-4.457,-4.4665,-4.457,-4.4868,-4.5124,-4.5678,-4.5463,-4.5807,-4.6139,-4.5553,-4.5057,-4.4617,-4.4268,-4.3791,-4.3552,-4.3497,-4.3479,-4.3479,-4.3479,-4.3479,-4.3479,-4.3479,-4.3479,-4.3563,-4.3836,-4.4194,-4.4872,-4.5243,-4.5568,-4.5586,-4.5586,-4.5586,-4.5586,-4.5586,-4.5586,-4.5586,-4.5605,-4.5605,-4.5605,-4.5586,-4.5586,-4.5586,-4.5586,-4.5586,-4.5586,-4.5586,-4.5586,-4.5586,-4.5586,-4.5586,-4.5586,-4.5586,-4.5586,-4.5586,-4.5586,-4.5586,-4.5201,-4.4893,-4.5124,-4.4874,-4.4028,-4.3467,-4.3448,-4.3313,-4.3085,-4.2986,-4.2925,-4.2502,-4.2051,-4.1821,-4.1484,-4.1269,-4.1191,-4.0527,-3.9863,-3.9766,-3.9609,-3.9297,-3.9062,-3.9316,-3.9668,-4.0644,-4.1172,-4.1191,-3.9424,-3.9424,-3.9424,-3.9424,-3.9424,-3.9424,-3.9116,-3.8778,-3.8763,-3.8984,-3.9292,-3.9409,-3.9409,-3.9793,-4.0774,-4.1869,-4.2125,-4.3426,-4.444,-4.4497,-4.457,-4.457,-4.457,-4.457,-4.457,-4.457,-4.457,-4.457,-4.457,-4.457,-4.4703,-4.4889,-4.4906,-4.5124,-4.5431,-4.5946,-4.6127,-4.6086,-4.6651,-4.7074,-4.6415,-4.5847,-4.5314,-4.4727,-4.4213,-4.3828,-4.3589,-4.3479,-4.3479,-4.3479,-4.3479,-4.3479,-4.3479,-4.3479,-4.3582,-4.3804,-4.4346,-4.5011,-4.5438,-4.5586,-4.5586,-4.5586,-4.5586,-4.5586,-4.5586,-4.5586,-4.5855,-4.5893,-4.572,-4.5817,-4.5893,-4.5855,-4.5586,-4.5586,-4.5586,-4.5586,-4.5586,-4.5586,-4.5586,-4.5586,-4.5586,-4.5586,-4.5586,-4.5586,-4.5586,-4.5586,-4.5586,-4.5143,-4.4797,-4.5086,-4.5355,-4.4718,-4.4295,-4.4449,-4.4352,-4.4066,-4.4006,-4.4001,-4.334,-4.2539,-4.209,-4.168,-4.1445,-4.1191,-4.0781,-4.043,-4.0215,-4.0,-3.9785,-3.9922,-4.0273,-4.0684,-4.1152,-4.1191,-4.1191,-3.9424,-3.9424,-3.9424,-3.9424,-3.9424,-3.9424,-3.9409,-3.9337,-3.9337,-3.9337,-3.9424,-3.9481,-3.961,-3.9737,-4.05,-4.1478,-4.2252,-4.3185,-4.3931,-4.444,-4.457,-4.457,-4.457,-4.457,-4.457,-4.457,-4.457,-4.457,-4.457,-4.457,-4.4852,-4.532,-4.532,-4.5612,-4.6003,-4.6375,-4.6482,-4.6757,-4.7348,-4.7607,-4.7168,-4.6874,-4.6159,-4.5443,-4.4764,-4.425,-4.3901,-4.3608,-4.3516,-4.3479,-4.3479,-4.3479,-4.3479,-4.3479,-4.3693,-4.4106,-4.4713,-4.5161,-4.5513,-4.5586,-4.5586,-4.5586,-4.5586,-4.5586,-4.5586,-4.5605,-4.5817,-4.599,-4.5932,-4.624,-4.6451,-4.6009,-4.5586,-4.5586,-4.5586,-4.5586,-4.5586,-4.5586,-4.5586,-4.5586,-4.5586,-4.5586,-4.5586,-4.5586,-4.5586,-4.5624,-4.5661,-4.5603,-4.5316,-4.5355,-4.5584,-4.5565,-4.5334,-4.5584,-4.5389,-4.4982,-4.4962,-4.4948,-4.3594,-4.2715,-4.2305,-4.1894,-4.1445,-4.1191,-4.1191,-4.0996,-4.0703,-4.0527,-4.041,-4.0625,-4.084,-4.0957,-4.1191,-4.1191,-4.1191,-3.9424,-3.9424,-3.9424,-3.9424,-3.9424,-3.9424,-3.9424,-3.9424,-3.9424,-3.9424,-3.9409,-4.0045,-4.0255,-4.0432,-4.1869,-4.252,-4.3169,-4.3739,-4.4236,-4.4553,-4.457,-4.457,-4.457,-4.457,-4.457,-4.457,-4.457,-4.457,-4.457,-4.457,-4.4906,-4.5425,-4.5614,-4.5926,-4.6423,-4.6871,-4.7017,-4.7284,-4.7954,-4.7992,-4.7792,-4.7462,-4.6801,-4.625,-4.5314,-4.4782,-4.4342,-4.3864,-4.3699,-4.3497,-4.3497,-4.3497,-4.3479,-4.3513,-4.3712,-4.4373,-4.4853,-4.5243,-4.5513,-4.5586,-4.5586,-4.5605,-4.5643,-4.5586,-4.5586,-4.5663,-4.5797,-4.597,-4.5932,-4.6067,-4.6201,-4.5932,-4.5643,-4.5586,-4.5586,-4.5586,-4.5586,-4.5586,-4.5586,-4.5586,-4.5586,-4.5586,-4.5586,-4.5586,-4.5605,-4.5661,-4.5699,-4.5719,-4.5738,-4.5719,-4.5742,-4.5742,-4.5853,-4.593,-4.6035,-4.5731,-4.5818,-4.5683,-4.4219,-4.3125,-4.2891,-4.2402,-4.1582,-4.1191,-4.1191,-4.1191,-4.1133,-4.0957,-4.0781,-4.0898,-4.1094,-4.1152,-4.1191,-4.1191,-4.1191,-3.8616,-3.8616,-3.8631,-3.8766,-3.9005,-3.8996,-3.8984,-3.9071,-3.9277,-3.9292,-3.9128,-4.0163,-4.069,-4.0946,-4.2316,-4.3246,-4.3306,-4.4064,-4.457,-4.457,-4.457,-4.457,-4.457,-4.457,-4.457,-4.457,-4.457,-4.457,-4.457,-4.4665,-4.4944,-4.5833,-4.5883,-4.6401,-4.708,-4.7587,-4.7717,-4.7871,-4.8084,-4.8269,-4.8104,-4.781,-4.7535,-4.6985,-4.5975,-4.5443,-4.4819,-4.4305,-4.4158,-4.3754,-4.3663,-4.3773,-4.3695,-4.3612,-4.3931,-4.4527,-4.4896,-4.5262,-4.5532,-4.5586,-4.5586,-4.5682,-4.5893,-4.6124,-4.5951,-4.5913,-4.6028,-4.6124,-4.5855,-4.5701,-4.5797,-4.5836,-4.5701,-4.5586,-4.5586,-4.5586,-4.5586,-4.5586,-4.5586,-4.5586,-4.5586,-4.5586,-4.5586,-4.5586,-4.5624,-4.5719,-4.5776,-4.5796,-4.5796,-4.5796,-4.58,-4.5809,-4.5963,-4.6082,-4.6164,-4.6191,-4.6113,-4.5723,-4.4531,-4.3652,-4.3457,-4.2598,-4.1484,-4.1191,-4.1191,-4.1191,-4.1191,-4.1191,-4.1113,-4.1211,-4.123,-4.123,-4.123,-4.1191,-4.1191,-3.7434,-3.7479,-3.7464,-3.7958,-3.8322,-3.8451,-3.844,-3.8426,-3.9053,-3.8981,-3.8773,-4.014,-4.0878,-4.1346,-4.2785,-4.3502,-4.3756,-4.4327,-4.457,-4.457,-4.457,-4.457,-4.457,-4.457,-4.457,-4.457,-4.457,-4.457,-4.457,-4.472,-4.5178,-4.6318,-4.6318,-4.6847,-4.7816,-4.805,-4.8151,-4.8153,-4.8233,-4.8324,-4.8324,-4.8177,-4.7976,-4.737,-4.6801,-4.6287,-4.5369,-4.5021,-4.5039,-4.4268,-4.392,-4.403,-4.3836,-4.3786,-4.4165,-4.4553,-4.4938,-4.5243,-4.5495,-4.5586,-4.5586,-4.5855,-4.6374,-4.6605,-4.6471,-4.6509,-4.6682,-4.649,-4.6259,-4.597,-4.599,-4.5817,-4.5624,-4.5586,-4.5586,-4.5586,-4.5586,-4.5586,-4.5586,-4.5586,-4.5586,-4.5586,-4.5586,-4.5586,-4.568,-4.5776,-4.5815,-4.5834,-4.5909,-4.5909,-4.5896,-4.5925,-4.6065,-4.6181,-4.6192,-4.6211,-4.6133,-4.5586,-4.4531,-4.3711,-4.3164,-4.2266,-4.1289,-4.1191,-4.1191,-4.1191,-4.1191,-4.1211,-4.123,-4.125,-4.1269,-4.1289,-4.1308,-4.1406,-4.1328,-3.7404,-3.7449,-3.7943,-3.8257,-3.8422,-3.8421,-3.8381,-3.8438,-3.8522,-3.8556,-3.8826,-4.0525,-4.1658,-4.1853,-4.341,-4.4196,-4.4327,-4.4384,-4.457,-4.457,-4.457,-4.457,-4.457,-4.457,-4.457,-4.457,-4.457,-4.457,-4.457,-4.472,-4.5196,-4.6222,-4.6413,-4.7026,-4.821,-4.8324,-4.8324,-4.8324,-4.8324,-4.8324,-4.8324,-4.8324,-4.8141,-4.7609,-4.7131,-4.6287,-4.5369,-4.4562,-4.4213,-4.3608,-4.3644,-4.3644,-4.3532,-4.3836,-4.4194,-4.4572,-4.4872,-4.5161,-4.5438,-4.555,-4.5549,-4.5855,-4.6297,-4.6701,-4.699,-4.7317,-4.7317,-4.699,-4.6624,-4.6317,-4.6047,-4.5778,-4.5586,-4.5586,-4.5586,-4.5586,-4.5586,-4.5586,-4.5586,-4.5586,-4.5586,-4.5586,-4.5586,-4.5624,-4.5719,-4.5776,-4.5796,-4.5871,-4.6037,-4.6092,-4.604,-4.6069,-4.6182,-4.6264,-4.625,-4.6211,-4.6152,-4.5508,-4.4492,-4.3672,-4.291,-4.2187,-4.1465,-4.1269,-4.1191,-4.1269,-4.1308,-4.125,-4.1269,-4.1543,-4.1738,-4.1933,-4.2012,-4.209,-4.1816,-3.6567,-3.6611,-3.6956,-3.7459,-3.7948,-3.7988,-3.7827,-3.7783,-3.8477,-3.8687,-3.8895,-4.0824,-4.1981,-4.2236,-4.3798,-4.457,-4.457,-4.457,-4.457,-4.457,-4.457,-4.457,-4.457,-4.457,-4.457,-4.457,-4.457,-4.457,-4.457,-4.472,-4.5178,-4.6192,-4.646,-4.7026,-4.8132,-4.8324,-4.8324,-4.8324,-4.8324,-4.8324,-4.8324,-4.8324,-4.8324,-4.7865,-4.7241,-4.6379,-4.5736,-4.4874,-4.4287,-4.3754,-4.3534,-4.3534,-4.3513,-4.3646,-4.3943,-4.4233,-4.4535,-4.4853,-4.5222,-4.54,-4.5457,-4.5782,-4.6394,-4.6855,-4.7048,-4.7298,-4.7432,-4.7086,-4.6278,-4.5874,-4.5817,-4.5605,-4.5586,-4.5586,-4.5586,-4.5586,-4.5586,-4.5586,-4.5586,-4.5586,-4.5586,-4.5586,-4.5586,-4.5586,-4.568,-4.5786,-4.5806,-4.591,-4.6084,-4.6228,-4.6183,-4.6172,-4.6269,-4.6289,-4.6289,-4.623,-4.6172,-4.5371,-4.4473,-4.3613,-4.2851,-4.2266,-4.1738,-4.1758,-4.166,-4.1484,-4.1484,-4.166,-4.2129,-4.2617,-4.2695,-4.2734,-4.2754,-4.2754,-4.2578,-3.5906,-3.5797,-3.5933,-3.6669,-3.7573,-3.7525,-3.7327,-3.7302,-3.8457,-3.9039,-3.9183,-4.1151,-4.1949,-4.2753,-4.3722,-4.4253,-4.457,-4.457,-4.457,-4.457,-4.457,-4.457,-4.457,-4.457,-4.457,-4.457,-4.457,-4.457,-4.457,-4.4797,-4.532,-4.6192,-4.671,-4.7132,-4.7937,-4.8324,-4.8324,-4.8324,-4.8324,-4.8324,-4.8324,-4.8288,-4.8214,-4.7939,-4.7388,-4.6617,-4.6104,-4.5406,-4.4709,-4.4267,-4.3624,-4.3479,-4.3479,-4.3563,-4.374,-4.4016,-4.4117,-4.4489,-4.4877,-4.5137,-4.5263,-4.563,-4.6416,-4.6894,-4.7048,-4.7144,-4.7278,-4.6971,-4.6144,-4.574,-4.5682,-4.5586,-4.5586,-4.5586,-4.5586,-4.5586,-4.5586,-4.5586,-4.5586,-4.5586,-4.5586,-4.5586,-4.5586,-4.5586,-4.5676,-4.5761,-4.5867,-4.5981,-4.6078,-4.6209,-4.6236,-4.623,-4.6269,-4.6289,-4.6289,-4.625,-4.6191,-4.5527,-4.4648,-4.3672,-4.2891,-4.2695,-4.2558,-4.25,-4.2363,-4.2246,-4.2324,-4.2558,-4.3066,-4.3516,-4.3691,-4.3652,-4.3359,-4.3359,-4.3379,-3.7354,-3.7401,-3.7954,-3.8315,-3.8476,-3.7872,-3.8177,-3.8913,-3.8245,-3.8505,-3.9793,-4.1297,-4.2441,-4.3075,-4.4064,-4.457,-4.457,-4.457,-4.457,-4.457,-4.457,-4.457,-4.457,-4.457,-4.457,-4.457,-4.457,-4.457,-4.4665,-4.5089,-4.563,-4.6383,-4.7044,-4.7512,-4.8093,-4.8324,-4.8324,-4.8324,-4.8324,-4.8324,-4.8324,-4.8196,-4.7847,-4.7333,-4.6544,-4.6177,-4.5645,-4.458,-4.4375,-4.4154,-4.3844,-4.3571,-4.3479,-4.3513,-4.366,-4.3818,-4.3924,-4.4204,-4.4561,-4.4896,-4.5099,-4.53,-4.6032,-4.6701,-4.6797,-4.6817,-4.6894,-4.6894,-4.6297,-4.6009,-4.5874,-4.5643,-4.5586,-4.5586,-4.5586,-4.5586,-4.5586,-4.5586,-4.5586,-4.5586,-4.5586,-4.5586,-4.5586,-4.5605,-4.568,-4.5786,-4.587,-4.5988,-4.6147,-4.6234,-4.63,-4.6289,-4.6289,-4.6289,-4.6289,-4.6289,-4.6133,-4.5527,-4.5019,-4.4355,-4.3828,-4.3535,-4.3418,-4.3379,-4.334,-4.3262,-4.3379,-4.3457,-4.3691,-4.4082,-4.4512,-4.459,-4.4199,-4.4121,-4.4297]}]]